<?xml version="1.0" encoding="UTF-8" standalone="no" ?><gpx xmlns="http://www.topografix.com/GPX/1/1" xmlns:gpxx="http://www.garmin.com/xmlschemas/GpxExtensions/v3" xmlns:gpxtpx="http://www.garmin.com/xmlschemas/TrackPointExtension/v1" creator="Oregon 300" version="1.1" xmlns:xsi="http://www.w3.org/2001/XMLSchema-instance" xsi:schemaLocation="http://www.topografix.com/GPX/1/1 http://www.topografix.com/GPX/1/1/gpx.xsd http://www.garmin.com/xmlschemas/GpxExtensions/v3 http://www.garmin.com/xmlschemas/GpxExtensionsv3.xsd http://www.garmin.com/xmlschemas/TrackPointExtension/v1 http://www.garmin.com/xmlschemas/TrackPointExtensionv1.xsd"><metadata><link href="http://www.garmin.com"><text>Garmin International</text></link><time>2016-10-09T09:52:13Z</time></metadata><trk><name>OCT-09-16 11:52:11</name><trkseg><trkpt lat="49.682882" lon="5.813144"><ele>412.54</ele><time>2016-10-09T06:38:28Z</time></trkpt><trkpt lat="49.682864" lon="5.813151"><ele>408.22</ele><time>2016-10-09T06:38:29Z</time></trkpt><trkpt lat="49.682846" lon="5.813155"><ele>413.02</ele><time>2016-10-09T06:38:30Z</time></trkpt><trkpt lat="49.682830" lon="5.813155"><ele>414.95</ele><time>2016-10-09T06:38:31Z</time></trkpt><trkpt lat="49.682815" lon="5.813154"><ele>403.89</ele><time>2016-10-09T06:38:32Z</time></trkpt><trkpt lat="49.682801" lon="5.813155"><ele>407.74</ele><time>2016-10-09T06:38:33Z</time></trkpt><trkpt lat="49.682786" lon="5.813155"><ele>412.06</ele><time>2016-10-09T06:38:34Z</time></trkpt><trkpt lat="49.682770" lon="5.813153"><ele>409.66</ele><time>2016-10-09T06:38:35Z</time></trkpt><trkpt lat="49.682756" lon="5.813151"><ele>409.18</ele><time>2016-10-09T06:38:36Z</time></trkpt><trkpt lat="49.682745" lon="5.813148"><ele>409.18</ele><time>2016-10-09T06:38:37Z</time></trkpt><trkpt lat="49.682731" lon="5.813143"><ele>401.49</ele><time>2016-10-09T06:38:40Z</time></trkpt><trkpt lat="49.682731" lon="5.813143"><ele>409.66</ele><time>2016-10-09T06:38:41Z</time></trkpt><trkpt lat="49.682701" lon="5.813139"><ele>409.18</ele><time>2016-10-09T06:38:52Z</time></trkpt><trkpt lat="49.682686" lon="5.813143"><ele>409.66</ele><time>2016-10-09T06:38:53Z</time></trkpt><trkpt lat="49.682671" lon="5.813144"><ele>409.18</ele><time>2016-10-09T06:38:54Z</time></trkpt><trkpt lat="49.682653" lon="5.813140"><ele>409.18</ele><time>2016-10-09T06:38:55Z</time></trkpt><trkpt lat="49.682632" lon="5.813122"><ele>409.18</ele><time>2016-10-09T06:38:56Z</time></trkpt><trkpt lat="49.682615" lon="5.813096"><ele>409.66</ele><time>2016-10-09T06:38:57Z</time></trkpt><trkpt lat="49.682599" lon="5.813064"><ele>409.66</ele><time>2016-10-09T06:38:58Z</time></trkpt><trkpt lat="49.682579" lon="5.813028"><ele>409.18</ele><time>2016-10-09T06:38:59Z</time></trkpt><trkpt lat="49.682562" lon="5.812980"><ele>409.66</ele><time>2016-10-09T06:39:00Z</time></trkpt><trkpt lat="49.682561" lon="5.812926"><ele>409.18</ele><time>2016-10-09T06:39:01Z</time></trkpt><trkpt lat="49.682575" lon="5.812870"><ele>409.18</ele><time>2016-10-09T06:39:02Z</time></trkpt><trkpt lat="49.682601" lon="5.812814"><ele>409.18</ele><time>2016-10-09T06:39:03Z</time></trkpt><trkpt lat="49.682629" lon="5.812765"><ele>409.18</ele><time>2016-10-09T06:39:04Z</time></trkpt><trkpt lat="49.682660" lon="5.812728"><ele>408.70</ele><time>2016-10-09T06:39:05Z</time></trkpt><trkpt lat="49.682693" lon="5.812692"><ele>409.18</ele><time>2016-10-09T06:39:06Z</time></trkpt><trkpt lat="49.682727" lon="5.812655"><ele>409.18</ele><time>2016-10-09T06:39:07Z</time></trkpt><trkpt lat="49.682757" lon="5.812613"><ele>409.66</ele><time>2016-10-09T06:39:08Z</time></trkpt><trkpt lat="49.682789" lon="5.812567"><ele>409.18</ele><time>2016-10-09T06:39:09Z</time></trkpt><trkpt lat="49.682825" lon="5.812516"><ele>409.66</ele><time>2016-10-09T06:39:10Z</time></trkpt><trkpt lat="49.682896" lon="5.812403"><ele>409.18</ele><time>2016-10-09T06:39:12Z</time></trkpt><trkpt lat="49.682919" lon="5.812329"><ele>409.18</ele><time>2016-10-09T06:39:13Z</time></trkpt><trkpt lat="49.682942" lon="5.812263"><ele>409.18</ele><time>2016-10-09T06:39:14Z</time></trkpt><trkpt lat="49.682967" lon="5.812199"><ele>409.18</ele><time>2016-10-09T06:39:15Z</time></trkpt><trkpt lat="49.682992" lon="5.812133"><ele>409.18</ele><time>2016-10-09T06:39:16Z</time></trkpt><trkpt lat="49.683016" lon="5.812069"><ele>409.18</ele><time>2016-10-09T06:39:17Z</time></trkpt><trkpt lat="49.683036" lon="5.812007"><ele>408.70</ele><time>2016-10-09T06:39:18Z</time></trkpt><trkpt lat="49.683058" lon="5.811944"><ele>408.70</ele><time>2016-10-09T06:39:19Z</time></trkpt><trkpt lat="49.683085" lon="5.811885"><ele>408.70</ele><time>2016-10-09T06:39:20Z</time></trkpt><trkpt lat="49.683114" lon="5.811839"><ele>408.70</ele><time>2016-10-09T06:39:21Z</time></trkpt><trkpt lat="49.683132" lon="5.811801"><ele>408.70</ele><time>2016-10-09T06:39:22Z</time></trkpt><trkpt lat="49.683136" lon="5.811770"><ele>408.70</ele><time>2016-10-09T06:39:23Z</time></trkpt><trkpt lat="49.683138" lon="5.811735"><ele>408.70</ele><time>2016-10-09T06:39:24Z</time></trkpt><trkpt lat="49.683122" lon="5.811629"><ele>408.70</ele><time>2016-10-09T06:39:26Z</time></trkpt><trkpt lat="49.683106" lon="5.811563"><ele>408.22</ele><time>2016-10-09T06:39:27Z</time></trkpt><trkpt lat="49.683104" lon="5.811485"><ele>407.74</ele><time>2016-10-09T06:39:28Z</time></trkpt><trkpt lat="49.683110" lon="5.811407"><ele>407.74</ele><time>2016-10-09T06:39:29Z</time></trkpt><trkpt lat="49.683117" lon="5.811333"><ele>407.26</ele><time>2016-10-09T06:39:30Z</time></trkpt><trkpt lat="49.683135" lon="5.811275"><ele>407.26</ele><time>2016-10-09T06:39:31Z</time></trkpt><trkpt lat="49.683165" lon="5.811234"><ele>407.26</ele><time>2016-10-09T06:39:32Z</time></trkpt><trkpt lat="49.683200" lon="5.811203"><ele>407.74</ele><time>2016-10-09T06:39:33Z</time></trkpt><trkpt lat="49.683305" lon="5.811057"><ele>408.70</ele><time>2016-10-09T06:39:37Z</time></trkpt><trkpt lat="49.683343" lon="5.811036"><ele>409.18</ele><time>2016-10-09T06:39:38Z</time></trkpt><trkpt lat="49.683382" lon="5.811037"><ele>409.18</ele><time>2016-10-09T06:39:39Z</time></trkpt><trkpt lat="49.683418" lon="5.811049"><ele>409.18</ele><time>2016-10-09T06:39:40Z</time></trkpt><trkpt lat="49.683456" lon="5.811068"><ele>410.14</ele><time>2016-10-09T06:39:41Z</time></trkpt><trkpt lat="49.683493" lon="5.811093"><ele>410.62</ele><time>2016-10-09T06:39:42Z</time></trkpt><trkpt lat="49.683529" lon="5.811114"><ele>410.62</ele><time>2016-10-09T06:39:43Z</time></trkpt><trkpt lat="49.683789" lon="5.811108"><ele>411.58</ele><time>2016-10-09T06:39:52Z</time></trkpt><trkpt lat="49.683809" lon="5.811074"><ele>411.58</ele><time>2016-10-09T06:39:53Z</time></trkpt><trkpt lat="49.683811" lon="5.811027"><ele>411.10</ele><time>2016-10-09T06:39:54Z</time></trkpt><trkpt lat="49.683757" lon="5.810749"><ele>411.10</ele><time>2016-10-09T06:39:59Z</time></trkpt><trkpt lat="49.683758" lon="5.810687"><ele>411.58</ele><time>2016-10-09T06:40:00Z</time></trkpt><trkpt lat="49.683609" lon="5.809854"><ele>409.18</ele><time>2016-10-09T06:40:10Z</time></trkpt><trkpt lat="49.683590" lon="5.809761"><ele>409.18</ele><time>2016-10-09T06:40:11Z</time></trkpt><trkpt lat="49.683566" lon="5.809669"><ele>409.18</ele><time>2016-10-09T06:40:12Z</time></trkpt><trkpt lat="49.683550" lon="5.809577"><ele>408.70</ele><time>2016-10-09T06:40:13Z</time></trkpt><trkpt lat="49.683531" lon="5.809484"><ele>408.22</ele><time>2016-10-09T06:40:14Z</time></trkpt><trkpt lat="49.683460" lon="5.809218"><ele>407.26</ele><time>2016-10-09T06:40:17Z</time></trkpt><trkpt lat="49.683438" lon="5.809171"><ele>407.26</ele><time>2016-10-09T06:40:18Z</time></trkpt><trkpt lat="49.683415" lon="5.809162"><ele>407.26</ele><time>2016-10-09T06:40:19Z</time></trkpt><trkpt lat="49.683394" lon="5.809182"><ele>407.26</ele><time>2016-10-09T06:40:20Z</time></trkpt><trkpt lat="49.683371" lon="5.809202"><ele>407.26</ele><time>2016-10-09T06:40:21Z</time></trkpt><trkpt lat="49.683337" lon="5.809207"><ele>406.77</ele><time>2016-10-09T06:40:22Z</time></trkpt><trkpt lat="49.683292" lon="5.809206"><ele>406.29</ele><time>2016-10-09T06:40:23Z</time></trkpt><trkpt lat="49.683242" lon="5.809207"><ele>406.29</ele><time>2016-10-09T06:40:24Z</time></trkpt><trkpt lat="49.683192" lon="5.809208"><ele>406.29</ele><time>2016-10-09T06:40:25Z</time></trkpt><trkpt lat="49.682940" lon="5.809220"><ele>404.85</ele><time>2016-10-09T06:40:30Z</time></trkpt><trkpt lat="49.682907" lon="5.809194"><ele>404.85</ele><time>2016-10-09T06:40:31Z</time></trkpt><trkpt lat="49.682881" lon="5.809166"><ele>404.85</ele><time>2016-10-09T06:40:32Z</time></trkpt><trkpt lat="49.682866" lon="5.809126"><ele>404.85</ele><time>2016-10-09T06:40:33Z</time></trkpt><trkpt lat="49.682865" lon="5.809072"><ele>404.85</ele><time>2016-10-09T06:40:34Z</time></trkpt><trkpt lat="49.682870" lon="5.809017"><ele>404.85</ele><time>2016-10-09T06:40:35Z</time></trkpt><trkpt lat="49.682876" lon="5.808961"><ele>404.85</ele><time>2016-10-09T06:40:36Z</time></trkpt><trkpt lat="49.682870" lon="5.808899"><ele>404.85</ele><time>2016-10-09T06:40:37Z</time></trkpt><trkpt lat="49.682861" lon="5.808838"><ele>404.85</ele><time>2016-10-09T06:40:38Z</time></trkpt><trkpt lat="49.682847" lon="5.808784"><ele>404.85</ele><time>2016-10-09T06:40:39Z</time></trkpt><trkpt lat="49.682818" lon="5.808743"><ele>404.85</ele><time>2016-10-09T06:40:40Z</time></trkpt><trkpt lat="49.682776" lon="5.808719"><ele>404.37</ele><time>2016-10-09T06:40:41Z</time></trkpt><trkpt lat="49.682732" lon="5.808714"><ele>404.37</ele><time>2016-10-09T06:40:42Z</time></trkpt><trkpt lat="49.682687" lon="5.808719"><ele>404.37</ele><time>2016-10-09T06:40:43Z</time></trkpt><trkpt lat="49.682641" lon="5.808720"><ele>403.89</ele><time>2016-10-09T06:40:44Z</time></trkpt><trkpt lat="49.682595" lon="5.808717"><ele>403.41</ele><time>2016-10-09T06:40:45Z</time></trkpt><trkpt lat="49.682546" lon="5.808723"><ele>403.89</ele><time>2016-10-09T06:40:46Z</time></trkpt><trkpt lat="49.682492" lon="5.808732"><ele>403.41</ele><time>2016-10-09T06:40:47Z</time></trkpt><trkpt lat="49.682432" lon="5.808741"><ele>403.41</ele><time>2016-10-09T06:40:48Z</time></trkpt><trkpt lat="49.682395" lon="5.808788"><ele>402.93</ele><time>2016-10-09T06:40:49Z</time></trkpt><trkpt lat="49.682378" lon="5.808857"><ele>403.41</ele><time>2016-10-09T06:40:50Z</time></trkpt><trkpt lat="49.682371" lon="5.808937"><ele>403.41</ele><time>2016-10-09T06:40:51Z</time></trkpt><trkpt lat="49.682367" lon="5.809014"><ele>403.41</ele><time>2016-10-09T06:40:52Z</time></trkpt><trkpt lat="49.682366" lon="5.809094"><ele>403.41</ele><time>2016-10-09T06:40:53Z</time></trkpt><trkpt lat="49.682379" lon="5.809561"><ele>403.41</ele><time>2016-10-09T06:40:59Z</time></trkpt><trkpt lat="49.682390" lon="5.809715"><ele>403.41</ele><time>2016-10-09T06:41:01Z</time></trkpt><trkpt lat="49.682414" lon="5.810140"><ele>402.93</ele><time>2016-10-09T06:41:06Z</time></trkpt><trkpt lat="49.682419" lon="5.810804"><ele>401.01</ele><time>2016-10-09T06:41:13Z</time></trkpt><trkpt lat="49.682407" lon="5.810879"><ele>401.01</ele><time>2016-10-09T06:41:14Z</time></trkpt><trkpt lat="49.682377" lon="5.810929"><ele>400.53</ele><time>2016-10-09T06:41:15Z</time></trkpt><trkpt lat="49.682343" lon="5.810965"><ele>400.53</ele><time>2016-10-09T06:41:16Z</time></trkpt><trkpt lat="49.682316" lon="5.811004"><ele>400.05</ele><time>2016-10-09T06:41:17Z</time></trkpt><trkpt lat="49.682297" lon="5.811059"><ele>400.05</ele><time>2016-10-09T06:41:18Z</time></trkpt><trkpt lat="49.682288" lon="5.811130"><ele>400.05</ele><time>2016-10-09T06:41:19Z</time></trkpt><trkpt lat="49.682287" lon="5.811208"><ele>399.57</ele><time>2016-10-09T06:41:20Z</time></trkpt><trkpt lat="49.682286" lon="5.811291"><ele>399.57</ele><time>2016-10-09T06:41:21Z</time></trkpt><trkpt lat="49.682283" lon="5.811375"><ele>400.05</ele><time>2016-10-09T06:41:22Z</time></trkpt><trkpt lat="49.682284" lon="5.812208"><ele>401.01</ele><time>2016-10-09T06:41:32Z</time></trkpt><trkpt lat="49.682297" lon="5.812287"><ele>401.97</ele><time>2016-10-09T06:41:33Z</time></trkpt><trkpt lat="49.682309" lon="5.812363"><ele>401.49</ele><time>2016-10-09T06:41:34Z</time></trkpt><trkpt lat="49.682322" lon="5.812509"><ele>402.93</ele><time>2016-10-09T06:41:36Z</time></trkpt><trkpt lat="49.682323" lon="5.812578"><ele>402.93</ele><time>2016-10-09T06:41:37Z</time></trkpt><trkpt lat="49.682339" lon="5.812971"><ele>404.85</ele><time>2016-10-09T06:41:43Z</time></trkpt><trkpt lat="49.682384" lon="5.813682"><ele>407.26</ele><time>2016-10-09T06:41:56Z</time></trkpt><trkpt lat="49.682396" lon="5.813748"><ele>406.77</ele><time>2016-10-09T06:41:58Z</time></trkpt><trkpt lat="49.682411" lon="5.813756"><ele>407.26</ele><time>2016-10-09T06:41:59Z</time></trkpt><trkpt lat="49.682426" lon="5.813760"><ele>406.77</ele><time>2016-10-09T06:42:00Z</time></trkpt><trkpt lat="49.682441" lon="5.813763"><ele>406.77</ele><time>2016-10-09T06:42:01Z</time></trkpt><trkpt lat="49.682457" lon="5.813765"><ele>407.74</ele><time>2016-10-09T06:42:02Z</time></trkpt><trkpt lat="49.682472" lon="5.813780"><ele>407.74</ele><time>2016-10-09T06:42:03Z</time></trkpt><trkpt lat="49.682475" lon="5.813805"><ele>407.74</ele><time>2016-10-09T06:42:04Z</time></trkpt><trkpt lat="49.682473" lon="5.813829"><ele>407.74</ele><time>2016-10-09T06:42:05Z</time></trkpt><trkpt lat="49.682479" lon="5.813847"><ele>407.74</ele><time>2016-10-09T06:42:06Z</time></trkpt><trkpt lat="49.682494" lon="5.813852"><ele>407.74</ele><time>2016-10-09T06:42:07Z</time></trkpt><trkpt lat="49.682583" lon="5.814137"><ele>408.22</ele><time>2016-10-09T06:42:17Z</time></trkpt><trkpt lat="49.682608" lon="5.814490"><ele>408.70</ele><time>2016-10-09T06:42:24Z</time></trkpt><trkpt lat="49.682817" lon="5.814807"><ele>409.18</ele><time>2016-10-09T06:42:32Z</time></trkpt><trkpt lat="49.682999" lon="5.814844"><ele>410.14</ele><time>2016-10-09T06:42:41Z</time></trkpt><trkpt lat="49.683015" lon="5.814950"><ele>410.62</ele><time>2016-10-09T06:42:43Z</time></trkpt><trkpt lat="49.683153" lon="5.815553"><ele>411.58</ele><time>2016-10-09T06:42:54Z</time></trkpt><trkpt lat="49.683332" lon="5.816153"><ele>412.54</ele><time>2016-10-09T06:43:06Z</time></trkpt><trkpt lat="49.683286" lon="5.816447"><ele>411.58</ele><time>2016-10-09T06:43:12Z</time></trkpt><trkpt lat="49.683242" lon="5.816489"><ele>410.62</ele><time>2016-10-09T06:43:13Z</time></trkpt><trkpt lat="49.683122" lon="5.816560"><ele>410.14</ele><time>2016-10-09T06:43:15Z</time></trkpt><trkpt lat="49.682988" lon="5.816649"><ele>408.70</ele><time>2016-10-09T06:43:17Z</time></trkpt><trkpt lat="49.682924" lon="5.816696"><ele>408.22</ele><time>2016-10-09T06:43:18Z</time></trkpt><trkpt lat="49.682865" lon="5.816765"><ele>407.74</ele><time>2016-10-09T06:43:19Z</time></trkpt><trkpt lat="49.682599" lon="5.817164"><ele>403.89</ele><time>2016-10-09T06:43:24Z</time></trkpt><trkpt lat="49.682554" lon="5.817216"><ele>403.41</ele><time>2016-10-09T06:43:25Z</time></trkpt><trkpt lat="49.682518" lon="5.817255"><ele>403.41</ele><time>2016-10-09T06:43:26Z</time></trkpt><trkpt lat="49.682495" lon="5.817284"><ele>402.45</ele><time>2016-10-09T06:43:27Z</time></trkpt><trkpt lat="49.682474" lon="5.817302"><ele>402.45</ele><time>2016-10-09T06:43:28Z</time></trkpt><trkpt lat="49.682458" lon="5.817321"><ele>402.45</ele><time>2016-10-09T06:43:29Z</time></trkpt><trkpt lat="49.682442" lon="5.817337"><ele>402.45</ele><time>2016-10-09T06:43:30Z</time></trkpt><trkpt lat="49.682422" lon="5.817338"><ele>401.49</ele><time>2016-10-09T06:43:32Z</time></trkpt><trkpt lat="49.682405" lon="5.817323"><ele>401.97</ele><time>2016-10-09T06:43:33Z</time></trkpt><trkpt lat="49.682375" lon="5.817286"><ele>401.49</ele><time>2016-10-09T06:43:34Z</time></trkpt><trkpt lat="49.682344" lon="5.817233"><ele>401.01</ele><time>2016-10-09T06:43:35Z</time></trkpt><trkpt lat="49.682310" lon="5.817175"><ele>400.53</ele><time>2016-10-09T06:43:36Z</time></trkpt><trkpt lat="49.682272" lon="5.817125"><ele>400.53</ele><time>2016-10-09T06:43:37Z</time></trkpt><trkpt lat="49.682242" lon="5.817097"><ele>400.05</ele><time>2016-10-09T06:43:38Z</time></trkpt><trkpt lat="49.682208" lon="5.817088"><ele>400.05</ele><time>2016-10-09T06:43:39Z</time></trkpt><trkpt lat="49.682106" lon="5.817067"><ele>398.60</ele><time>2016-10-09T06:43:42Z</time></trkpt><trkpt lat="49.682024" lon="5.817026"><ele>397.16</ele><time>2016-10-09T06:43:44Z</time></trkpt><trkpt lat="49.681957" lon="5.817008"><ele>396.68</ele><time>2016-10-09T06:43:45Z</time></trkpt><trkpt lat="49.681899" lon="5.816986"><ele>396.20</ele><time>2016-10-09T06:43:46Z</time></trkpt><trkpt lat="49.681840" lon="5.816956"><ele>395.72</ele><time>2016-10-09T06:43:48Z</time></trkpt><trkpt lat="49.681796" lon="5.816964"><ele>395.24</ele><time>2016-10-09T06:43:50Z</time></trkpt><trkpt lat="49.681762" lon="5.817001"><ele>395.24</ele><time>2016-10-09T06:43:51Z</time></trkpt><trkpt lat="49.681731" lon="5.817046"><ele>394.76</ele><time>2016-10-09T06:43:52Z</time></trkpt><trkpt lat="49.681718" lon="5.817104"><ele>394.76</ele><time>2016-10-09T06:43:53Z</time></trkpt><trkpt lat="49.681716" lon="5.817163"><ele>395.24</ele><time>2016-10-09T06:43:54Z</time></trkpt><trkpt lat="49.681732" lon="5.817279"><ele>395.24</ele><time>2016-10-09T06:43:56Z</time></trkpt><trkpt lat="49.681756" lon="5.817330"><ele>395.24</ele><time>2016-10-09T06:43:57Z</time></trkpt><trkpt lat="49.681932" lon="5.817697"><ele>396.20</ele><time>2016-10-09T06:44:09Z</time></trkpt><trkpt lat="49.681988" lon="5.817812"><ele>396.20</ele><time>2016-10-09T06:45:12Z</time></trkpt><trkpt lat="49.682245" lon="5.818308"><ele>397.16</ele><time>2016-10-09T06:45:24Z</time></trkpt><trkpt lat="49.682661" lon="5.819112"><ele>399.57</ele><time>2016-10-09T06:45:42Z</time></trkpt><trkpt lat="49.682956" lon="5.819034"><ele>402.45</ele><time>2016-10-09T06:45:52Z</time></trkpt><trkpt lat="49.683223" lon="5.818802"><ele>406.29</ele><time>2016-10-09T06:46:04Z</time></trkpt><trkpt lat="49.683290" lon="5.818760"><ele>406.77</ele><time>2016-10-09T06:46:08Z</time></trkpt><trkpt lat="49.683306" lon="5.818763"><ele>406.77</ele><time>2016-10-09T06:46:09Z</time></trkpt><trkpt lat="49.683584" lon="5.818783"><ele>407.74</ele><time>2016-10-09T06:46:20Z</time></trkpt><trkpt lat="49.684018" lon="5.818944"><ele>410.14</ele><time>2016-10-09T06:46:34Z</time></trkpt><trkpt lat="49.684347" lon="5.819077"><ele>411.58</ele><time>2016-10-09T06:46:48Z</time></trkpt><trkpt lat="49.684803" lon="5.819749"><ele>411.10</ele><time>2016-10-09T06:47:02Z</time></trkpt><trkpt lat="49.684864" lon="5.819808"><ele>411.58</ele><time>2016-10-09T06:47:04Z</time></trkpt><trkpt lat="49.684897" lon="5.819807"><ele>411.10</ele><time>2016-10-09T06:47:05Z</time></trkpt><trkpt lat="49.684933" lon="5.819786"><ele>411.58</ele><time>2016-10-09T06:47:06Z</time></trkpt><trkpt lat="49.684973" lon="5.819743"><ele>411.58</ele><time>2016-10-09T06:47:07Z</time></trkpt><trkpt lat="49.685014" lon="5.819692"><ele>412.06</ele><time>2016-10-09T06:47:08Z</time></trkpt><trkpt lat="49.685172" lon="5.819461"><ele>412.06</ele><time>2016-10-09T06:47:12Z</time></trkpt><trkpt lat="49.685399" lon="5.819139"><ele>412.54</ele><time>2016-10-09T06:47:18Z</time></trkpt><trkpt lat="49.685437" lon="5.819150"><ele>412.54</ele><time>2016-10-09T06:47:19Z</time></trkpt><trkpt lat="49.685476" lon="5.819194"><ele>412.54</ele><time>2016-10-09T06:47:20Z</time></trkpt><trkpt lat="49.685517" lon="5.819254"><ele>412.54</ele><time>2016-10-09T06:47:21Z</time></trkpt><trkpt lat="49.685557" lon="5.819318"><ele>412.54</ele><time>2016-10-09T06:47:22Z</time></trkpt><trkpt lat="49.686157" lon="5.820183"><ele>413.98</ele><time>2016-10-09T06:47:38Z</time></trkpt><trkpt lat="49.686585" lon="5.820758"><ele>414.95</ele><time>2016-10-09T06:47:49Z</time></trkpt><trkpt lat="49.687200" lon="5.821715"><ele>416.87</ele><time>2016-10-09T06:48:07Z</time></trkpt><trkpt lat="49.687269" lon="5.821818"><ele>417.35</ele><time>2016-10-09T06:48:09Z</time></trkpt><trkpt lat="49.687377" lon="5.821954"><ele>417.35</ele><time>2016-10-09T06:48:12Z</time></trkpt><trkpt lat="49.687409" lon="5.821998"><ele>417.35</ele><time>2016-10-09T06:48:13Z</time></trkpt><trkpt lat="49.687436" lon="5.822042"><ele>417.35</ele><time>2016-10-09T06:48:14Z</time></trkpt><trkpt lat="49.687522" lon="5.822131"><ele>417.35</ele><time>2016-10-09T06:48:17Z</time></trkpt><trkpt lat="49.687556" lon="5.822119"><ele>417.35</ele><time>2016-10-09T06:48:18Z</time></trkpt><trkpt lat="49.687588" lon="5.822085"><ele>417.83</ele><time>2016-10-09T06:48:19Z</time></trkpt><trkpt lat="49.687676" lon="5.821965"><ele>418.31</ele><time>2016-10-09T06:48:22Z</time></trkpt><trkpt lat="49.687706" lon="5.821918"><ele>418.31</ele><time>2016-10-09T06:48:23Z</time></trkpt><trkpt lat="49.688066" lon="5.821473"><ele>418.79</ele><time>2016-10-09T06:48:34Z</time></trkpt><trkpt lat="49.688184" lon="5.821391"><ele>417.83</ele><time>2016-10-09T06:48:37Z</time></trkpt><trkpt lat="49.688407" lon="5.821048"><ele>415.43</ele><time>2016-10-09T06:48:43Z</time></trkpt><trkpt lat="49.688466" lon="5.820649"><ele>413.98</ele><time>2016-10-09T06:48:47Z</time></trkpt><trkpt lat="49.688553" lon="5.820340"><ele>412.06</ele><time>2016-10-09T06:48:50Z</time></trkpt><trkpt lat="49.688579" lon="5.820223"><ele>411.58</ele><time>2016-10-09T06:48:51Z</time></trkpt><trkpt lat="49.688629" lon="5.820121"><ele>411.10</ele><time>2016-10-09T06:48:52Z</time></trkpt><trkpt lat="49.688691" lon="5.820034"><ele>410.62</ele><time>2016-10-09T06:48:53Z</time></trkpt><trkpt lat="49.688757" lon="5.819952"><ele>410.62</ele><time>2016-10-09T06:48:54Z</time></trkpt><trkpt lat="49.688826" lon="5.819881"><ele>410.14</ele><time>2016-10-09T06:48:55Z</time></trkpt><trkpt lat="49.688897" lon="5.819834"><ele>410.62</ele><time>2016-10-09T06:48:56Z</time></trkpt><trkpt lat="49.688976" lon="5.819813"><ele>410.14</ele><time>2016-10-09T06:48:57Z</time></trkpt><trkpt lat="49.689052" lon="5.819816"><ele>410.14</ele><time>2016-10-09T06:48:58Z</time></trkpt><trkpt lat="49.689125" lon="5.819842"><ele>409.66</ele><time>2016-10-09T06:48:59Z</time></trkpt><trkpt lat="49.689193" lon="5.819890"><ele>409.66</ele><time>2016-10-09T06:49:00Z</time></trkpt><trkpt lat="49.689255" lon="5.819957"><ele>409.18</ele><time>2016-10-09T06:49:01Z</time></trkpt><trkpt lat="49.689311" lon="5.820033"><ele>409.18</ele><time>2016-10-09T06:49:02Z</time></trkpt><trkpt lat="49.689783" lon="5.820752"><ele>410.14</ele><time>2016-10-09T06:49:12Z</time></trkpt><trkpt lat="49.689926" lon="5.821083"><ele>410.62</ele><time>2016-10-09T06:49:16Z</time></trkpt><trkpt lat="49.690205" lon="5.821662"><ele>410.62</ele><time>2016-10-09T06:49:24Z</time></trkpt><trkpt lat="49.690266" lon="5.821794"><ele>411.10</ele><time>2016-10-09T06:49:26Z</time></trkpt><trkpt lat="49.690292" lon="5.821850"><ele>411.10</ele><time>2016-10-09T06:49:27Z</time></trkpt><trkpt lat="49.690298" lon="5.821898"><ele>411.10</ele><time>2016-10-09T06:49:28Z</time></trkpt><trkpt lat="49.690260" lon="5.821917"><ele>411.58</ele><time>2016-10-09T06:49:30Z</time></trkpt><trkpt lat="49.690186" lon="5.821869"><ele>412.06</ele><time>2016-10-09T06:49:34Z</time></trkpt><trkpt lat="49.690187" lon="5.821978"><ele>412.54</ele><time>2016-10-09T06:49:41Z</time></trkpt><trkpt lat="49.690173" lon="5.821980"><ele>413.02</ele><time>2016-10-09T06:49:42Z</time></trkpt><trkpt lat="49.690177" lon="5.821993"><ele>413.50</ele><time>2016-10-09T06:49:45Z</time></trkpt><trkpt lat="49.690022" lon="5.821997"><ele>413.98</ele><time>2016-10-09T06:49:52Z</time></trkpt><trkpt lat="49.689547" lon="5.820999"><ele>414.47</ele><time>2016-10-09T06:50:10Z</time></trkpt><trkpt lat="49.689521" lon="5.820979"><ele>414.47</ele><time>2016-10-09T06:50:11Z</time></trkpt><trkpt lat="49.689494" lon="5.820969"><ele>413.98</ele><time>2016-10-09T06:50:12Z</time></trkpt><trkpt lat="49.689465" lon="5.820970"><ele>413.98</ele><time>2016-10-09T06:50:13Z</time></trkpt><trkpt lat="49.689432" lon="5.820985"><ele>414.47</ele><time>2016-10-09T06:50:14Z</time></trkpt><trkpt lat="49.689401" lon="5.821010"><ele>414.47</ele><time>2016-10-09T06:50:15Z</time></trkpt><trkpt lat="49.688931" lon="5.821531"><ele>415.91</ele><time>2016-10-09T06:50:31Z</time></trkpt><trkpt lat="49.688886" lon="5.821595"><ele>415.91</ele><time>2016-10-09T06:50:33Z</time></trkpt><trkpt lat="49.689052" lon="5.822052"><ele>416.39</ele><time>2016-10-09T06:50:43Z</time></trkpt><trkpt lat="49.689468" lon="5.822911"><ele>416.87</ele><time>2016-10-09T06:50:59Z</time></trkpt><trkpt lat="49.689487" lon="5.822964"><ele>417.35</ele><time>2016-10-09T06:51:00Z</time></trkpt><trkpt lat="49.689509" lon="5.823012"><ele>416.87</ele><time>2016-10-09T06:51:01Z</time></trkpt><trkpt lat="49.689532" lon="5.823058"><ele>417.35</ele><time>2016-10-09T06:51:02Z</time></trkpt><trkpt lat="49.689555" lon="5.823105"><ele>417.35</ele><time>2016-10-09T06:51:03Z</time></trkpt><trkpt lat="49.689574" lon="5.823150"><ele>417.83</ele><time>2016-10-09T06:51:04Z</time></trkpt><trkpt lat="49.689582" lon="5.823199"><ele>417.83</ele><time>2016-10-09T06:51:05Z</time></trkpt><trkpt lat="49.689577" lon="5.823251"><ele>418.31</ele><time>2016-10-09T06:51:06Z</time></trkpt><trkpt lat="49.689564" lon="5.823299"><ele>417.83</ele><time>2016-10-09T06:51:07Z</time></trkpt><trkpt lat="49.689542" lon="5.823338"><ele>418.79</ele><time>2016-10-09T06:51:08Z</time></trkpt><trkpt lat="49.689516" lon="5.823375"><ele>418.79</ele><time>2016-10-09T06:51:09Z</time></trkpt><trkpt lat="49.689304" lon="5.823619"><ele>419.27</ele><time>2016-10-09T06:51:16Z</time></trkpt><trkpt lat="49.688705" lon="5.824160"><ele>417.83</ele><time>2016-10-09T06:51:30Z</time></trkpt><trkpt lat="49.688648" lon="5.824165"><ele>417.83</ele><time>2016-10-09T06:51:31Z</time></trkpt><trkpt lat="49.688594" lon="5.824139"><ele>417.83</ele><time>2016-10-09T06:51:32Z</time></trkpt><trkpt lat="49.688544" lon="5.824091"><ele>417.83</ele><time>2016-10-09T06:51:33Z</time></trkpt><trkpt lat="49.688499" lon="5.824035"><ele>417.83</ele><time>2016-10-09T06:51:34Z</time></trkpt><trkpt lat="49.688456" lon="5.823974"><ele>418.31</ele><time>2016-10-09T06:51:35Z</time></trkpt><trkpt lat="49.688376" lon="5.823846"><ele>418.31</ele><time>2016-10-09T06:51:37Z</time></trkpt><trkpt lat="49.688166" lon="5.823459"><ele>418.79</ele><time>2016-10-09T06:51:43Z</time></trkpt><trkpt lat="49.688128" lon="5.823422"><ele>418.79</ele><time>2016-10-09T06:51:44Z</time></trkpt><trkpt lat="49.688090" lon="5.823404"><ele>418.79</ele><time>2016-10-09T06:51:45Z</time></trkpt><trkpt lat="49.687866" lon="5.823380"><ele>420.23</ele><time>2016-10-09T06:51:52Z</time></trkpt><trkpt lat="49.687820" lon="5.823285"><ele>420.23</ele><time>2016-10-09T06:51:54Z</time></trkpt><trkpt lat="49.687789" lon="5.823234"><ele>420.23</ele><time>2016-10-09T06:51:55Z</time></trkpt><trkpt lat="49.687755" lon="5.823178"><ele>420.23</ele><time>2016-10-09T06:51:56Z</time></trkpt><trkpt lat="49.687714" lon="5.823129"><ele>420.23</ele><time>2016-10-09T06:51:57Z</time></trkpt><trkpt lat="49.687668" lon="5.823092"><ele>420.23</ele><time>2016-10-09T06:51:58Z</time></trkpt><trkpt lat="49.687616" lon="5.823073"><ele>420.23</ele><time>2016-10-09T06:51:59Z</time></trkpt><trkpt lat="49.687561" lon="5.823066"><ele>419.75</ele><time>2016-10-09T06:52:00Z</time></trkpt><trkpt lat="49.687507" lon="5.823074"><ele>420.23</ele><time>2016-10-09T06:52:01Z</time></trkpt><trkpt lat="49.687454" lon="5.823096"><ele>420.23</ele><time>2016-10-09T06:52:02Z</time></trkpt><trkpt lat="49.687400" lon="5.823124"><ele>419.75</ele><time>2016-10-09T06:52:03Z</time></trkpt><trkpt lat="49.686646" lon="5.823524"><ele>419.27</ele><time>2016-10-09T06:52:16Z</time></trkpt><trkpt lat="49.686477" lon="5.824102"><ele>418.79</ele><time>2016-10-09T06:52:24Z</time></trkpt><trkpt lat="49.686455" lon="5.824210"><ele>419.27</ele><time>2016-10-09T06:52:26Z</time></trkpt><trkpt lat="49.686389" lon="5.824358"><ele>417.35</ele><time>2016-10-09T06:52:29Z</time></trkpt><trkpt lat="49.686356" lon="5.824508"><ele>416.87</ele><time>2016-10-09T06:52:31Z</time></trkpt><trkpt lat="49.686297" lon="5.824903"><ele>416.39</ele><time>2016-10-09T06:52:36Z</time></trkpt><trkpt lat="49.686272" lon="5.824973"><ele>415.91</ele><time>2016-10-09T06:52:37Z</time></trkpt><trkpt lat="49.686234" lon="5.825031"><ele>415.91</ele><time>2016-10-09T06:52:38Z</time></trkpt><trkpt lat="49.686186" lon="5.825077"><ele>415.91</ele><time>2016-10-09T06:52:39Z</time></trkpt><trkpt lat="49.686132" lon="5.825116"><ele>415.43</ele><time>2016-10-09T06:52:40Z</time></trkpt><trkpt lat="49.686076" lon="5.825155"><ele>415.43</ele><time>2016-10-09T06:52:41Z</time></trkpt><trkpt lat="49.685764" lon="5.825371"><ele>413.98</ele><time>2016-10-09T06:52:46Z</time></trkpt><trkpt lat="49.685515" lon="5.825550"><ele>411.58</ele><time>2016-10-09T06:52:51Z</time></trkpt><trkpt lat="49.685494" lon="5.825532"><ele>411.10</ele><time>2016-10-09T06:52:52Z</time></trkpt><trkpt lat="49.685471" lon="5.825489"><ele>410.62</ele><time>2016-10-09T06:52:53Z</time></trkpt><trkpt lat="49.685449" lon="5.825430"><ele>410.62</ele><time>2016-10-09T06:52:54Z</time></trkpt><trkpt lat="49.685119" lon="5.824533"><ele>410.14</ele><time>2016-10-09T06:53:08Z</time></trkpt><trkpt lat="49.685094" lon="5.824478"><ele>410.14</ele><time>2016-10-09T06:53:20Z</time></trkpt><trkpt lat="49.685090" lon="5.824432"><ele>409.66</ele><time>2016-10-09T06:53:30Z</time></trkpt><trkpt lat="49.685080" lon="5.824404"><ele>409.66</ele><time>2016-10-09T06:53:31Z</time></trkpt><trkpt lat="49.685070" lon="5.824369"><ele>410.14</ele><time>2016-10-09T06:53:32Z</time></trkpt><trkpt lat="49.685058" lon="5.824326"><ele>409.66</ele><time>2016-10-09T06:53:33Z</time></trkpt><trkpt lat="49.685046" lon="5.824281"><ele>409.66</ele><time>2016-10-09T06:53:34Z</time></trkpt><trkpt lat="49.684992" lon="5.824107"><ele>409.18</ele><time>2016-10-09T06:53:37Z</time></trkpt><trkpt lat="49.684956" lon="5.824059"><ele>409.66</ele><time>2016-10-09T06:53:38Z</time></trkpt><trkpt lat="49.684906" lon="5.824033"><ele>409.18</ele><time>2016-10-09T06:53:39Z</time></trkpt><trkpt lat="49.684850" lon="5.824034"><ele>409.18</ele><time>2016-10-09T06:53:40Z</time></trkpt><trkpt lat="49.684791" lon="5.824044"><ele>408.22</ele><time>2016-10-09T06:53:41Z</time></trkpt><trkpt lat="49.683981" lon="5.824119"><ele>405.33</ele><time>2016-10-09T06:53:51Z</time></trkpt><trkpt lat="49.683809" lon="5.824108"><ele>404.85</ele><time>2016-10-09T06:53:53Z</time></trkpt><trkpt lat="49.683738" lon="5.824043"><ele>403.89</ele><time>2016-10-09T06:53:54Z</time></trkpt><trkpt lat="49.683684" lon="5.823949"><ele>403.89</ele><time>2016-10-09T06:53:55Z</time></trkpt><trkpt lat="49.683458" lon="5.823439"><ele>401.97</ele><time>2016-10-09T06:54:00Z</time></trkpt><trkpt lat="49.682934" lon="5.822358"><ele>398.60</ele><time>2016-10-09T06:54:11Z</time></trkpt><trkpt lat="49.682809" lon="5.822124"><ele>397.64</ele><time>2016-10-09T06:54:13Z</time></trkpt><trkpt lat="49.682166" lon="5.821124"><ele>394.28</ele><time>2016-10-09T06:54:22Z</time></trkpt><trkpt lat="49.681960" lon="5.820794"><ele>393.32</ele><time>2016-10-09T06:54:25Z</time></trkpt><trkpt lat="49.681739" lon="5.820467"><ele>392.36</ele><time>2016-10-09T06:54:29Z</time></trkpt><trkpt lat="49.681700" lon="5.820444"><ele>391.87</ele><time>2016-10-09T06:54:30Z</time></trkpt><trkpt lat="49.681668" lon="5.820450"><ele>391.39</ele><time>2016-10-09T06:54:31Z</time></trkpt><trkpt lat="49.681643" lon="5.820474"><ele>391.87</ele><time>2016-10-09T06:54:32Z</time></trkpt><trkpt lat="49.681628" lon="5.820507"><ele>391.87</ele><time>2016-10-09T06:54:33Z</time></trkpt><trkpt lat="49.681432" lon="5.820818"><ele>392.36</ele><time>2016-10-09T06:54:44Z</time></trkpt><trkpt lat="49.681204" lon="5.821206"><ele>395.24</ele><time>2016-10-09T06:54:58Z</time></trkpt><trkpt lat="49.681018" lon="5.821528"><ele>398.60</ele><time>2016-10-09T06:55:11Z</time></trkpt><trkpt lat="49.681003" lon="5.821547"><ele>399.08</ele><time>2016-10-09T06:55:12Z</time></trkpt><trkpt lat="49.680946" lon="5.821590"><ele>400.05</ele><time>2016-10-09T06:55:16Z</time></trkpt><trkpt lat="49.680978" lon="5.821709"><ele>401.01</ele><time>2016-10-09T06:55:20Z</time></trkpt><trkpt lat="49.681203" lon="5.822214"><ele>401.01</ele><time>2016-10-09T06:55:34Z</time></trkpt><trkpt lat="49.681304" lon="5.822640"><ele>401.97</ele><time>2016-10-09T06:55:45Z</time></trkpt><trkpt lat="49.681388" lon="5.823118"><ele>402.93</ele><time>2016-10-09T06:55:56Z</time></trkpt><trkpt lat="49.681299" lon="5.823712"><ele>403.89</ele><time>2016-10-09T06:56:07Z</time></trkpt><trkpt lat="49.681083" lon="5.823884"><ele>403.89</ele><time>2016-10-09T06:56:14Z</time></trkpt><trkpt lat="49.681044" lon="5.823891"><ele>403.89</ele><time>2016-10-09T06:56:15Z</time></trkpt><trkpt lat="49.681007" lon="5.823892"><ele>404.37</ele><time>2016-10-09T06:56:16Z</time></trkpt><trkpt lat="49.680971" lon="5.823890"><ele>403.89</ele><time>2016-10-09T06:56:17Z</time></trkpt><trkpt lat="49.680929" lon="5.823884"><ele>403.89</ele><time>2016-10-09T06:56:18Z</time></trkpt><trkpt lat="49.680586" lon="5.823778"><ele>404.85</ele><time>2016-10-09T06:56:26Z</time></trkpt><trkpt lat="49.680540" lon="5.823483"><ele>405.33</ele><time>2016-10-09T06:56:32Z</time></trkpt><trkpt lat="49.680414" lon="5.822914"><ele>405.81</ele><time>2016-10-09T06:56:42Z</time></trkpt><trkpt lat="49.680412" lon="5.822785"><ele>406.29</ele><time>2016-10-09T06:56:44Z</time></trkpt><trkpt lat="49.680424" lon="5.822656"><ele>406.29</ele><time>2016-10-09T06:56:46Z</time></trkpt><trkpt lat="49.680461" lon="5.822381"><ele>405.33</ele><time>2016-10-09T06:56:50Z</time></trkpt><trkpt lat="49.680291" lon="5.821760"><ele>404.85</ele><time>2016-10-09T06:56:59Z</time></trkpt><trkpt lat="49.680286" lon="5.821541"><ele>405.33</ele><time>2016-10-09T06:57:02Z</time></trkpt><trkpt lat="49.679954" lon="5.821063"><ele>404.37</ele><time>2016-10-09T06:57:10Z</time></trkpt><trkpt lat="49.679908" lon="5.821047"><ele>405.33</ele><time>2016-10-09T06:57:11Z</time></trkpt><trkpt lat="49.679862" lon="5.821053"><ele>404.85</ele><time>2016-10-09T06:57:12Z</time></trkpt><trkpt lat="49.679816" lon="5.821080"><ele>405.33</ele><time>2016-10-09T06:57:13Z</time></trkpt><trkpt lat="49.679772" lon="5.821117"><ele>404.85</ele><time>2016-10-09T06:57:14Z</time></trkpt><trkpt lat="49.679737" lon="5.821164"><ele>405.33</ele><time>2016-10-09T06:57:15Z</time></trkpt><trkpt lat="49.679707" lon="5.821218"><ele>405.33</ele><time>2016-10-09T06:57:16Z</time></trkpt><trkpt lat="49.679675" lon="5.821266"><ele>404.85</ele><time>2016-10-09T06:57:17Z</time></trkpt><trkpt lat="49.679633" lon="5.821294"><ele>404.85</ele><time>2016-10-09T06:57:18Z</time></trkpt><trkpt lat="49.679586" lon="5.821299"><ele>404.37</ele><time>2016-10-09T06:57:19Z</time></trkpt><trkpt lat="49.679536" lon="5.821291"><ele>404.37</ele><time>2016-10-09T06:57:20Z</time></trkpt><trkpt lat="49.679482" lon="5.821280"><ele>403.89</ele><time>2016-10-09T06:57:21Z</time></trkpt><trkpt lat="49.679426" lon="5.821278"><ele>403.41</ele><time>2016-10-09T06:57:22Z</time></trkpt><trkpt lat="49.679371" lon="5.821278"><ele>402.45</ele><time>2016-10-09T06:57:23Z</time></trkpt><trkpt lat="49.679276" lon="5.821265"><ele>402.45</ele><time>2016-10-09T06:57:25Z</time></trkpt><trkpt lat="49.679238" lon="5.821173"><ele>401.49</ele><time>2016-10-09T06:57:27Z</time></trkpt><trkpt lat="49.679259" lon="5.821113"><ele>401.01</ele><time>2016-10-09T06:57:28Z</time></trkpt><trkpt lat="49.679298" lon="5.821081"><ele>401.01</ele><time>2016-10-09T06:57:29Z</time></trkpt><trkpt lat="49.679344" lon="5.821056"><ele>401.01</ele><time>2016-10-09T06:57:30Z</time></trkpt><trkpt lat="49.679390" lon="5.821021"><ele>401.01</ele><time>2016-10-09T06:57:31Z</time></trkpt><trkpt lat="49.679916" lon="5.820560"><ele>397.64</ele><time>2016-10-09T06:57:39Z</time></trkpt><trkpt lat="49.680263" lon="5.820241"><ele>394.76</ele><time>2016-10-09T06:57:43Z</time></trkpt><trkpt lat="49.680350" lon="5.820149"><ele>394.28</ele><time>2016-10-09T06:57:44Z</time></trkpt><trkpt lat="49.680526" lon="5.819954"><ele>392.84</ele><time>2016-10-09T06:57:46Z</time></trkpt><trkpt lat="49.680848" lon="5.819543"><ele>390.91</ele><time>2016-10-09T06:57:50Z</time></trkpt><trkpt lat="49.681391" lon="5.818758"><ele>391.87</ele><time>2016-10-09T06:57:59Z</time></trkpt><trkpt lat="49.681431" lon="5.818697"><ele>392.36</ele><time>2016-10-09T06:58:00Z</time></trkpt><trkpt lat="49.681474" lon="5.818643"><ele>392.84</ele><time>2016-10-09T06:58:01Z</time></trkpt><trkpt lat="49.681513" lon="5.818591"><ele>392.84</ele><time>2016-10-09T06:58:02Z</time></trkpt><trkpt lat="49.681546" lon="5.818537"><ele>392.84</ele><time>2016-10-09T06:58:03Z</time></trkpt><trkpt lat="49.681576" lon="5.818489"><ele>393.80</ele><time>2016-10-09T06:58:04Z</time></trkpt><trkpt lat="49.681604" lon="5.818444"><ele>393.80</ele><time>2016-10-09T06:58:05Z</time></trkpt><trkpt lat="49.681630" lon="5.818400"><ele>393.80</ele><time>2016-10-09T06:58:06Z</time></trkpt><trkpt lat="49.681802" lon="5.818187"><ele>395.72</ele><time>2016-10-09T06:58:11Z</time></trkpt><trkpt lat="49.681841" lon="5.818133"><ele>395.72</ele><time>2016-10-09T06:58:12Z</time></trkpt><trkpt lat="49.681913" lon="5.818028"><ele>396.68</ele><time>2016-10-09T06:58:14Z</time></trkpt><trkpt lat="49.681917" lon="5.817964"><ele>396.68</ele><time>2016-10-09T06:58:15Z</time></trkpt><trkpt lat="49.681895" lon="5.817901"><ele>397.16</ele><time>2016-10-09T06:58:16Z</time></trkpt><trkpt lat="49.681861" lon="5.817850"><ele>397.16</ele><time>2016-10-09T06:58:17Z</time></trkpt><trkpt lat="49.681822" lon="5.817803"><ele>396.68</ele><time>2016-10-09T06:58:18Z</time></trkpt><trkpt lat="49.681288" lon="5.817020"><ele>393.80</ele><time>2016-10-09T06:58:30Z</time></trkpt><trkpt lat="49.681162" lon="5.816856"><ele>392.84</ele><time>2016-10-09T06:58:35Z</time></trkpt><trkpt lat="49.681147" lon="5.816868"><ele>392.84</ele><time>2016-10-09T06:58:36Z</time></trkpt><trkpt lat="49.681071" lon="5.816955"><ele>392.36</ele><time>2016-10-09T06:58:45Z</time></trkpt><trkpt lat="49.681065" lon="5.816973"><ele>392.36</ele><time>2016-10-09T06:58:53Z</time></trkpt><trkpt lat="49.681059" lon="5.816998"><ele>392.36</ele><time>2016-10-09T06:58:54Z</time></trkpt><trkpt lat="49.681047" lon="5.817019"><ele>392.36</ele><time>2016-10-09T06:58:55Z</time></trkpt><trkpt lat="49.681027" lon="5.817034"><ele>392.36</ele><time>2016-10-09T06:58:56Z</time></trkpt><trkpt lat="49.681005" lon="5.817041"><ele>391.87</ele><time>2016-10-09T06:58:57Z</time></trkpt><trkpt lat="49.680888" lon="5.817097"><ele>391.39</ele><time>2016-10-09T06:59:01Z</time></trkpt><trkpt lat="49.680859" lon="5.817131"><ele>391.39</ele><time>2016-10-09T06:59:02Z</time></trkpt><trkpt lat="49.680831" lon="5.817173"><ele>391.39</ele><time>2016-10-09T06:59:03Z</time></trkpt><trkpt lat="49.680806" lon="5.817221"><ele>391.39</ele><time>2016-10-09T06:59:04Z</time></trkpt><trkpt lat="49.680783" lon="5.817272"><ele>390.43</ele><time>2016-10-09T06:59:05Z</time></trkpt><trkpt lat="49.680759" lon="5.817329"><ele>390.43</ele><time>2016-10-09T06:59:06Z</time></trkpt><trkpt lat="49.680692" lon="5.817500"><ele>389.95</ele><time>2016-10-09T06:59:09Z</time></trkpt><trkpt lat="49.680490" lon="5.817426"><ele>388.03</ele><time>2016-10-09T06:59:17Z</time></trkpt><trkpt lat="49.680456" lon="5.817322"><ele>387.55</ele><time>2016-10-09T06:59:20Z</time></trkpt><trkpt lat="49.680619" lon="5.817083"><ele>388.99</ele><time>2016-10-09T06:59:27Z</time></trkpt><trkpt lat="49.680757" lon="5.817043"><ele>390.91</ele><time>2016-10-09T06:59:31Z</time></trkpt><trkpt lat="49.680951" lon="5.817039"><ele>391.87</ele><time>2016-10-09T06:59:38Z</time></trkpt><trkpt lat="49.681018" lon="5.816694"><ele>392.36</ele><time>2016-10-09T06:59:46Z</time></trkpt><trkpt lat="49.680998" lon="5.816540"><ele>391.87</ele><time>2016-10-09T06:59:48Z</time></trkpt><trkpt lat="49.680959" lon="5.816376"><ele>391.39</ele><time>2016-10-09T06:59:50Z</time></trkpt><trkpt lat="49.680646" lon="5.814978"><ele>388.99</ele><time>2016-10-09T07:00:05Z</time></trkpt><trkpt lat="49.680494" lon="5.814330"><ele>387.55</ele><time>2016-10-09T07:00:11Z</time></trkpt><trkpt lat="49.680446" lon="5.814220"><ele>386.59</ele><time>2016-10-09T07:00:12Z</time></trkpt><trkpt lat="49.680283" lon="5.813900"><ele>386.59</ele><time>2016-10-09T07:00:15Z</time></trkpt><trkpt lat="49.680236" lon="5.813783"><ele>386.11</ele><time>2016-10-09T07:00:16Z</time></trkpt><trkpt lat="49.680197" lon="5.813660"><ele>386.11</ele><time>2016-10-09T07:00:17Z</time></trkpt><trkpt lat="49.679868" lon="5.812482"><ele>383.70</ele><time>2016-10-09T07:00:26Z</time></trkpt><trkpt lat="49.679858" lon="5.812336"><ele>383.22</ele><time>2016-10-09T07:00:27Z</time></trkpt><trkpt lat="49.679824" lon="5.811925"><ele>381.30</ele><time>2016-10-09T07:00:31Z</time></trkpt><trkpt lat="49.679777" lon="5.811863"><ele>380.82</ele><time>2016-10-09T07:00:32Z</time></trkpt><trkpt lat="49.679737" lon="5.811815"><ele>380.82</ele><time>2016-10-09T07:00:33Z</time></trkpt><trkpt lat="49.679712" lon="5.811766"><ele>380.34</ele><time>2016-10-09T07:00:34Z</time></trkpt><trkpt lat="49.679696" lon="5.811714"><ele>380.34</ele><time>2016-10-09T07:00:35Z</time></trkpt><trkpt lat="49.679682" lon="5.811659"><ele>379.86</ele><time>2016-10-09T07:00:36Z</time></trkpt><trkpt lat="49.679616" lon="5.811645"><ele>379.38</ele><time>2016-10-09T07:00:38Z</time></trkpt><trkpt lat="49.679546" lon="5.811446"><ele>378.90</ele><time>2016-10-09T07:00:39Z</time></trkpt><trkpt lat="49.678908" lon="5.811479"><ele>377.45</ele><time>2016-10-09T07:00:45Z</time></trkpt><trkpt lat="49.678845" lon="5.811449"><ele>376.97</ele><time>2016-10-09T07:00:46Z</time></trkpt><trkpt lat="49.678633" lon="5.811413"><ele>376.97</ele><time>2016-10-09T07:00:52Z</time></trkpt><trkpt lat="49.678582" lon="5.811410"><ele>376.97</ele><time>2016-10-09T07:00:53Z</time></trkpt><trkpt lat="49.678530" lon="5.811420"><ele>376.97</ele><time>2016-10-09T07:00:54Z</time></trkpt><trkpt lat="49.678054" lon="5.811413"><ele>376.49</ele><time>2016-10-09T07:01:02Z</time></trkpt><trkpt lat="49.677999" lon="5.811385"><ele>376.49</ele><time>2016-10-09T07:01:03Z</time></trkpt><trkpt lat="49.677964" lon="5.811327"><ele>376.01</ele><time>2016-10-09T07:01:04Z</time></trkpt><trkpt lat="49.677951" lon="5.811253"><ele>376.49</ele><time>2016-10-09T07:01:05Z</time></trkpt><trkpt lat="49.677944" lon="5.811178"><ele>376.49</ele><time>2016-10-09T07:01:06Z</time></trkpt><trkpt lat="49.677910" lon="5.810922"><ele>375.53</ele><time>2016-10-09T07:01:09Z</time></trkpt><trkpt lat="49.677863" lon="5.810633"><ele>375.53</ele><time>2016-10-09T07:01:12Z</time></trkpt><trkpt lat="49.677791" lon="5.810383"><ele>374.57</ele><time>2016-10-09T07:01:16Z</time></trkpt><trkpt lat="49.677704" lon="5.809988"><ele>375.53</ele><time>2016-10-09T07:01:22Z</time></trkpt><trkpt lat="49.677707" lon="5.809423"><ele>375.05</ele><time>2016-10-09T07:01:28Z</time></trkpt><trkpt lat="49.677761" lon="5.809091"><ele>374.09</ele><time>2016-10-09T07:01:31Z</time></trkpt><trkpt lat="49.677867" lon="5.808202"><ele>373.13</ele><time>2016-10-09T07:01:38Z</time></trkpt><trkpt lat="49.677942" lon="5.806845"><ele>373.13</ele><time>2016-10-09T07:01:48Z</time></trkpt><trkpt lat="49.677915" lon="5.806292"><ele>372.17</ele><time>2016-10-09T07:01:52Z</time></trkpt><trkpt lat="49.678034" lon="5.804444"><ele>372.65</ele><time>2016-10-09T07:02:07Z</time></trkpt><trkpt lat="49.678053" lon="5.804241"><ele>372.65</ele><time>2016-10-09T07:02:09Z</time></trkpt><trkpt lat="49.678072" lon="5.804148"><ele>372.65</ele><time>2016-10-09T07:02:10Z</time></trkpt><trkpt lat="49.678098" lon="5.804068"><ele>373.13</ele><time>2016-10-09T07:02:11Z</time></trkpt><trkpt lat="49.678131" lon="5.804004"><ele>373.13</ele><time>2016-10-09T07:02:12Z</time></trkpt><trkpt lat="49.678165" lon="5.803955"><ele>373.13</ele><time>2016-10-09T07:02:13Z</time></trkpt><trkpt lat="49.678192" lon="5.803904"><ele>373.13</ele><time>2016-10-09T07:02:14Z</time></trkpt><trkpt lat="49.678201" lon="5.803840"><ele>373.13</ele><time>2016-10-09T07:02:15Z</time></trkpt><trkpt lat="49.678188" lon="5.803774"><ele>373.13</ele><time>2016-10-09T07:02:16Z</time></trkpt><trkpt lat="49.678167" lon="5.803712"><ele>373.13</ele><time>2016-10-09T07:02:17Z</time></trkpt><trkpt lat="49.678144" lon="5.803647"><ele>373.13</ele><time>2016-10-09T07:02:18Z</time></trkpt><trkpt lat="49.678117" lon="5.803581"><ele>373.13</ele><time>2016-10-09T07:02:19Z</time></trkpt><trkpt lat="49.678091" lon="5.803512"><ele>373.13</ele><time>2016-10-09T07:02:20Z</time></trkpt><trkpt lat="49.678077" lon="5.803440"><ele>372.65</ele><time>2016-10-09T07:02:21Z</time></trkpt><trkpt lat="49.678068" lon="5.803365"><ele>373.13</ele><time>2016-10-09T07:02:22Z</time></trkpt><trkpt lat="49.678062" lon="5.803288"><ele>373.13</ele><time>2016-10-09T07:02:23Z</time></trkpt><trkpt lat="49.678058" lon="5.803210"><ele>373.61</ele><time>2016-10-09T07:02:24Z</time></trkpt><trkpt lat="49.677996" lon="5.802310"><ele>374.57</ele><time>2016-10-09T07:02:34Z</time></trkpt><trkpt lat="49.677975" lon="5.802228"><ele>374.57</ele><time>2016-10-09T07:02:35Z</time></trkpt><trkpt lat="49.677939" lon="5.802166"><ele>374.09</ele><time>2016-10-09T07:02:36Z</time></trkpt><trkpt lat="49.677897" lon="5.802121"><ele>374.57</ele><time>2016-10-09T07:02:37Z</time></trkpt><trkpt lat="49.677856" lon="5.802078"><ele>374.57</ele><time>2016-10-09T07:02:38Z</time></trkpt><trkpt lat="49.677815" lon="5.802033"><ele>375.53</ele><time>2016-10-09T07:02:39Z</time></trkpt><trkpt lat="49.677731" lon="5.801945"><ele>376.01</ele><time>2016-10-09T07:02:41Z</time></trkpt><trkpt lat="49.677205" lon="5.801300"><ele>376.97</ele><time>2016-10-09T07:02:54Z</time></trkpt><trkpt lat="49.677176" lon="5.801227"><ele>377.45</ele><time>2016-10-09T07:02:55Z</time></trkpt><trkpt lat="49.677160" lon="5.801142"><ele>376.97</ele><time>2016-10-09T07:02:56Z</time></trkpt><trkpt lat="49.677155" lon="5.801046"><ele>377.45</ele><time>2016-10-09T07:02:57Z</time></trkpt><trkpt lat="49.677151" lon="5.800948"><ele>376.97</ele><time>2016-10-09T07:02:58Z</time></trkpt><trkpt lat="49.677122" lon="5.799976"><ele>376.01</ele><time>2016-10-09T07:03:08Z</time></trkpt><trkpt lat="49.677104" lon="5.799880"><ele>376.01</ele><time>2016-10-09T07:03:09Z</time></trkpt><trkpt lat="49.677075" lon="5.799792"><ele>376.01</ele><time>2016-10-09T07:03:10Z</time></trkpt><trkpt lat="49.676836" lon="5.799121"><ele>376.49</ele><time>2016-10-09T07:03:20Z</time></trkpt><trkpt lat="49.676826" lon="5.799068"><ele>376.49</ele><time>2016-10-09T07:03:21Z</time></trkpt><trkpt lat="49.676816" lon="5.799028"><ele>376.97</ele><time>2016-10-09T07:03:22Z</time></trkpt><trkpt lat="49.676807" lon="5.798994"><ele>376.97</ele><time>2016-10-09T07:03:23Z</time></trkpt><trkpt lat="49.676794" lon="5.798959"><ele>376.97</ele><time>2016-10-09T07:03:24Z</time></trkpt><trkpt lat="49.676780" lon="5.798927"><ele>376.97</ele><time>2016-10-09T07:03:25Z</time></trkpt><trkpt lat="49.676766" lon="5.798893"><ele>377.45</ele><time>2016-10-09T07:03:26Z</time></trkpt><trkpt lat="49.676727" lon="5.798785"><ele>377.94</ele><time>2016-10-09T07:03:29Z</time></trkpt><trkpt lat="49.676786" lon="5.798664"><ele>379.38</ele><time>2016-10-09T07:03:34Z</time></trkpt><trkpt lat="49.676749" lon="5.798425"><ele>380.34</ele><time>2016-10-09T07:03:40Z</time></trkpt><trkpt lat="49.676626" lon="5.797658"><ele>382.26</ele><time>2016-10-09T07:03:53Z</time></trkpt><trkpt lat="49.676646" lon="5.797603"><ele>381.78</ele><time>2016-10-09T07:03:54Z</time></trkpt><trkpt lat="49.676676" lon="5.797559"><ele>381.78</ele><time>2016-10-09T07:03:55Z</time></trkpt><trkpt lat="49.676716" lon="5.797522"><ele>381.78</ele><time>2016-10-09T07:03:56Z</time></trkpt><trkpt lat="49.676758" lon="5.797488"><ele>381.30</ele><time>2016-10-09T07:03:57Z</time></trkpt><trkpt lat="49.677385" lon="5.797175"><ele>378.90</ele><time>2016-10-09T07:04:09Z</time></trkpt><trkpt lat="49.677467" lon="5.797138"><ele>377.94</ele><time>2016-10-09T07:04:15Z</time></trkpt><trkpt lat="49.677467" lon="5.797138"><ele>378.42</ele><time>2016-10-09T07:04:19Z</time></trkpt><trkpt lat="49.677480" lon="5.797128"><ele>378.42</ele><time>2016-10-09T07:04:20Z</time></trkpt><trkpt lat="49.677495" lon="5.797111"><ele>378.42</ele><time>2016-10-09T07:04:21Z</time></trkpt><trkpt lat="49.677510" lon="5.797077"><ele>378.42</ele><time>2016-10-09T07:04:22Z</time></trkpt><trkpt lat="49.677513" lon="5.797032"><ele>378.42</ele><time>2016-10-09T07:04:23Z</time></trkpt><trkpt lat="49.677504" lon="5.796980"><ele>377.94</ele><time>2016-10-09T07:04:24Z</time></trkpt><trkpt lat="49.677486" lon="5.796930"><ele>378.42</ele><time>2016-10-09T07:04:25Z</time></trkpt><trkpt lat="49.677464" lon="5.796881"><ele>378.42</ele><time>2016-10-09T07:04:26Z</time></trkpt><trkpt lat="49.677162" lon="5.796073"><ele>376.97</ele><time>2016-10-09T07:04:36Z</time></trkpt><trkpt lat="49.676670" lon="5.794772"><ele>373.61</ele><time>2016-10-09T07:04:49Z</time></trkpt><trkpt lat="49.675967" lon="5.793185"><ele>374.09</ele><time>2016-10-09T07:05:05Z</time></trkpt><trkpt lat="49.675151" lon="5.792125"><ele>375.53</ele><time>2016-10-09T07:05:21Z</time></trkpt><trkpt lat="49.675132" lon="5.792067"><ele>375.53</ele><time>2016-10-09T07:05:22Z</time></trkpt><trkpt lat="49.675136" lon="5.792004"><ele>375.53</ele><time>2016-10-09T07:05:23Z</time></trkpt><trkpt lat="49.675158" lon="5.791944"><ele>376.01</ele><time>2016-10-09T07:05:24Z</time></trkpt><trkpt lat="49.675191" lon="5.791886"><ele>375.53</ele><time>2016-10-09T07:05:25Z</time></trkpt><trkpt lat="49.675227" lon="5.791825"><ele>376.01</ele><time>2016-10-09T07:05:26Z</time></trkpt><trkpt lat="49.675822" lon="5.790783"><ele>376.49</ele><time>2016-10-09T07:05:41Z</time></trkpt><trkpt lat="49.676253" lon="5.789748"><ele>376.49</ele><time>2016-10-09T07:05:54Z</time></trkpt><trkpt lat="49.676653" lon="5.788449"><ele>376.49</ele><time>2016-10-09T07:06:09Z</time></trkpt><trkpt lat="49.676677" lon="5.788369"><ele>376.49</ele><time>2016-10-09T07:06:10Z</time></trkpt><trkpt lat="49.676968" lon="5.787219"><ele>378.42</ele><time>2016-10-09T07:06:24Z</time></trkpt><trkpt lat="49.676995" lon="5.787052"><ele>378.42</ele><time>2016-10-09T07:06:26Z</time></trkpt><trkpt lat="49.677149" lon="5.786057"><ele>379.86</ele><time>2016-10-09T07:06:38Z</time></trkpt><trkpt lat="49.677508" lon="5.785304"><ele>383.22</ele><time>2016-10-09T07:06:49Z</time></trkpt><trkpt lat="49.677556" lon="5.785240"><ele>383.22</ele><time>2016-10-09T07:06:50Z</time></trkpt><trkpt lat="49.677680" lon="5.785057"><ele>383.70</ele><time>2016-10-09T07:06:53Z</time></trkpt><trkpt lat="49.677710" lon="5.784990"><ele>384.18</ele><time>2016-10-09T07:06:54Z</time></trkpt><trkpt lat="49.677763" lon="5.784856"><ele>384.66</ele><time>2016-10-09T07:06:56Z</time></trkpt><trkpt lat="49.677793" lon="5.784797"><ele>384.66</ele><time>2016-10-09T07:06:57Z</time></trkpt><trkpt lat="49.677820" lon="5.784741"><ele>385.15</ele><time>2016-10-09T07:06:58Z</time></trkpt><trkpt lat="49.677847" lon="5.784688"><ele>385.63</ele><time>2016-10-09T07:06:59Z</time></trkpt><trkpt lat="49.677873" lon="5.784633"><ele>385.63</ele><time>2016-10-09T07:07:00Z</time></trkpt><trkpt lat="49.677896" lon="5.784577"><ele>386.11</ele><time>2016-10-09T07:07:01Z</time></trkpt><trkpt lat="49.677916" lon="5.784522"><ele>385.63</ele><time>2016-10-09T07:07:02Z</time></trkpt><trkpt lat="49.677993" lon="5.784156"><ele>387.55</ele><time>2016-10-09T07:07:09Z</time></trkpt><trkpt lat="49.678048" lon="5.783587"><ele>389.95</ele><time>2016-10-09T07:07:23Z</time></trkpt><trkpt lat="49.678190" lon="5.783078"><ele>390.43</ele><time>2016-10-09T07:07:34Z</time></trkpt><trkpt lat="49.678210" lon="5.783016"><ele>390.43</ele><time>2016-10-09T07:07:35Z</time></trkpt><trkpt lat="49.678258" lon="5.782901"><ele>390.43</ele><time>2016-10-09T07:07:37Z</time></trkpt><trkpt lat="49.678339" lon="5.782633"><ele>390.43</ele><time>2016-10-09T07:07:41Z</time></trkpt><trkpt lat="49.678396" lon="5.782297"><ele>389.95</ele><time>2016-10-09T07:07:46Z</time></trkpt><trkpt lat="49.678773" lon="5.781544"><ele>389.47</ele><time>2016-10-09T07:07:57Z</time></trkpt><trkpt lat="49.678856" lon="5.781444"><ele>390.43</ele><time>2016-10-09T07:08:04Z</time></trkpt><trkpt lat="49.678854" lon="5.781468"><ele>390.43</ele><time>2016-10-09T07:08:11Z</time></trkpt><trkpt lat="49.678923" lon="5.781597"><ele>390.91</ele><time>2016-10-09T07:08:16Z</time></trkpt><trkpt lat="49.679021" lon="5.781729"><ele>390.43</ele><time>2016-10-09T07:08:19Z</time></trkpt><trkpt lat="49.679093" lon="5.781841"><ele>389.95</ele><time>2016-10-09T07:08:21Z</time></trkpt><trkpt lat="49.679272" lon="5.782130"><ele>388.99</ele><time>2016-10-09T07:08:26Z</time></trkpt><trkpt lat="49.679387" lon="5.782345"><ele>387.55</ele><time>2016-10-09T07:08:29Z</time></trkpt><trkpt lat="49.679717" lon="5.782958"><ele>385.63</ele><time>2016-10-09T07:08:37Z</time></trkpt><trkpt lat="49.679823" lon="5.783129"><ele>385.15</ele><time>2016-10-09T07:08:39Z</time></trkpt><trkpt lat="49.680021" lon="5.783497"><ele>384.18</ele><time>2016-10-09T07:08:43Z</time></trkpt><trkpt lat="49.680320" lon="5.784060"><ele>382.26</ele><time>2016-10-09T07:08:50Z</time></trkpt><trkpt lat="49.680414" lon="5.784246"><ele>381.30</ele><time>2016-10-09T07:08:53Z</time></trkpt><trkpt lat="49.680518" lon="5.784468"><ele>380.82</ele><time>2016-10-09T07:08:56Z</time></trkpt><trkpt lat="49.680786" lon="5.784878"><ele>380.34</ele><time>2016-10-09T07:09:02Z</time></trkpt><trkpt lat="49.680836" lon="5.784943"><ele>380.34</ele><time>2016-10-09T07:09:03Z</time></trkpt><trkpt lat="49.681044" lon="5.785187"><ele>380.82</ele><time>2016-10-09T07:09:07Z</time></trkpt><trkpt lat="49.681095" lon="5.785251"><ele>380.82</ele><time>2016-10-09T07:09:08Z</time></trkpt><trkpt lat="49.681151" lon="5.785293"><ele>380.82</ele><time>2016-10-09T07:09:09Z</time></trkpt><trkpt lat="49.681201" lon="5.785305"><ele>380.34</ele><time>2016-10-09T07:09:10Z</time></trkpt><trkpt lat="49.681246" lon="5.785299"><ele>380.34</ele><time>2016-10-09T07:09:11Z</time></trkpt><trkpt lat="49.681532" lon="5.785118"><ele>382.26</ele><time>2016-10-09T07:09:17Z</time></trkpt><trkpt lat="49.681880" lon="5.784806"><ele>386.11</ele><time>2016-10-09T07:09:27Z</time></trkpt><trkpt lat="49.682120" lon="5.784459"><ele>387.55</ele><time>2016-10-09T07:09:39Z</time></trkpt><trkpt lat="49.682123" lon="5.784421"><ele>387.55</ele><time>2016-10-09T07:09:40Z</time></trkpt><trkpt lat="49.682027" lon="5.784135"><ele>387.07</ele><time>2016-10-09T07:09:46Z</time></trkpt><trkpt lat="49.681942" lon="5.783917"><ele>387.07</ele><time>2016-10-09T07:09:50Z</time></trkpt><trkpt lat="49.681855" lon="5.783681"><ele>387.07</ele><time>2016-10-09T07:09:54Z</time></trkpt><trkpt lat="49.681741" lon="5.783375"><ele>387.55</ele><time>2016-10-09T07:09:59Z</time></trkpt><trkpt lat="49.681691" lon="5.783180"><ele>387.07</ele><time>2016-10-09T07:10:02Z</time></trkpt><trkpt lat="49.681623" lon="5.782961"><ele>387.55</ele><time>2016-10-09T07:10:06Z</time></trkpt><trkpt lat="49.681590" lon="5.782800"><ele>388.03</ele><time>2016-10-09T07:10:09Z</time></trkpt><trkpt lat="49.681422" lon="5.782255"><ele>388.03</ele><time>2016-10-09T07:10:19Z</time></trkpt><trkpt lat="49.681387" lon="5.782142"><ele>388.03</ele><time>2016-10-09T07:10:21Z</time></trkpt><trkpt lat="49.681187" lon="5.781520"><ele>388.03</ele><time>2016-10-09T07:10:31Z</time></trkpt><trkpt lat="49.681113" lon="5.781263"><ele>388.03</ele><time>2016-10-09T07:10:36Z</time></trkpt><trkpt lat="49.681061" lon="5.780983"><ele>387.07</ele><time>2016-10-09T07:10:42Z</time></trkpt><trkpt lat="49.681001" lon="5.780751"><ele>387.07</ele><time>2016-10-09T07:10:46Z</time></trkpt><trkpt lat="49.680753" lon="5.780452"><ele>388.03</ele><time>2016-10-09T07:10:52Z</time></trkpt><trkpt lat="49.680399" lon="5.779859"><ele>384.66</ele><time>2016-10-09T07:11:01Z</time></trkpt><trkpt lat="49.680373" lon="5.779771"><ele>384.18</ele><time>2016-10-09T07:11:02Z</time></trkpt><trkpt lat="49.680338" lon="5.779671"><ele>384.18</ele><time>2016-10-09T07:11:03Z</time></trkpt><trkpt lat="49.680222" lon="5.779353"><ele>383.22</ele><time>2016-10-09T07:11:06Z</time></trkpt><trkpt lat="49.680055" lon="5.778829"><ele>382.26</ele><time>2016-10-09T07:11:11Z</time></trkpt><trkpt lat="49.679874" lon="5.778299"><ele>381.78</ele><time>2016-10-09T07:11:16Z</time></trkpt><trkpt lat="49.679828" lon="5.777874"><ele>381.78</ele><time>2016-10-09T07:11:20Z</time></trkpt><trkpt lat="49.679895" lon="5.776684"><ele>380.34</ele><time>2016-10-09T07:11:31Z</time></trkpt><trkpt lat="49.680049" lon="5.775945"><ele>380.82</ele><time>2016-10-09T07:11:40Z</time></trkpt><trkpt lat="49.680055" lon="5.775871"><ele>381.30</ele><time>2016-10-09T07:11:41Z</time></trkpt><trkpt lat="49.680053" lon="5.775797"><ele>381.30</ele><time>2016-10-09T07:11:42Z</time></trkpt><trkpt lat="49.680048" lon="5.775725"><ele>381.30</ele><time>2016-10-09T07:11:43Z</time></trkpt><trkpt lat="49.680048" lon="5.775651"><ele>380.82</ele><time>2016-10-09T07:11:44Z</time></trkpt><trkpt lat="49.680052" lon="5.775574"><ele>381.30</ele><time>2016-10-09T07:11:45Z</time></trkpt><trkpt lat="49.680066" lon="5.775494"><ele>380.34</ele><time>2016-10-09T07:11:46Z</time></trkpt><trkpt lat="49.680090" lon="5.775420"><ele>379.86</ele><time>2016-10-09T07:11:47Z</time></trkpt><trkpt lat="49.680120" lon="5.775348"><ele>379.86</ele><time>2016-10-09T07:11:48Z</time></trkpt><trkpt lat="49.680155" lon="5.775267"><ele>379.38</ele><time>2016-10-09T07:11:49Z</time></trkpt><trkpt lat="49.680181" lon="5.775171"><ele>378.90</ele><time>2016-10-09T07:11:50Z</time></trkpt><trkpt lat="49.680195" lon="5.775063"><ele>378.42</ele><time>2016-10-09T07:11:51Z</time></trkpt><trkpt lat="49.680200" lon="5.774954"><ele>378.42</ele><time>2016-10-09T07:11:52Z</time></trkpt><trkpt lat="49.680197" lon="5.774846"><ele>378.90</ele><time>2016-10-09T07:11:53Z</time></trkpt><trkpt lat="49.680186" lon="5.774740"><ele>379.38</ele><time>2016-10-09T07:11:54Z</time></trkpt><trkpt lat="49.680173" lon="5.774639"><ele>379.38</ele><time>2016-10-09T07:11:55Z</time></trkpt><trkpt lat="49.679989" lon="5.773142"><ele>380.82</ele><time>2016-10-09T07:12:12Z</time></trkpt><trkpt lat="49.679996" lon="5.773065"><ele>380.82</ele><time>2016-10-09T07:12:13Z</time></trkpt><trkpt lat="49.680014" lon="5.772994"><ele>380.82</ele><time>2016-10-09T07:12:14Z</time></trkpt><trkpt lat="49.680043" lon="5.772931"><ele>380.82</ele><time>2016-10-09T07:12:15Z</time></trkpt><trkpt lat="49.680073" lon="5.772878"><ele>381.30</ele><time>2016-10-09T07:12:16Z</time></trkpt><trkpt lat="49.680105" lon="5.772827"><ele>381.78</ele><time>2016-10-09T07:12:17Z</time></trkpt><trkpt lat="49.680413" lon="5.772121"><ele>379.38</ele><time>2016-10-09T07:12:27Z</time></trkpt><trkpt lat="49.680810" lon="5.771502"><ele>378.42</ele><time>2016-10-09T07:12:36Z</time></trkpt><trkpt lat="49.681294" lon="5.771019"><ele>377.94</ele><time>2016-10-09T07:12:45Z</time></trkpt><trkpt lat="49.681503" lon="5.770837"><ele>377.94</ele><time>2016-10-09T07:12:49Z</time></trkpt><trkpt lat="49.681544" lon="5.770781"><ele>377.94</ele><time>2016-10-09T07:12:50Z</time></trkpt><trkpt lat="49.681577" lon="5.770713"><ele>377.94</ele><time>2016-10-09T07:12:51Z</time></trkpt><trkpt lat="49.681607" lon="5.770643"><ele>377.94</ele><time>2016-10-09T07:12:52Z</time></trkpt><trkpt lat="49.681631" lon="5.770577"><ele>377.94</ele><time>2016-10-09T07:12:53Z</time></trkpt><trkpt lat="49.681669" lon="5.770469"><ele>378.42</ele><time>2016-10-09T07:12:55Z</time></trkpt><trkpt lat="49.681704" lon="5.770352"><ele>377.94</ele><time>2016-10-09T07:12:57Z</time></trkpt><trkpt lat="49.681703" lon="5.770286"><ele>377.94</ele><time>2016-10-09T07:12:58Z</time></trkpt><trkpt lat="49.681688" lon="5.770222"><ele>377.45</ele><time>2016-10-09T07:12:59Z</time></trkpt><trkpt lat="49.681662" lon="5.770176"><ele>377.45</ele><time>2016-10-09T07:13:00Z</time></trkpt><trkpt lat="49.681626" lon="5.770135"><ele>377.45</ele><time>2016-10-09T07:13:01Z</time></trkpt><trkpt lat="49.681588" lon="5.770094"><ele>377.45</ele><time>2016-10-09T07:13:02Z</time></trkpt><trkpt lat="49.681550" lon="5.770054"><ele>377.45</ele><time>2016-10-09T07:13:03Z</time></trkpt><trkpt lat="49.681511" lon="5.770018"><ele>377.45</ele><time>2016-10-09T07:13:04Z</time></trkpt><trkpt lat="49.681474" lon="5.769986"><ele>377.94</ele><time>2016-10-09T07:13:05Z</time></trkpt><trkpt lat="49.681439" lon="5.769956"><ele>377.94</ele><time>2016-10-09T07:13:06Z</time></trkpt><trkpt lat="49.681406" lon="5.769926"><ele>377.45</ele><time>2016-10-09T07:13:07Z</time></trkpt><trkpt lat="49.681375" lon="5.769888"><ele>377.45</ele><time>2016-10-09T07:13:08Z</time></trkpt><trkpt lat="49.681348" lon="5.769837"><ele>377.45</ele><time>2016-10-09T07:13:09Z</time></trkpt><trkpt lat="49.681331" lon="5.769774"><ele>377.45</ele><time>2016-10-09T07:13:10Z</time></trkpt><trkpt lat="49.681318" lon="5.769712"><ele>377.45</ele><time>2016-10-09T07:13:11Z</time></trkpt><trkpt lat="49.681305" lon="5.769654"><ele>377.45</ele><time>2016-10-09T07:13:12Z</time></trkpt><trkpt lat="49.681163" lon="5.769378"><ele>377.94</ele><time>2016-10-09T07:13:18Z</time></trkpt><trkpt lat="49.681099" lon="5.769293"><ele>377.94</ele><time>2016-10-09T07:13:20Z</time></trkpt><trkpt lat="49.681030" lon="5.769188"><ele>377.45</ele><time>2016-10-09T07:13:22Z</time></trkpt><trkpt lat="49.680739" lon="5.768762"><ele>377.45</ele><time>2016-10-09T07:13:31Z</time></trkpt><trkpt lat="49.680650" lon="5.768696"><ele>377.94</ele><time>2016-10-09T07:13:35Z</time></trkpt><trkpt lat="49.680640" lon="5.768619"><ele>377.45</ele><time>2016-10-09T07:13:38Z</time></trkpt><trkpt lat="49.680556" lon="5.768317"><ele>376.97</ele><time>2016-10-09T07:13:46Z</time></trkpt><trkpt lat="49.680554" lon="5.767869"><ele>376.97</ele><time>2016-10-09T07:13:55Z</time></trkpt><trkpt lat="49.680540" lon="5.767624"><ele>376.97</ele><time>2016-10-09T07:14:01Z</time></trkpt><trkpt lat="49.680592" lon="5.767063"><ele>377.94</ele><time>2016-10-09T07:14:10Z</time></trkpt><trkpt lat="49.680594" lon="5.766885"><ele>378.42</ele><time>2016-10-09T07:14:13Z</time></trkpt><trkpt lat="49.680634" lon="5.766473"><ele>377.94</ele><time>2016-10-09T07:14:21Z</time></trkpt><trkpt lat="49.680660" lon="5.766254"><ele>378.42</ele><time>2016-10-09T07:14:26Z</time></trkpt><trkpt lat="49.680744" lon="5.765845"><ele>379.38</ele><time>2016-10-09T07:14:35Z</time></trkpt><trkpt lat="49.680728" lon="5.765336"><ele>381.78</ele><time>2016-10-09T07:14:45Z</time></trkpt><trkpt lat="49.680644" lon="5.764870"><ele>382.74</ele><time>2016-10-09T07:14:54Z</time></trkpt><trkpt lat="49.680412" lon="5.764257"><ele>383.70</ele><time>2016-10-09T07:15:03Z</time></trkpt><trkpt lat="49.680338" lon="5.763969"><ele>383.70</ele><time>2016-10-09T07:15:09Z</time></trkpt><trkpt lat="49.680200" lon="5.763735"><ele>382.26</ele><time>2016-10-09T07:15:14Z</time></trkpt><trkpt lat="49.680164" lon="5.763739"><ele>381.78</ele><time>2016-10-09T07:15:15Z</time></trkpt><trkpt lat="49.680134" lon="5.763748"><ele>382.26</ele><time>2016-10-09T07:15:16Z</time></trkpt><trkpt lat="49.680104" lon="5.763757"><ele>381.78</ele><time>2016-10-09T07:15:17Z</time></trkpt><trkpt lat="49.679877" lon="5.763838"><ele>384.66</ele><time>2016-10-09T07:15:25Z</time></trkpt><trkpt lat="49.679551" lon="5.763925"><ele>385.63</ele><time>2016-10-09T07:15:35Z</time></trkpt><trkpt lat="49.679462" lon="5.763974"><ele>386.11</ele><time>2016-10-09T07:15:38Z</time></trkpt><trkpt lat="49.679330" lon="5.763559"><ele>387.55</ele><time>2016-10-09T07:15:48Z</time></trkpt><trkpt lat="49.679152" lon="5.762675"><ele>388.99</ele><time>2016-10-09T07:16:04Z</time></trkpt><trkpt lat="49.678847" lon="5.761612"><ele>388.99</ele><time>2016-10-09T07:16:20Z</time></trkpt><trkpt lat="49.678568" lon="5.760597"><ele>385.63</ele><time>2016-10-09T07:16:31Z</time></trkpt><trkpt lat="49.678369" lon="5.759915"><ele>383.70</ele><time>2016-10-09T07:16:39Z</time></trkpt><trkpt lat="49.678479" lon="5.759866"><ele>383.22</ele><time>2016-10-09T07:16:44Z</time></trkpt><trkpt lat="49.678560" lon="5.760076"><ele>382.74</ele><time>2016-10-09T07:16:48Z</time></trkpt><trkpt lat="49.678725" lon="5.760089"><ele>382.26</ele><time>2016-10-09T07:16:54Z</time></trkpt><trkpt lat="49.678724" lon="5.759972"><ele>382.74</ele><time>2016-10-09T07:16:56Z</time></trkpt><trkpt lat="49.678643" lon="5.759422"><ele>384.18</ele><time>2016-10-09T07:17:05Z</time></trkpt><trkpt lat="49.678589" lon="5.759145"><ele>384.66</ele><time>2016-10-09T07:17:09Z</time></trkpt><trkpt lat="49.678562" lon="5.758961"><ele>385.15</ele><time>2016-10-09T07:17:12Z</time></trkpt><trkpt lat="49.678539" lon="5.758639"><ele>386.59</ele><time>2016-10-09T07:17:20Z</time></trkpt><trkpt lat="49.678620" lon="5.758235"><ele>388.51</ele><time>2016-10-09T07:17:31Z</time></trkpt><trkpt lat="49.678629" lon="5.758200"><ele>388.99</ele><time>2016-10-09T07:17:32Z</time></trkpt><trkpt lat="49.678662" lon="5.758010"><ele>389.47</ele><time>2016-10-09T07:17:37Z</time></trkpt><trkpt lat="49.678767" lon="5.757527"><ele>391.87</ele><time>2016-10-09T07:17:50Z</time></trkpt><trkpt lat="49.678780" lon="5.757331"><ele>392.36</ele><time>2016-10-09T07:17:55Z</time></trkpt><trkpt lat="49.678785" lon="5.756973"><ele>393.80</ele><time>2016-10-09T07:18:05Z</time></trkpt><trkpt lat="49.678682" lon="5.756726"><ele>394.28</ele><time>2016-10-09T07:18:16Z</time></trkpt><trkpt lat="49.678658" lon="5.756679"><ele>394.28</ele><time>2016-10-09T07:18:22Z</time></trkpt><trkpt lat="49.678584" lon="5.756621"><ele>395.24</ele><time>2016-10-09T07:18:32Z</time></trkpt><trkpt lat="49.678528" lon="5.756570"><ele>395.72</ele><time>2016-10-09T07:18:37Z</time></trkpt><trkpt lat="49.678443" lon="5.756429"><ele>396.20</ele><time>2016-10-09T07:18:48Z</time></trkpt><trkpt lat="49.678401" lon="5.756389"><ele>391.39</ele><time>2016-10-09T07:18:57Z</time></trkpt><trkpt lat="49.678393" lon="5.756379"><ele>398.12</ele><time>2016-10-09T07:18:58Z</time></trkpt><trkpt lat="49.678329" lon="5.756283"><ele>397.64</ele><time>2016-10-09T07:19:09Z</time></trkpt><trkpt lat="49.678258" lon="5.756173"><ele>398.60</ele><time>2016-10-09T07:19:21Z</time></trkpt><trkpt lat="49.678186" lon="5.756055"><ele>400.05</ele><time>2016-10-09T07:19:34Z</time></trkpt><trkpt lat="49.678130" lon="5.755916"><ele>401.49</ele><time>2016-10-09T07:19:47Z</time></trkpt><trkpt lat="49.678081" lon="5.755765"><ele>403.41</ele><time>2016-10-09T07:20:00Z</time></trkpt><trkpt lat="49.678061" lon="5.755653"><ele>404.37</ele><time>2016-10-09T07:20:13Z</time></trkpt><trkpt lat="49.678069" lon="5.755609"><ele>404.85</ele><time>2016-10-09T07:20:30Z</time></trkpt><trkpt lat="49.678077" lon="5.755577"><ele>404.85</ele><time>2016-10-09T07:20:42Z</time></trkpt><trkpt lat="49.678050" lon="5.755401"><ele>406.77</ele><time>2016-10-09T07:20:50Z</time></trkpt><trkpt lat="49.677998" lon="5.755152"><ele>409.66</ele><time>2016-10-09T07:21:04Z</time></trkpt><trkpt lat="49.677977" lon="5.755029"><ele>410.62</ele><time>2016-10-09T07:21:11Z</time></trkpt><trkpt lat="49.677990" lon="5.754919"><ele>411.10</ele><time>2016-10-09T07:21:23Z</time></trkpt><trkpt lat="49.677990" lon="5.754924"><ele>411.58</ele><time>2016-10-09T07:21:41Z</time></trkpt><trkpt lat="49.677912" lon="5.754550"><ele>413.02</ele><time>2016-10-09T07:21:53Z</time></trkpt><trkpt lat="49.677891" lon="5.754318"><ele>413.98</ele><time>2016-10-09T07:21:59Z</time></trkpt><trkpt lat="49.677817" lon="5.754084"><ele>413.98</ele><time>2016-10-09T07:22:05Z</time></trkpt><trkpt lat="49.677743" lon="5.753916"><ele>413.98</ele><time>2016-10-09T07:22:09Z</time></trkpt><trkpt lat="49.677632" lon="5.753578"><ele>413.50</ele><time>2016-10-09T07:22:16Z</time></trkpt><trkpt lat="49.677389" lon="5.752990"><ele>412.06</ele><time>2016-10-09T07:22:25Z</time></trkpt><trkpt lat="49.677204" lon="5.752286"><ele>411.58</ele><time>2016-10-09T07:22:36Z</time></trkpt><trkpt lat="49.677165" lon="5.752044"><ele>411.58</ele><time>2016-10-09T07:22:39Z</time></trkpt><trkpt lat="49.677150" lon="5.751874"><ele>411.58</ele><time>2016-10-09T07:22:41Z</time></trkpt><trkpt lat="49.677149" lon="5.751715"><ele>411.58</ele><time>2016-10-09T07:22:43Z</time></trkpt><trkpt lat="49.677327" lon="5.751161"><ele>413.98</ele><time>2016-10-09T07:22:55Z</time></trkpt><trkpt lat="49.677556" lon="5.750624"><ele>415.91</ele><time>2016-10-09T07:23:08Z</time></trkpt><trkpt lat="49.677820" lon="5.749727"><ele>418.79</ele><time>2016-10-09T07:23:27Z</time></trkpt><trkpt lat="49.677927" lon="5.749041"><ele>419.27</ele><time>2016-10-09T07:23:41Z</time></trkpt><trkpt lat="49.678016" lon="5.748425"><ele>420.23</ele><time>2016-10-09T07:23:54Z</time></trkpt><trkpt lat="49.677941" lon="5.748019"><ele>419.75</ele><time>2016-10-09T07:24:04Z</time></trkpt><trkpt lat="49.677895" lon="5.747770"><ele>419.75</ele><time>2016-10-09T07:24:08Z</time></trkpt><trkpt lat="49.677777" lon="5.746921"><ele>420.71</ele><time>2016-10-09T07:24:22Z</time></trkpt><trkpt lat="49.677700" lon="5.746636"><ele>420.71</ele><time>2016-10-09T07:24:27Z</time></trkpt><trkpt lat="49.677472" lon="5.746707"><ele>419.75</ele><time>2016-10-09T07:24:34Z</time></trkpt><trkpt lat="49.677222" lon="5.747130"><ele>417.83</ele><time>2016-10-09T07:24:43Z</time></trkpt><trkpt lat="49.677005" lon="5.747232"><ele>413.50</ele><time>2016-10-09T07:24:48Z</time></trkpt><trkpt lat="49.676881" lon="5.747243"><ele>411.10</ele><time>2016-10-09T07:24:51Z</time></trkpt><trkpt lat="49.676654" lon="5.747076"><ele>405.33</ele><time>2016-10-09T07:24:57Z</time></trkpt><trkpt lat="49.676595" lon="5.746829"><ele>401.97</ele><time>2016-10-09T07:25:01Z</time></trkpt><trkpt lat="49.676630" lon="5.746551"><ele>401.97</ele><time>2016-10-09T07:25:07Z</time></trkpt><trkpt lat="49.676648" lon="5.746511"><ele>398.60</ele><time>2016-10-09T07:25:12Z</time></trkpt><trkpt lat="49.676648" lon="5.746511"><ele>400.53</ele><time>2016-10-09T07:25:13Z</time></trkpt><trkpt lat="49.676648" lon="5.746511"><ele>401.97</ele><time>2016-10-09T07:25:15Z</time></trkpt><trkpt lat="49.676647" lon="5.746208"><ele>401.01</ele><time>2016-10-09T07:25:30Z</time></trkpt><trkpt lat="49.676641" lon="5.746164"><ele>401.01</ele><time>2016-10-09T07:25:33Z</time></trkpt><trkpt lat="49.676609" lon="5.746081"><ele>400.05</ele><time>2016-10-09T07:25:41Z</time></trkpt><trkpt lat="49.676457" lon="5.745877"><ele>396.68</ele><time>2016-10-09T07:25:48Z</time></trkpt><trkpt lat="49.676225" lon="5.745832"><ele>393.32</ele><time>2016-10-09T07:25:53Z</time></trkpt><trkpt lat="49.675997" lon="5.745797"><ele>390.91</ele><time>2016-10-09T07:25:57Z</time></trkpt><trkpt lat="49.675883" lon="5.745800"><ele>389.47</ele><time>2016-10-09T07:25:59Z</time></trkpt><trkpt lat="49.675567" lon="5.745909"><ele>386.11</ele><time>2016-10-09T07:26:04Z</time></trkpt><trkpt lat="49.675397" lon="5.745974"><ele>384.66</ele><time>2016-10-09T07:26:07Z</time></trkpt><trkpt lat="49.675289" lon="5.746022"><ele>383.70</ele><time>2016-10-09T07:26:09Z</time></trkpt><trkpt lat="49.675130" lon="5.746111"><ele>381.78</ele><time>2016-10-09T07:26:15Z</time></trkpt><trkpt lat="49.674923" lon="5.746182"><ele>380.82</ele><time>2016-10-09T07:26:28Z</time></trkpt><trkpt lat="49.674881" lon="5.746445"><ele>379.86</ele><time>2016-10-09T07:26:35Z</time></trkpt><trkpt lat="49.675004" lon="5.747188"><ele>379.86</ele><time>2016-10-09T07:26:51Z</time></trkpt><trkpt lat="49.675089" lon="5.747642"><ele>380.82</ele><time>2016-10-09T07:26:59Z</time></trkpt><trkpt lat="49.675173" lon="5.748246"><ele>381.78</ele><time>2016-10-09T07:27:08Z</time></trkpt><trkpt lat="49.675290" lon="5.749210"><ele>383.70</ele><time>2016-10-09T07:27:23Z</time></trkpt><trkpt lat="49.675324" lon="5.749521"><ele>383.70</ele><time>2016-10-09T07:27:28Z</time></trkpt><trkpt lat="49.675347" lon="5.749715"><ele>384.18</ele><time>2016-10-09T07:27:31Z</time></trkpt><trkpt lat="49.675375" lon="5.750048"><ele>384.66</ele><time>2016-10-09T07:27:36Z</time></trkpt><trkpt lat="49.675427" lon="5.750458"><ele>384.66</ele><time>2016-10-09T07:27:46Z</time></trkpt><trkpt lat="49.675467" lon="5.750713"><ele>385.15</ele><time>2016-10-09T07:27:53Z</time></trkpt><trkpt lat="49.675433" lon="5.750835"><ele>384.18</ele><time>2016-10-09T07:27:59Z</time></trkpt><trkpt lat="49.675425" lon="5.750875"><ele>384.18</ele><time>2016-10-09T07:28:01Z</time></trkpt><trkpt lat="49.675318" lon="5.751028"><ele>382.26</ele><time>2016-10-09T07:28:06Z</time></trkpt><trkpt lat="49.675256" lon="5.751089"><ele>381.78</ele><time>2016-10-09T07:28:08Z</time></trkpt><trkpt lat="49.674900" lon="5.751316"><ele>378.42</ele><time>2016-10-09T07:28:18Z</time></trkpt><trkpt lat="49.674653" lon="5.751563"><ele>376.01</ele><time>2016-10-09T07:28:26Z</time></trkpt><trkpt lat="49.674405" lon="5.751772"><ele>375.53</ele><time>2016-10-09T07:28:33Z</time></trkpt><trkpt lat="49.674285" lon="5.751806"><ele>375.05</ele><time>2016-10-09T07:28:43Z</time></trkpt><trkpt lat="49.674237" lon="5.751742"><ele>376.49</ele><time>2016-10-09T07:28:55Z</time></trkpt><trkpt lat="49.674109" lon="5.751583"><ele>376.01</ele><time>2016-10-09T07:29:03Z</time></trkpt><trkpt lat="49.674073" lon="5.751467"><ele>376.01</ele><time>2016-10-09T07:29:06Z</time></trkpt><trkpt lat="49.673833" lon="5.751123"><ele>375.53</ele><time>2016-10-09T07:29:15Z</time></trkpt><trkpt lat="49.673637" lon="5.750749"><ele>374.57</ele><time>2016-10-09T07:29:25Z</time></trkpt><trkpt lat="49.673548" lon="5.750569"><ele>373.13</ele><time>2016-10-09T07:29:28Z</time></trkpt><trkpt lat="49.673339" lon="5.750319"><ele>371.21</ele><time>2016-10-09T07:29:35Z</time></trkpt><trkpt lat="49.673123" lon="5.750154"><ele>369.76</ele><time>2016-10-09T07:29:41Z</time></trkpt><trkpt lat="49.672938" lon="5.749955"><ele>368.32</ele><time>2016-10-09T07:29:47Z</time></trkpt><trkpt lat="49.672806" lon="5.749932"><ele>367.36</ele><time>2016-10-09T07:29:52Z</time></trkpt><trkpt lat="49.672595" lon="5.749942"><ele>366.40</ele><time>2016-10-09T07:30:02Z</time></trkpt><trkpt lat="49.672544" lon="5.749967"><ele>366.40</ele><time>2016-10-09T07:30:07Z</time></trkpt><trkpt lat="49.672274" lon="5.750002"><ele>365.44</ele><time>2016-10-09T07:30:16Z</time></trkpt><trkpt lat="49.671976" lon="5.750164"><ele>365.44</ele><time>2016-10-09T07:30:26Z</time></trkpt><trkpt lat="49.671746" lon="5.750161"><ele>364.00</ele><time>2016-10-09T07:30:34Z</time></trkpt><trkpt lat="49.671555" lon="5.750081"><ele>362.55</ele><time>2016-10-09T07:30:38Z</time></trkpt><trkpt lat="49.671454" lon="5.750026"><ele>361.59</ele><time>2016-10-09T07:30:40Z</time></trkpt><trkpt lat="49.671061" lon="5.749905"><ele>360.15</ele><time>2016-10-09T07:30:45Z</time></trkpt><trkpt lat="49.670720" lon="5.749777"><ele>356.79</ele><time>2016-10-09T07:30:52Z</time></trkpt><trkpt lat="49.670565" lon="5.749693"><ele>355.83</ele><time>2016-10-09T07:30:57Z</time></trkpt><trkpt lat="49.670479" lon="5.749778"><ele>356.31</ele><time>2016-10-09T07:31:06Z</time></trkpt><trkpt lat="49.670705" lon="5.749739"><ele>356.79</ele><time>2016-10-09T07:31:16Z</time></trkpt><trkpt lat="49.670868" lon="5.749932"><ele>357.75</ele><time>2016-10-09T07:31:24Z</time></trkpt><trkpt lat="49.670865" lon="5.749948"><ele>362.55</ele><time>2016-10-09T07:31:28Z</time></trkpt><trkpt lat="49.670865" lon="5.749948"><ele>359.19</ele><time>2016-10-09T07:31:29Z</time></trkpt><trkpt lat="49.670820" lon="5.749921"><ele>357.75</ele><time>2016-10-09T07:31:41Z</time></trkpt><trkpt lat="49.670747" lon="5.749926"><ele>357.75</ele><time>2016-10-09T07:31:50Z</time></trkpt><trkpt lat="49.670739" lon="5.749927"><ele>357.75</ele><time>2016-10-09T07:32:07Z</time></trkpt><trkpt lat="49.670738" lon="5.749922"><ele>360.15</ele><time>2016-10-09T07:40:13Z</time></trkpt><trkpt lat="49.670728" lon="5.749901"><ele>360.15</ele><time>2016-10-09T07:42:09Z</time></trkpt><trkpt lat="49.670650" lon="5.749811"><ele>359.67</ele><time>2016-10-09T07:42:15Z</time></trkpt><trkpt lat="49.670592" lon="5.749727"><ele>359.19</ele><time>2016-10-09T07:42:19Z</time></trkpt><trkpt lat="49.670481" lon="5.749819"><ele>358.71</ele><time>2016-10-09T07:42:24Z</time></trkpt><trkpt lat="49.670243" lon="5.750270"><ele>358.71</ele><time>2016-10-09T07:42:37Z</time></trkpt><trkpt lat="49.669970" lon="5.750397"><ele>359.67</ele><time>2016-10-09T07:42:47Z</time></trkpt><trkpt lat="49.669681" lon="5.750494"><ele>364.48</ele><time>2016-10-09T07:42:56Z</time></trkpt><trkpt lat="49.669650" lon="5.750516"><ele>362.07</ele><time>2016-10-09T07:42:57Z</time></trkpt><trkpt lat="49.669308" lon="5.750582"><ele>364.00</ele><time>2016-10-09T07:43:08Z</time></trkpt><trkpt lat="49.669049" lon="5.750724"><ele>366.88</ele><time>2016-10-09T07:43:19Z</time></trkpt><trkpt lat="49.669033" lon="5.750778"><ele>367.36</ele><time>2016-10-09T07:43:21Z</time></trkpt><trkpt lat="49.668916" lon="5.751166"><ele>366.88</ele><time>2016-10-09T07:43:31Z</time></trkpt><trkpt lat="49.668652" lon="5.751705"><ele>369.28</ele><time>2016-10-09T07:43:46Z</time></trkpt><trkpt lat="49.668429" lon="5.752196"><ele>371.69</ele><time>2016-10-09T07:43:59Z</time></trkpt><trkpt lat="49.668204" lon="5.752731"><ele>373.13</ele><time>2016-10-09T07:44:13Z</time></trkpt><trkpt lat="49.668080" lon="5.752978"><ele>372.65</ele><time>2016-10-09T07:44:19Z</time></trkpt><trkpt lat="49.667993" lon="5.753142"><ele>371.69</ele><time>2016-10-09T07:44:22Z</time></trkpt><trkpt lat="49.667898" lon="5.753307"><ele>372.17</ele><time>2016-10-09T07:44:25Z</time></trkpt><trkpt lat="49.667507" lon="5.753810"><ele>370.73</ele><time>2016-10-09T07:44:38Z</time></trkpt><trkpt lat="49.667150" lon="5.754063"><ele>369.76</ele><time>2016-10-09T07:44:52Z</time></trkpt><trkpt lat="49.667074" lon="5.754153"><ele>369.28</ele><time>2016-10-09T07:44:55Z</time></trkpt><trkpt lat="49.666802" lon="5.754531"><ele>370.24</ele><time>2016-10-09T07:45:09Z</time></trkpt><trkpt lat="49.666456" lon="5.754978"><ele>372.17</ele><time>2016-10-09T07:45:22Z</time></trkpt><trkpt lat="49.665992" lon="5.755582"><ele>371.21</ele><time>2016-10-09T07:45:36Z</time></trkpt><trkpt lat="49.665621" lon="5.756043"><ele>370.24</ele><time>2016-10-09T07:45:49Z</time></trkpt><trkpt lat="49.665566" lon="5.756107"><ele>370.24</ele><time>2016-10-09T07:45:53Z</time></trkpt><trkpt lat="49.665628" lon="5.756052"><ele>370.73</ele><time>2016-10-09T07:46:00Z</time></trkpt><trkpt lat="49.665639" lon="5.756017"><ele>370.24</ele><time>2016-10-09T07:46:01Z</time></trkpt><trkpt lat="49.665868" lon="5.755708"><ele>370.24</ele><time>2016-10-09T07:46:13Z</time></trkpt><trkpt lat="49.666176" lon="5.755295"><ele>371.69</ele><time>2016-10-09T07:46:26Z</time></trkpt><trkpt lat="49.666465" lon="5.754915"><ele>372.17</ele><time>2016-10-09T07:46:39Z</time></trkpt><trkpt lat="49.666735" lon="5.754611"><ele>370.73</ele><time>2016-10-09T07:46:49Z</time></trkpt><trkpt lat="49.666833" lon="5.754463"><ele>370.73</ele><time>2016-10-09T07:46:56Z</time></trkpt><trkpt lat="49.666884" lon="5.754342"><ele>370.24</ele><time>2016-10-09T07:47:01Z</time></trkpt><trkpt lat="49.667151" lon="5.754018"><ele>370.24</ele><time>2016-10-09T07:47:13Z</time></trkpt><trkpt lat="49.667497" lon="5.753772"><ele>370.73</ele><time>2016-10-09T07:47:26Z</time></trkpt><trkpt lat="49.667733" lon="5.753464"><ele>371.21</ele><time>2016-10-09T07:47:36Z</time></trkpt><trkpt lat="49.668024" lon="5.753003"><ele>373.13</ele><time>2016-10-09T07:47:49Z</time></trkpt><trkpt lat="49.668217" lon="5.752592"><ele>373.13</ele><time>2016-10-09T07:48:00Z</time></trkpt><trkpt lat="49.668393" lon="5.752127"><ele>372.65</ele><time>2016-10-09T07:48:11Z</time></trkpt><trkpt lat="49.668549" lon="5.751802"><ele>371.21</ele><time>2016-10-09T07:48:17Z</time></trkpt><trkpt lat="49.668844" lon="5.751213"><ele>367.84</ele><time>2016-10-09T07:48:27Z</time></trkpt><trkpt lat="49.668883" lon="5.751049"><ele>367.84</ele><time>2016-10-09T07:48:32Z</time></trkpt><trkpt lat="49.668884" lon="5.750923"><ele>367.84</ele><time>2016-10-09T07:48:39Z</time></trkpt><trkpt lat="49.668882" lon="5.750955"><ele>367.84</ele><time>2016-10-09T07:48:55Z</time></trkpt><trkpt lat="49.668894" lon="5.751128"><ele>366.88</ele><time>2016-10-09T07:49:12Z</time></trkpt><trkpt lat="49.668956" lon="5.751540"><ele>368.32</ele><time>2016-10-09T07:49:21Z</time></trkpt><trkpt lat="49.668976" lon="5.751748"><ele>367.36</ele><time>2016-10-09T07:49:25Z</time></trkpt><trkpt lat="49.669047" lon="5.752226"><ele>368.80</ele><time>2016-10-09T07:49:35Z</time></trkpt><trkpt lat="49.669092" lon="5.752641"><ele>369.28</ele><time>2016-10-09T07:49:44Z</time></trkpt><trkpt lat="49.669111" lon="5.753059"><ele>370.24</ele><time>2016-10-09T07:49:53Z</time></trkpt><trkpt lat="49.669092" lon="5.753637"><ele>369.76</ele><time>2016-10-09T07:50:04Z</time></trkpt><trkpt lat="49.669067" lon="5.754023"><ele>370.24</ele><time>2016-10-09T07:50:12Z</time></trkpt><trkpt lat="49.669054" lon="5.754195"><ele>370.24</ele><time>2016-10-09T07:50:16Z</time></trkpt><trkpt lat="49.668995" lon="5.754399"><ele>370.73</ele><time>2016-10-09T07:50:24Z</time></trkpt><trkpt lat="49.668956" lon="5.754665"><ele>371.21</ele><time>2016-10-09T07:50:32Z</time></trkpt><trkpt lat="49.668916" lon="5.754978"><ele>371.21</ele><time>2016-10-09T07:50:42Z</time></trkpt><trkpt lat="49.668904" lon="5.755020"><ele>371.69</ele><time>2016-10-09T07:50:52Z</time></trkpt><trkpt lat="49.668870" lon="5.755358"><ele>372.65</ele><time>2016-10-09T07:51:02Z</time></trkpt><trkpt lat="49.668892" lon="5.755695"><ele>373.61</ele><time>2016-10-09T07:51:09Z</time></trkpt><trkpt lat="49.669102" lon="5.755802"><ele>374.09</ele><time>2016-10-09T07:51:17Z</time></trkpt><trkpt lat="49.669234" lon="5.755734"><ele>374.09</ele><time>2016-10-09T07:51:20Z</time></trkpt><trkpt lat="49.669698" lon="5.755522"><ele>374.09</ele><time>2016-10-09T07:51:32Z</time></trkpt><trkpt lat="49.669794" lon="5.755485"><ele>374.09</ele><time>2016-10-09T07:51:35Z</time></trkpt><trkpt lat="49.670080" lon="5.755502"><ele>372.65</ele><time>2016-10-09T07:51:42Z</time></trkpt><trkpt lat="49.670197" lon="5.755810"><ele>372.65</ele><time>2016-10-09T07:51:47Z</time></trkpt><trkpt lat="49.670243" lon="5.756048"><ele>372.65</ele><time>2016-10-09T07:51:51Z</time></trkpt><trkpt lat="49.670282" lon="5.756295"><ele>372.65</ele><time>2016-10-09T07:51:55Z</time></trkpt><trkpt lat="49.670232" lon="5.756707"><ele>373.61</ele><time>2016-10-09T07:52:03Z</time></trkpt><trkpt lat="49.670275" lon="5.756897"><ele>374.09</ele><time>2016-10-09T07:52:07Z</time></trkpt><trkpt lat="49.670267" lon="5.757295"><ele>375.53</ele><time>2016-10-09T07:52:15Z</time></trkpt><trkpt lat="49.670284" lon="5.757478"><ele>376.49</ele><time>2016-10-09T07:52:19Z</time></trkpt><trkpt lat="49.670294" lon="5.757654"><ele>377.45</ele><time>2016-10-09T07:52:23Z</time></trkpt><trkpt lat="49.670255" lon="5.757917"><ele>378.42</ele><time>2016-10-09T07:52:30Z</time></trkpt><trkpt lat="49.670248" lon="5.757951"><ele>378.42</ele><time>2016-10-09T07:52:31Z</time></trkpt><trkpt lat="49.670212" lon="5.758303"><ele>379.38</ele><time>2016-10-09T07:52:41Z</time></trkpt><trkpt lat="49.670055" lon="5.758735"><ele>379.38</ele><time>2016-10-09T07:52:49Z</time></trkpt><trkpt lat="49.669977" lon="5.758895"><ele>378.90</ele><time>2016-10-09T07:52:54Z</time></trkpt><trkpt lat="49.669723" lon="5.759093"><ele>379.86</ele><time>2016-10-09T07:53:02Z</time></trkpt><trkpt lat="49.669648" lon="5.759202"><ele>380.34</ele><time>2016-10-09T07:53:06Z</time></trkpt><trkpt lat="49.669582" lon="5.759298"><ele>380.34</ele><time>2016-10-09T07:53:09Z</time></trkpt><trkpt lat="49.669562" lon="5.759493"><ele>380.34</ele><time>2016-10-09T07:53:14Z</time></trkpt><trkpt lat="49.669677" lon="5.759939"><ele>378.42</ele><time>2016-10-09T07:53:23Z</time></trkpt><trkpt lat="49.669697" lon="5.760061"><ele>377.45</ele><time>2016-10-09T07:53:25Z</time></trkpt><trkpt lat="49.669763" lon="5.760226"><ele>376.01</ele><time>2016-10-09T07:53:28Z</time></trkpt><trkpt lat="49.669943" lon="5.760670"><ele>374.09</ele><time>2016-10-09T07:53:36Z</time></trkpt><trkpt lat="49.669970" lon="5.761003"><ele>373.13</ele><time>2016-10-09T07:53:42Z</time></trkpt><trkpt lat="49.670009" lon="5.761216"><ele>372.65</ele><time>2016-10-09T07:53:45Z</time></trkpt><trkpt lat="49.669999" lon="5.761691"><ele>372.17</ele><time>2016-10-09T07:53:53Z</time></trkpt><trkpt lat="49.670068" lon="5.762068"><ele>370.73</ele><time>2016-10-09T07:53:59Z</time></trkpt><trkpt lat="49.670065" lon="5.762256"><ele>371.21</ele><time>2016-10-09T07:54:04Z</time></trkpt><trkpt lat="49.669599" lon="5.762576"><ele>372.17</ele><time>2016-10-09T07:54:18Z</time></trkpt><trkpt lat="49.669372" lon="5.762720"><ele>372.65</ele><time>2016-10-09T07:54:24Z</time></trkpt><trkpt lat="49.669397" lon="5.763020"><ele>373.13</ele><time>2016-10-09T07:54:30Z</time></trkpt><trkpt lat="49.669926" lon="5.763726"><ele>372.17</ele><time>2016-10-09T07:54:46Z</time></trkpt><trkpt lat="49.670054" lon="5.763835"><ele>372.17</ele><time>2016-10-09T07:54:50Z</time></trkpt><trkpt lat="49.670066" lon="5.763982"><ele>372.65</ele><time>2016-10-09T07:54:53Z</time></trkpt><trkpt lat="49.670038" lon="5.764177"><ele>373.13</ele><time>2016-10-09T07:54:56Z</time></trkpt><trkpt lat="49.669999" lon="5.764295"><ele>372.65</ele><time>2016-10-09T07:54:58Z</time></trkpt><trkpt lat="49.669967" lon="5.764347"><ele>372.65</ele><time>2016-10-09T07:54:59Z</time></trkpt><trkpt lat="49.669928" lon="5.764389"><ele>372.65</ele><time>2016-10-09T07:55:00Z</time></trkpt><trkpt lat="49.669886" lon="5.764418"><ele>372.65</ele><time>2016-10-09T07:55:01Z</time></trkpt><trkpt lat="49.669844" lon="5.764442"><ele>372.65</ele><time>2016-10-09T07:55:02Z</time></trkpt><trkpt lat="49.669585" lon="5.764555"><ele>373.61</ele><time>2016-10-09T07:55:08Z</time></trkpt><trkpt lat="49.669542" lon="5.764561"><ele>373.61</ele><time>2016-10-09T07:55:09Z</time></trkpt><trkpt lat="49.669497" lon="5.764565"><ele>373.61</ele><time>2016-10-09T07:55:10Z</time></trkpt><trkpt lat="49.669453" lon="5.764580"><ele>373.61</ele><time>2016-10-09T07:55:11Z</time></trkpt><trkpt lat="49.669417" lon="5.764605"><ele>373.61</ele><time>2016-10-09T07:55:12Z</time></trkpt><trkpt lat="49.669286" lon="5.764754"><ele>374.09</ele><time>2016-10-09T07:55:17Z</time></trkpt><trkpt lat="49.669201" lon="5.764786"><ele>375.53</ele><time>2016-10-09T07:55:19Z</time></trkpt><trkpt lat="49.668832" lon="5.764799"><ele>377.94</ele><time>2016-10-09T07:55:28Z</time></trkpt><trkpt lat="49.668453" lon="5.764863"><ele>380.82</ele><time>2016-10-09T07:55:40Z</time></trkpt><trkpt lat="49.668282" lon="5.765042"><ele>382.26</ele><time>2016-10-09T07:55:48Z</time></trkpt><trkpt lat="49.668288" lon="5.765207"><ele>383.70</ele><time>2016-10-09T07:55:52Z</time></trkpt><trkpt lat="49.668331" lon="5.765747"><ele>384.66</ele><time>2016-10-09T07:56:03Z</time></trkpt><trkpt lat="49.668402" lon="5.766275"><ele>386.11</ele><time>2016-10-09T07:56:13Z</time></trkpt><trkpt lat="49.668470" lon="5.766674"><ele>386.11</ele><time>2016-10-09T07:56:21Z</time></trkpt><trkpt lat="49.668462" lon="5.766933"><ele>385.15</ele><time>2016-10-09T07:56:26Z</time></trkpt><trkpt lat="49.668361" lon="5.767748"><ele>387.55</ele><time>2016-10-09T07:56:39Z</time></trkpt><trkpt lat="49.668348" lon="5.768275"><ele>388.03</ele><time>2016-10-09T07:56:48Z</time></trkpt><trkpt lat="49.668383" lon="5.768356"><ele>386.59</ele><time>2016-10-09T07:56:50Z</time></trkpt><trkpt lat="49.668524" lon="5.768359"><ele>383.70</ele><time>2016-10-09T07:56:56Z</time></trkpt><trkpt lat="49.668569" lon="5.768366"><ele>383.22</ele><time>2016-10-09T07:56:58Z</time></trkpt><trkpt lat="49.668630" lon="5.768417"><ele>382.74</ele><time>2016-10-09T07:57:00Z</time></trkpt><trkpt lat="49.668672" lon="5.768646"><ele>382.74</ele><time>2016-10-09T07:57:05Z</time></trkpt><trkpt lat="49.668619" lon="5.768742"><ele>383.70</ele><time>2016-10-09T07:57:09Z</time></trkpt><trkpt lat="49.668575" lon="5.768827"><ele>384.18</ele><time>2016-10-09T07:57:13Z</time></trkpt><trkpt lat="49.668351" lon="5.769291"><ele>385.15</ele><time>2016-10-09T07:57:25Z</time></trkpt><trkpt lat="49.668313" lon="5.769424"><ele>385.15</ele><time>2016-10-09T07:57:29Z</time></trkpt><trkpt lat="49.668059" lon="5.769599"><ele>387.07</ele><time>2016-10-09T07:57:41Z</time></trkpt><trkpt lat="49.667959" lon="5.769660"><ele>387.55</ele><time>2016-10-09T07:57:47Z</time></trkpt><trkpt lat="49.667905" lon="5.769783"><ele>388.03</ele><time>2016-10-09T07:57:53Z</time></trkpt><trkpt lat="49.667724" lon="5.770185"><ele>388.51</ele><time>2016-10-09T07:58:04Z</time></trkpt><trkpt lat="49.667712" lon="5.770240"><ele>388.51</ele><time>2016-10-09T07:58:05Z</time></trkpt><trkpt lat="49.667770" lon="5.770438"><ele>387.07</ele><time>2016-10-09T07:58:09Z</time></trkpt><trkpt lat="49.667863" lon="5.770481"><ele>386.59</ele><time>2016-10-09T07:58:11Z</time></trkpt><trkpt lat="49.668019" lon="5.770699"><ele>384.66</ele><time>2016-10-09T07:58:17Z</time></trkpt><trkpt lat="49.668169" lon="5.770819"><ele>381.78</ele><time>2016-10-09T07:58:22Z</time></trkpt><trkpt lat="49.668536" lon="5.770804"><ele>384.18</ele><time>2016-10-09T07:58:32Z</time></trkpt><trkpt lat="49.668772" lon="5.770479"><ele>383.70</ele><time>2016-10-09T07:58:41Z</time></trkpt><trkpt lat="49.668826" lon="5.770380"><ele>383.22</ele><time>2016-10-09T07:58:43Z</time></trkpt><trkpt lat="49.668969" lon="5.770140"><ele>382.26</ele><time>2016-10-09T07:58:48Z</time></trkpt><trkpt lat="49.669305" lon="5.769768"><ele>380.82</ele><time>2016-10-09T07:59:01Z</time></trkpt><trkpt lat="49.669298" lon="5.769772"><ele>380.34</ele><time>2016-10-09T07:59:11Z</time></trkpt><trkpt lat="49.669294" lon="5.769781"><ele>386.59</ele><time>2016-10-09T08:03:43Z</time></trkpt><trkpt lat="49.669294" lon="5.769781"><ele>383.70</ele><time>2016-10-09T08:03:44Z</time></trkpt><trkpt lat="49.669298" lon="5.769782"><ele>379.38</ele><time>2016-10-09T08:03:46Z</time></trkpt><trkpt lat="49.669300" lon="5.769781"><ele>380.34</ele><time>2016-10-09T08:03:47Z</time></trkpt><trkpt lat="49.669302" lon="5.769782"><ele>381.30</ele><time>2016-10-09T08:03:49Z</time></trkpt><trkpt lat="49.669302" lon="5.769787"><ele>380.82</ele><time>2016-10-09T08:04:19Z</time></trkpt><trkpt lat="49.669295" lon="5.769780"><ele>381.78</ele><time>2016-10-09T08:09:29Z</time></trkpt><trkpt lat="49.669302" lon="5.769794"><ele>382.26</ele><time>2016-10-09T08:17:05Z</time></trkpt><trkpt lat="49.669302" lon="5.769781"><ele>382.74</ele><time>2016-10-09T08:19:36Z</time></trkpt><trkpt lat="49.669305" lon="5.769788"><ele>381.78</ele><time>2016-10-09T08:19:56Z</time></trkpt><trkpt lat="49.669284" lon="5.769779"><ele>382.74</ele><time>2016-10-09T08:20:41Z</time></trkpt><trkpt lat="49.669284" lon="5.769775"><ele>382.74</ele><time>2016-10-09T08:21:24Z</time></trkpt><trkpt lat="49.669282" lon="5.769774"><ele>382.74</ele><time>2016-10-09T08:21:47Z</time></trkpt><trkpt lat="49.669280" lon="5.769777"><ele>382.74</ele><time>2016-10-09T08:22:23Z</time></trkpt><trkpt lat="49.669302" lon="5.769722"><ele>382.26</ele><time>2016-10-09T08:22:28Z</time></trkpt><trkpt lat="49.669579" lon="5.769481"><ele>381.78</ele><time>2016-10-09T08:22:39Z</time></trkpt><trkpt lat="49.669991" lon="5.769090"><ele>381.30</ele><time>2016-10-09T08:22:52Z</time></trkpt><trkpt lat="49.670296" lon="5.769006"><ele>382.74</ele><time>2016-10-09T08:23:02Z</time></trkpt><trkpt lat="49.670555" lon="5.769380"><ele>383.22</ele><time>2016-10-09T08:23:14Z</time></trkpt><trkpt lat="49.670742" lon="5.769656"><ele>383.22</ele><time>2016-10-09T08:23:23Z</time></trkpt><trkpt lat="49.670947" lon="5.769900"><ele>382.26</ele><time>2016-10-09T08:23:32Z</time></trkpt><trkpt lat="49.671300" lon="5.770156"><ele>380.34</ele><time>2016-10-09T08:23:43Z</time></trkpt><trkpt lat="49.671388" lon="5.770169"><ele>379.38</ele><time>2016-10-09T08:23:46Z</time></trkpt><trkpt lat="49.671770" lon="5.770135"><ele>376.97</ele><time>2016-10-09T08:23:54Z</time></trkpt><trkpt lat="49.671997" lon="5.769923"><ele>376.01</ele><time>2016-10-09T08:24:00Z</time></trkpt><trkpt lat="49.671999" lon="5.769861"><ele>376.01</ele><time>2016-10-09T08:24:01Z</time></trkpt><trkpt lat="49.671994" lon="5.769794"><ele>376.49</ele><time>2016-10-09T08:24:02Z</time></trkpt><trkpt lat="49.671971" lon="5.769597"><ele>375.53</ele><time>2016-10-09T08:24:05Z</time></trkpt><trkpt lat="49.671941" lon="5.769116"><ele>377.45</ele><time>2016-10-09T08:24:13Z</time></trkpt><trkpt lat="49.672081" lon="5.769180"><ele>377.94</ele><time>2016-10-09T08:24:18Z</time></trkpt><trkpt lat="49.672401" lon="5.769841"><ele>380.82</ele><time>2016-10-09T08:24:33Z</time></trkpt><trkpt lat="49.672844" lon="5.770407"><ele>382.74</ele><time>2016-10-09T08:24:48Z</time></trkpt><trkpt lat="49.673179" lon="5.770704"><ele>383.22</ele><time>2016-10-09T08:24:57Z</time></trkpt><trkpt lat="49.673221" lon="5.770735"><ele>383.70</ele><time>2016-10-09T08:24:58Z</time></trkpt><trkpt lat="49.673261" lon="5.770770"><ele>384.18</ele><time>2016-10-09T08:24:59Z</time></trkpt><trkpt lat="49.673707" lon="5.771128"><ele>384.66</ele><time>2016-10-09T08:25:10Z</time></trkpt><trkpt lat="49.674412" lon="5.771694"><ele>382.26</ele><time>2016-10-09T08:25:25Z</time></trkpt><trkpt lat="49.674422" lon="5.771714"><ele>382.26</ele><time>2016-10-09T08:25:26Z</time></trkpt><trkpt lat="49.674447" lon="5.771743"><ele>381.78</ele><time>2016-10-09T08:25:29Z</time></trkpt><trkpt lat="49.674467" lon="5.771743"><ele>382.26</ele><time>2016-10-09T08:25:30Z</time></trkpt><trkpt lat="49.674422" lon="5.771678"><ele>382.26</ele><time>2016-10-09T08:25:36Z</time></trkpt><trkpt lat="49.674414" lon="5.771734"><ele>382.26</ele><time>2016-10-09T08:25:38Z</time></trkpt><trkpt lat="49.674413" lon="5.771774"><ele>382.26</ele><time>2016-10-09T08:25:44Z</time></trkpt><trkpt lat="49.674425" lon="5.771773"><ele>381.78</ele><time>2016-10-09T08:25:55Z</time></trkpt><trkpt lat="49.674425" lon="5.771773"><ele>382.26</ele><time>2016-10-09T08:26:29Z</time></trkpt><trkpt lat="49.674506" lon="5.771790"><ele>381.78</ele><time>2016-10-09T08:26:34Z</time></trkpt><trkpt lat="49.675095" lon="5.771939"><ele>379.38</ele><time>2016-10-09T08:26:46Z</time></trkpt><trkpt lat="49.675607" lon="5.772054"><ele>377.45</ele><time>2016-10-09T08:26:57Z</time></trkpt><trkpt lat="49.675627" lon="5.772057"><ele>377.45</ele><time>2016-10-09T08:26:58Z</time></trkpt><trkpt lat="49.675647" lon="5.772064"><ele>377.45</ele><time>2016-10-09T08:26:59Z</time></trkpt><trkpt lat="49.675662" lon="5.772083"><ele>376.97</ele><time>2016-10-09T08:27:00Z</time></trkpt><trkpt lat="49.675661" lon="5.772161"><ele>376.97</ele><time>2016-10-09T08:27:03Z</time></trkpt><trkpt lat="49.675655" lon="5.772300"><ele>377.45</ele><time>2016-10-09T08:27:08Z</time></trkpt><trkpt lat="49.675855" lon="5.772744"><ele>378.42</ele><time>2016-10-09T08:27:19Z</time></trkpt><trkpt lat="49.675874" lon="5.772800"><ele>378.42</ele><time>2016-10-09T08:27:20Z</time></trkpt><trkpt lat="49.675978" lon="5.773043"><ele>377.94</ele><time>2016-10-09T08:27:24Z</time></trkpt><trkpt lat="49.676099" lon="5.773355"><ele>377.94</ele><time>2016-10-09T08:27:29Z</time></trkpt><trkpt lat="49.676156" lon="5.773568"><ele>377.45</ele><time>2016-10-09T08:27:32Z</time></trkpt><trkpt lat="49.676157" lon="5.774119"><ele>378.90</ele><time>2016-10-09T08:27:41Z</time></trkpt><trkpt lat="49.676130" lon="5.774154"><ele>378.90</ele><time>2016-10-09T08:27:42Z</time></trkpt><trkpt lat="49.675822" lon="5.774406"><ele>380.34</ele><time>2016-10-09T08:27:52Z</time></trkpt><trkpt lat="49.675768" lon="5.774632"><ele>380.34</ele><time>2016-10-09T08:27:56Z</time></trkpt><trkpt lat="49.675765" lon="5.774909"><ele>380.82</ele><time>2016-10-09T08:28:00Z</time></trkpt><trkpt lat="49.675713" lon="5.775098"><ele>380.82</ele><time>2016-10-09T08:28:03Z</time></trkpt><trkpt lat="49.675652" lon="5.775350"><ele>381.78</ele><time>2016-10-09T08:28:07Z</time></trkpt><trkpt lat="49.675634" lon="5.775480"><ele>381.78</ele><time>2016-10-09T08:28:09Z</time></trkpt><trkpt lat="49.675470" lon="5.776344"><ele>381.78</ele><time>2016-10-09T08:28:23Z</time></trkpt><trkpt lat="49.675422" lon="5.776529"><ele>381.78</ele><time>2016-10-09T08:28:27Z</time></trkpt><trkpt lat="49.675418" lon="5.776620"><ele>381.78</ele><time>2016-10-09T08:28:37Z</time></trkpt><trkpt lat="49.675336" lon="5.776381"><ele>382.26</ele><time>2016-10-09T08:28:47Z</time></trkpt><trkpt lat="49.675293" lon="5.776346"><ele>382.74</ele><time>2016-10-09T08:28:49Z</time></trkpt><trkpt lat="49.675259" lon="5.776282"><ele>383.22</ele><time>2016-10-09T08:28:52Z</time></trkpt><trkpt lat="49.675211" lon="5.776190"><ele>383.22</ele><time>2016-10-09T08:29:04Z</time></trkpt><trkpt lat="49.675177" lon="5.776188"><ele>384.18</ele><time>2016-10-09T08:29:09Z</time></trkpt><trkpt lat="49.675138" lon="5.776188"><ele>384.18</ele><time>2016-10-09T08:29:12Z</time></trkpt><trkpt lat="49.675050" lon="5.776047"><ele>385.15</ele><time>2016-10-09T08:29:19Z</time></trkpt><trkpt lat="49.674906" lon="5.775985"><ele>387.07</ele><time>2016-10-09T08:29:26Z</time></trkpt><trkpt lat="49.674806" lon="5.775904"><ele>387.55</ele><time>2016-10-09T08:29:32Z</time></trkpt><trkpt lat="49.674768" lon="5.775816"><ele>388.03</ele><time>2016-10-09T08:29:36Z</time></trkpt><trkpt lat="49.674667" lon="5.775492"><ele>388.99</ele><time>2016-10-09T08:29:45Z</time></trkpt><trkpt lat="49.674651" lon="5.775415"><ele>388.99</ele><time>2016-10-09T08:29:47Z</time></trkpt><trkpt lat="49.674635" lon="5.775240"><ele>388.99</ele><time>2016-10-09T08:29:51Z</time></trkpt><trkpt lat="49.674552" lon="5.775063"><ele>388.51</ele><time>2016-10-09T08:29:55Z</time></trkpt><trkpt lat="49.674420" lon="5.774803"><ele>388.03</ele><time>2016-10-09T08:30:04Z</time></trkpt><trkpt lat="49.674421" lon="5.774644"><ele>387.07</ele><time>2016-10-09T08:30:07Z</time></trkpt><trkpt lat="49.674402" lon="5.774577"><ele>386.59</ele><time>2016-10-09T08:30:08Z</time></trkpt><trkpt lat="49.674352" lon="5.774334"><ele>385.15</ele><time>2016-10-09T08:30:12Z</time></trkpt><trkpt lat="49.674342" lon="5.774161"><ele>383.22</ele><time>2016-10-09T08:30:16Z</time></trkpt><trkpt lat="49.674317" lon="5.774051"><ele>381.30</ele><time>2016-10-09T08:30:19Z</time></trkpt><trkpt lat="49.674306" lon="5.773928"><ele>379.86</ele><time>2016-10-09T08:30:22Z</time></trkpt><trkpt lat="49.674320" lon="5.773708"><ele>378.90</ele><time>2016-10-09T08:30:27Z</time></trkpt><trkpt lat="49.674329" lon="5.773413"><ele>378.42</ele><time>2016-10-09T08:30:32Z</time></trkpt><trkpt lat="49.674372" lon="5.773236"><ele>377.45</ele><time>2016-10-09T08:30:37Z</time></trkpt><trkpt lat="49.674388" lon="5.773015"><ele>376.97</ele><time>2016-10-09T08:30:44Z</time></trkpt><trkpt lat="49.674343" lon="5.772943"><ele>376.49</ele><time>2016-10-09T08:30:52Z</time></trkpt><trkpt lat="49.674239" lon="5.772914"><ele>376.97</ele><time>2016-10-09T08:31:03Z</time></trkpt><trkpt lat="49.674175" lon="5.772886"><ele>376.97</ele><time>2016-10-09T08:31:11Z</time></trkpt><trkpt lat="49.674100" lon="5.772989"><ele>377.94</ele><time>2016-10-09T08:31:19Z</time></trkpt><trkpt lat="49.674086" lon="5.773024"><ele>377.94</ele><time>2016-10-09T08:31:21Z</time></trkpt><trkpt lat="49.673980" lon="5.773124"><ele>379.86</ele><time>2016-10-09T08:31:31Z</time></trkpt><trkpt lat="49.673858" lon="5.773193"><ele>382.26</ele><time>2016-10-09T08:31:41Z</time></trkpt><trkpt lat="49.673731" lon="5.773316"><ele>383.22</ele><time>2016-10-09T08:31:51Z</time></trkpt><trkpt lat="49.673626" lon="5.773580"><ele>383.22</ele><time>2016-10-09T08:32:00Z</time></trkpt><trkpt lat="49.673607" lon="5.773678"><ele>384.18</ele><time>2016-10-09T08:32:02Z</time></trkpt><trkpt lat="49.673535" lon="5.773795"><ele>379.38</ele><time>2016-10-09T08:32:13Z</time></trkpt><trkpt lat="49.673535" lon="5.773795"><ele>384.18</ele><time>2016-10-09T08:32:14Z</time></trkpt><trkpt lat="49.673507" lon="5.773889"><ele>385.63</ele><time>2016-10-09T08:32:52Z</time></trkpt><trkpt lat="49.673501" lon="5.773917"><ele>385.63</ele><time>2016-10-09T08:32:57Z</time></trkpt><trkpt lat="49.673446" lon="5.774133"><ele>387.07</ele><time>2016-10-09T08:33:10Z</time></trkpt><trkpt lat="49.673406" lon="5.774279"><ele>388.51</ele><time>2016-10-09T08:33:23Z</time></trkpt><trkpt lat="49.673401" lon="5.774299"><ele>388.03</ele><time>2016-10-09T08:33:24Z</time></trkpt><trkpt lat="49.673390" lon="5.774392"><ele>388.51</ele><time>2016-10-09T08:33:27Z</time></trkpt><trkpt lat="49.673450" lon="5.774616"><ele>388.51</ele><time>2016-10-09T08:33:35Z</time></trkpt><trkpt lat="49.673476" lon="5.774694"><ele>385.63</ele><time>2016-10-09T08:33:39Z</time></trkpt><trkpt lat="49.673617" lon="5.774876"><ele>388.51</ele><time>2016-10-09T08:33:44Z</time></trkpt><trkpt lat="49.673637" lon="5.774937"><ele>388.51</ele><time>2016-10-09T08:33:46Z</time></trkpt><trkpt lat="49.673571" lon="5.774991"><ele>389.47</ele><time>2016-10-09T08:33:55Z</time></trkpt><trkpt lat="49.673531" lon="5.775017"><ele>388.99</ele><time>2016-10-09T08:33:57Z</time></trkpt><trkpt lat="49.673416" lon="5.775115"><ele>388.99</ele><time>2016-10-09T08:34:04Z</time></trkpt><trkpt lat="49.673288" lon="5.775288"><ele>389.47</ele><time>2016-10-09T08:34:12Z</time></trkpt><trkpt lat="49.673149" lon="5.775594"><ele>390.91</ele><time>2016-10-09T08:34:22Z</time></trkpt><trkpt lat="49.673137" lon="5.775770"><ele>391.87</ele><time>2016-10-09T08:34:27Z</time></trkpt><trkpt lat="49.673116" lon="5.775986"><ele>391.87</ele><time>2016-10-09T08:34:32Z</time></trkpt><trkpt lat="49.673223" lon="5.776395"><ele>390.91</ele><time>2016-10-09T08:34:39Z</time></trkpt><trkpt lat="49.673366" lon="5.776958"><ele>390.43</ele><time>2016-10-09T08:34:48Z</time></trkpt><trkpt lat="49.673397" lon="5.776997"><ele>390.43</ele><time>2016-10-09T08:34:49Z</time></trkpt><trkpt lat="49.673478" lon="5.777068"><ele>390.43</ele><time>2016-10-09T08:34:51Z</time></trkpt><trkpt lat="49.673658" lon="5.777179"><ele>388.99</ele><time>2016-10-09T08:34:55Z</time></trkpt><trkpt lat="49.673901" lon="5.777394"><ele>387.07</ele><time>2016-10-09T08:35:01Z</time></trkpt><trkpt lat="49.674092" lon="5.777572"><ele>385.63</ele><time>2016-10-09T08:35:05Z</time></trkpt><trkpt lat="49.674259" lon="5.777689"><ele>385.15</ele><time>2016-10-09T08:35:08Z</time></trkpt><trkpt lat="49.674702" lon="5.777664"><ele>382.74</ele><time>2016-10-09T08:35:16Z</time></trkpt><trkpt lat="49.674919" lon="5.777667"><ele>382.74</ele><time>2016-10-09T08:35:20Z</time></trkpt><trkpt lat="49.675337" lon="5.777872"><ele>381.30</ele><time>2016-10-09T08:35:28Z</time></trkpt><trkpt lat="49.675544" lon="5.778144"><ele>380.82</ele><time>2016-10-09T08:35:34Z</time></trkpt><trkpt lat="49.675758" lon="5.778277"><ele>380.82</ele><time>2016-10-09T08:35:40Z</time></trkpt><trkpt lat="49.675931" lon="5.778328"><ele>380.82</ele><time>2016-10-09T08:35:45Z</time></trkpt><trkpt lat="49.676024" lon="5.778369"><ele>380.34</ele><time>2016-10-09T08:35:51Z</time></trkpt><trkpt lat="49.676206" lon="5.778527"><ele>380.82</ele><time>2016-10-09T08:36:00Z</time></trkpt><trkpt lat="49.676228" lon="5.778604"><ele>380.82</ele><time>2016-10-09T08:36:02Z</time></trkpt><trkpt lat="49.676245" lon="5.778812"><ele>381.30</ele><time>2016-10-09T08:36:06Z</time></trkpt><trkpt lat="49.676266" lon="5.779023"><ele>381.30</ele><time>2016-10-09T08:36:10Z</time></trkpt><trkpt lat="49.676352" lon="5.779115"><ele>383.22</ele><time>2016-10-09T08:36:16Z</time></trkpt><trkpt lat="49.676411" lon="5.779193"><ele>384.18</ele><time>2016-10-09T08:36:21Z</time></trkpt><trkpt lat="49.676526" lon="5.779255"><ele>385.63</ele><time>2016-10-09T08:36:28Z</time></trkpt><trkpt lat="49.676658" lon="5.779243"><ele>388.51</ele><time>2016-10-09T08:36:37Z</time></trkpt><trkpt lat="49.676702" lon="5.779267"><ele>388.99</ele><time>2016-10-09T08:36:47Z</time></trkpt><trkpt lat="49.676702" lon="5.779267"><ele>389.47</ele><time>2016-10-09T08:36:48Z</time></trkpt><trkpt lat="49.676888" lon="5.779397"><ele>390.43</ele><time>2016-10-09T08:36:58Z</time></trkpt><trkpt lat="49.677050" lon="5.779383"><ele>389.95</ele><time>2016-10-09T08:37:10Z</time></trkpt><trkpt lat="49.677077" lon="5.779307"><ele>389.47</ele><time>2016-10-09T08:37:15Z</time></trkpt><trkpt lat="49.677145" lon="5.779277"><ele>389.95</ele><time>2016-10-09T08:37:21Z</time></trkpt><trkpt lat="49.677229" lon="5.779285"><ele>389.95</ele><time>2016-10-09T08:37:25Z</time></trkpt><trkpt lat="49.677322" lon="5.779285"><ele>389.95</ele><time>2016-10-09T08:37:30Z</time></trkpt><trkpt lat="49.677345" lon="5.779267"><ele>389.47</ele><time>2016-10-09T08:37:32Z</time></trkpt><trkpt lat="49.677473" lon="5.779218"><ele>386.59</ele><time>2016-10-09T08:37:41Z</time></trkpt><trkpt lat="49.677492" lon="5.779205"><ele>386.11</ele><time>2016-10-09T08:37:42Z</time></trkpt><trkpt lat="49.677571" lon="5.779203"><ele>384.18</ele><time>2016-10-09T08:37:45Z</time></trkpt><trkpt lat="49.677700" lon="5.779171"><ele>383.70</ele><time>2016-10-09T08:37:49Z</time></trkpt><trkpt lat="49.677830" lon="5.778872"><ele>382.74</ele><time>2016-10-09T08:38:00Z</time></trkpt><trkpt lat="49.677618" lon="5.778700"><ele>382.74</ele><time>2016-10-09T08:38:09Z</time></trkpt><trkpt lat="49.677538" lon="5.778645"><ele>384.18</ele><time>2016-10-09T08:38:12Z</time></trkpt><trkpt lat="49.677435" lon="5.778543"><ele>385.15</ele><time>2016-10-09T08:38:17Z</time></trkpt><trkpt lat="49.677378" lon="5.778520"><ele>385.63</ele><time>2016-10-09T08:38:19Z</time></trkpt><trkpt lat="49.677130" lon="5.778315"><ele>384.18</ele><time>2016-10-09T08:38:28Z</time></trkpt><trkpt lat="49.676681" lon="5.778225"><ele>382.26</ele><time>2016-10-09T08:38:38Z</time></trkpt><trkpt lat="49.676540" lon="5.778241"><ele>381.30</ele><time>2016-10-09T08:38:42Z</time></trkpt><trkpt lat="49.676541" lon="5.778097"><ele>380.34</ele><time>2016-10-09T08:38:47Z</time></trkpt><trkpt lat="49.676572" lon="5.777763"><ele>379.38</ele><time>2016-10-09T08:38:53Z</time></trkpt><trkpt lat="49.676609" lon="5.777590"><ele>378.90</ele><time>2016-10-09T08:38:56Z</time></trkpt><trkpt lat="49.676867" lon="5.777531"><ele>379.38</ele><time>2016-10-09T08:39:07Z</time></trkpt><trkpt lat="49.677103" lon="5.777489"><ele>379.86</ele><time>2016-10-09T08:39:16Z</time></trkpt><trkpt lat="49.677227" lon="5.777511"><ele>379.38</ele><time>2016-10-09T08:39:20Z</time></trkpt><trkpt lat="49.677291" lon="5.777514"><ele>379.38</ele><time>2016-10-09T08:39:22Z</time></trkpt><trkpt lat="49.677387" lon="5.777531"><ele>378.90</ele><time>2016-10-09T08:39:26Z</time></trkpt><trkpt lat="49.677544" lon="5.777607"><ele>378.90</ele><time>2016-10-09T08:39:31Z</time></trkpt><trkpt lat="49.677633" lon="5.777425"><ele>377.94</ele><time>2016-10-09T08:39:42Z</time></trkpt><trkpt lat="49.677698" lon="5.777418"><ele>377.45</ele><time>2016-10-09T08:40:09Z</time></trkpt><trkpt lat="49.677697" lon="5.777410"><ele>377.45</ele><time>2016-10-09T08:40:10Z</time></trkpt><trkpt lat="49.677705" lon="5.777251"><ele>377.45</ele><time>2016-10-09T08:40:15Z</time></trkpt><trkpt lat="49.677843" lon="5.776682"><ele>377.45</ele><time>2016-10-09T08:40:25Z</time></trkpt><trkpt lat="49.677887" lon="5.776560"><ele>376.97</ele><time>2016-10-09T08:40:29Z</time></trkpt><trkpt lat="49.677873" lon="5.776241"><ele>376.97</ele><time>2016-10-09T08:40:34Z</time></trkpt><trkpt lat="49.677925" lon="5.776150"><ele>376.97</ele><time>2016-10-09T08:40:37Z</time></trkpt><trkpt lat="49.678090" lon="5.775974"><ele>378.90</ele><time>2016-10-09T08:40:46Z</time></trkpt><trkpt lat="49.678160" lon="5.775916"><ele>379.86</ele><time>2016-10-09T08:40:51Z</time></trkpt><trkpt lat="49.678220" lon="5.775912"><ele>380.34</ele><time>2016-10-09T08:40:55Z</time></trkpt><trkpt lat="49.678316" lon="5.775919"><ele>380.82</ele><time>2016-10-09T08:41:00Z</time></trkpt><trkpt lat="49.678545" lon="5.776020"><ele>382.26</ele><time>2016-10-09T08:41:11Z</time></trkpt><trkpt lat="49.678723" lon="5.776080"><ele>383.70</ele><time>2016-10-09T08:41:20Z</time></trkpt><trkpt lat="49.678752" lon="5.776079"><ele>384.18</ele><time>2016-10-09T08:41:22Z</time></trkpt><trkpt lat="49.678859" lon="5.776181"><ele>385.15</ele><time>2016-10-09T08:41:27Z</time></trkpt><trkpt lat="49.679117" lon="5.776467"><ele>385.15</ele><time>2016-10-09T08:41:37Z</time></trkpt><trkpt lat="49.679355" lon="5.776614"><ele>383.70</ele><time>2016-10-09T08:41:45Z</time></trkpt><trkpt lat="49.679476" lon="5.776780"><ele>382.74</ele><time>2016-10-09T08:41:54Z</time></trkpt><trkpt lat="49.679513" lon="5.776856"><ele>381.78</ele><time>2016-10-09T08:41:56Z</time></trkpt><trkpt lat="49.679788" lon="5.777007"><ele>381.30</ele><time>2016-10-09T08:42:04Z</time></trkpt><trkpt lat="49.679849" lon="5.777174"><ele>381.30</ele><time>2016-10-09T08:42:08Z</time></trkpt><trkpt lat="49.679816" lon="5.777766"><ele>381.78</ele><time>2016-10-09T08:42:19Z</time></trkpt><trkpt lat="49.679784" lon="5.778476"><ele>382.74</ele><time>2016-10-09T08:42:32Z</time></trkpt><trkpt lat="49.679568" lon="5.779205"><ele>383.70</ele><time>2016-10-09T08:42:46Z</time></trkpt><trkpt lat="49.679453" lon="5.779502"><ele>384.18</ele><time>2016-10-09T08:42:55Z</time></trkpt><trkpt lat="49.679465" lon="5.779565"><ele>384.66</ele><time>2016-10-09T08:43:00Z</time></trkpt><trkpt lat="49.679483" lon="5.779586"><ele>385.15</ele><time>2016-10-09T08:43:02Z</time></trkpt><trkpt lat="49.679577" lon="5.779825"><ele>388.03</ele><time>2016-10-09T08:43:12Z</time></trkpt><trkpt lat="49.679574" lon="5.779995"><ele>388.03</ele><time>2016-10-09T08:43:18Z</time></trkpt><trkpt lat="49.679764" lon="5.780273"><ele>389.95</ele><time>2016-10-09T08:43:30Z</time></trkpt><trkpt lat="49.679958" lon="5.780446"><ele>392.36</ele><time>2016-10-09T08:43:41Z</time></trkpt><trkpt lat="49.680050" lon="5.780600"><ele>393.80</ele><time>2016-10-09T08:43:47Z</time></trkpt><trkpt lat="49.680162" lon="5.780568"><ele>393.32</ele><time>2016-10-09T08:43:53Z</time></trkpt><trkpt lat="49.680260" lon="5.780630"><ele>392.84</ele><time>2016-10-09T08:43:58Z</time></trkpt><trkpt lat="49.680494" lon="5.780688"><ele>391.39</ele><time>2016-10-09T08:44:07Z</time></trkpt><trkpt lat="49.680538" lon="5.780722"><ele>391.87</ele><time>2016-10-09T08:44:09Z</time></trkpt><trkpt lat="49.680636" lon="5.780761"><ele>390.91</ele><time>2016-10-09T08:44:15Z</time></trkpt><trkpt lat="49.680729" lon="5.780802"><ele>389.95</ele><time>2016-10-09T08:44:20Z</time></trkpt><trkpt lat="49.680801" lon="5.780919"><ele>389.95</ele><time>2016-10-09T08:44:24Z</time></trkpt><trkpt lat="49.680930" lon="5.781097"><ele>389.95</ele><time>2016-10-09T08:44:30Z</time></trkpt><trkpt lat="49.681004" lon="5.781435"><ele>389.47</ele><time>2016-10-09T08:44:42Z</time></trkpt><trkpt lat="49.680998" lon="5.781454"><ele>389.47</ele><time>2016-10-09T08:44:43Z</time></trkpt><trkpt lat="49.681048" lon="5.781573"><ele>389.95</ele><time>2016-10-09T08:44:47Z</time></trkpt><trkpt lat="49.681044" lon="5.781676"><ele>389.95</ele><time>2016-10-09T08:44:51Z</time></trkpt><trkpt lat="49.680959" lon="5.781800"><ele>390.91</ele><time>2016-10-09T08:44:57Z</time></trkpt><trkpt lat="49.680791" lon="5.781886"><ele>391.87</ele><time>2016-10-09T08:45:06Z</time></trkpt><trkpt lat="49.680562" lon="5.781787"><ele>392.84</ele><time>2016-10-09T08:45:16Z</time></trkpt><trkpt lat="49.680361" lon="5.781655"><ele>393.80</ele><time>2016-10-09T08:45:26Z</time></trkpt><trkpt lat="49.680283" lon="5.781596"><ele>394.76</ele><time>2016-10-09T08:45:30Z</time></trkpt><trkpt lat="49.680181" lon="5.781549"><ele>394.28</ele><time>2016-10-09T08:45:34Z</time></trkpt><trkpt lat="49.679933" lon="5.781273"><ele>394.76</ele><time>2016-10-09T08:45:45Z</time></trkpt><trkpt lat="49.679608" lon="5.781203"><ele>394.76</ele><time>2016-10-09T08:45:56Z</time></trkpt><trkpt lat="49.679376" lon="5.781152"><ele>393.80</ele><time>2016-10-09T08:46:04Z</time></trkpt><trkpt lat="49.679125" lon="5.781227"><ele>393.80</ele><time>2016-10-09T08:46:13Z</time></trkpt><trkpt lat="49.679024" lon="5.781236"><ele>392.84</ele><time>2016-10-09T08:46:17Z</time></trkpt><trkpt lat="49.678989" lon="5.781261"><ele>391.87</ele><time>2016-10-09T08:46:20Z</time></trkpt><trkpt lat="49.678926" lon="5.781329"><ele>391.39</ele><time>2016-10-09T08:46:25Z</time></trkpt><trkpt lat="49.678822" lon="5.781456"><ele>389.95</ele><time>2016-10-09T08:46:30Z</time></trkpt><trkpt lat="49.678545" lon="5.781921"><ele>389.95</ele><time>2016-10-09T08:46:41Z</time></trkpt><trkpt lat="49.678326" lon="5.782340"><ele>390.43</ele><time>2016-10-09T08:46:51Z</time></trkpt><trkpt lat="49.678526" lon="5.782662"><ele>388.51</ele><time>2016-10-09T08:47:01Z</time></trkpt><trkpt lat="49.678545" lon="5.782705"><ele>387.55</ele><time>2016-10-09T08:47:02Z</time></trkpt><trkpt lat="49.678453" lon="5.782952"><ele>388.03</ele><time>2016-10-09T08:47:11Z</time></trkpt><trkpt lat="49.678406" lon="5.782978"><ele>388.03</ele><time>2016-10-09T08:47:13Z</time></trkpt><trkpt lat="49.678339" lon="5.783014"><ele>388.99</ele><time>2016-10-09T08:47:17Z</time></trkpt><trkpt lat="49.678207" lon="5.783180"><ele>390.43</ele><time>2016-10-09T08:47:25Z</time></trkpt><trkpt lat="49.678138" lon="5.783721"><ele>390.43</ele><time>2016-10-09T08:47:36Z</time></trkpt><trkpt lat="49.678098" lon="5.783977"><ele>389.95</ele><time>2016-10-09T08:47:41Z</time></trkpt><trkpt lat="49.678170" lon="5.784202"><ele>387.55</ele><time>2016-10-09T08:47:47Z</time></trkpt><trkpt lat="49.678394" lon="5.784618"><ele>385.63</ele><time>2016-10-09T08:47:58Z</time></trkpt><trkpt lat="49.678548" lon="5.785007"><ele>384.18</ele><time>2016-10-09T08:48:07Z</time></trkpt><trkpt lat="49.678746" lon="5.785462"><ele>382.74</ele><time>2016-10-09T08:48:16Z</time></trkpt><trkpt lat="49.678863" lon="5.785650"><ele>380.34</ele><time>2016-10-09T08:48:23Z</time></trkpt><trkpt lat="49.679042" lon="5.785788"><ele>377.94</ele><time>2016-10-09T08:48:29Z</time></trkpt><trkpt lat="49.679074" lon="5.785832"><ele>377.45</ele><time>2016-10-09T08:48:30Z</time></trkpt><trkpt lat="49.679212" lon="5.786261"><ele>376.97</ele><time>2016-10-09T08:48:39Z</time></trkpt><trkpt lat="49.679193" lon="5.786409"><ele>375.53</ele><time>2016-10-09T08:48:42Z</time></trkpt><trkpt lat="49.679176" lon="5.786574"><ele>375.53</ele><time>2016-10-09T08:48:46Z</time></trkpt><trkpt lat="49.679115" lon="5.786805"><ele>375.05</ele><time>2016-10-09T08:48:52Z</time></trkpt><trkpt lat="49.679073" lon="5.786856"><ele>375.05</ele><time>2016-10-09T08:48:54Z</time></trkpt><trkpt lat="49.678957" lon="5.787221"><ele>374.57</ele><time>2016-10-09T08:49:03Z</time></trkpt><trkpt lat="49.678918" lon="5.787303"><ele>374.09</ele><time>2016-10-09T08:49:06Z</time></trkpt><trkpt lat="49.678863" lon="5.787365"><ele>374.09</ele><time>2016-10-09T08:49:09Z</time></trkpt><trkpt lat="49.678894" lon="5.787561"><ele>373.61</ele><time>2016-10-09T08:49:16Z</time></trkpt><trkpt lat="49.679010" lon="5.787735"><ele>372.65</ele><time>2016-10-09T08:49:21Z</time></trkpt><trkpt lat="49.679256" lon="5.788199"><ele>371.69</ele><time>2016-10-09T08:49:31Z</time></trkpt><trkpt lat="49.679399" lon="5.788449"><ele>371.69</ele><time>2016-10-09T08:49:38Z</time></trkpt><trkpt lat="49.679448" lon="5.788491"><ele>372.17</ele><time>2016-10-09T08:49:40Z</time></trkpt><trkpt lat="49.679801" lon="5.788265"><ele>371.69</ele><time>2016-10-09T08:49:50Z</time></trkpt><trkpt lat="49.679833" lon="5.788235"><ele>371.69</ele><time>2016-10-09T08:49:51Z</time></trkpt><trkpt lat="49.680113" lon="5.788374"><ele>372.17</ele><time>2016-10-09T08:50:00Z</time></trkpt><trkpt lat="49.680362" lon="5.788859"><ele>371.69</ele><time>2016-10-09T08:50:10Z</time></trkpt><trkpt lat="49.680511" lon="5.789360"><ele>371.21</ele><time>2016-10-09T08:50:20Z</time></trkpt><trkpt lat="49.680531" lon="5.789860"><ele>371.21</ele><time>2016-10-09T08:50:30Z</time></trkpt><trkpt lat="49.680532" lon="5.789912"><ele>371.21</ele><time>2016-10-09T08:50:31Z</time></trkpt><trkpt lat="49.680576" lon="5.790097"><ele>371.21</ele><time>2016-10-09T08:50:35Z</time></trkpt><trkpt lat="49.680837" lon="5.790240"><ele>370.24</ele><time>2016-10-09T08:50:46Z</time></trkpt><trkpt lat="49.680874" lon="5.790269"><ele>369.76</ele><time>2016-10-09T08:50:48Z</time></trkpt><trkpt lat="49.680899" lon="5.790303"><ele>368.32</ele><time>2016-10-09T08:50:51Z</time></trkpt><trkpt lat="49.681006" lon="5.790118"><ele>368.80</ele><time>2016-10-09T08:50:57Z</time></trkpt><trkpt lat="49.681077" lon="5.789950"><ele>369.28</ele><time>2016-10-09T08:51:02Z</time></trkpt><trkpt lat="49.680961" lon="5.789500"><ele>370.24</ele><time>2016-10-09T08:51:12Z</time></trkpt><trkpt lat="49.680940" lon="5.789318"><ele>370.73</ele><time>2016-10-09T08:51:16Z</time></trkpt><trkpt lat="49.680919" lon="5.789021"><ele>372.17</ele><time>2016-10-09T08:51:25Z</time></trkpt><trkpt lat="49.680930" lon="5.788992"><ele>372.17</ele><time>2016-10-09T08:51:26Z</time></trkpt><trkpt lat="49.681051" lon="5.788723"><ele>372.65</ele><time>2016-10-09T08:51:33Z</time></trkpt><trkpt lat="49.681054" lon="5.788588"><ele>373.61</ele><time>2016-10-09T08:51:37Z</time></trkpt><trkpt lat="49.680789" lon="5.788167"><ele>374.09</ele><time>2016-10-09T08:51:48Z</time></trkpt><trkpt lat="49.680514" lon="5.787761"><ele>375.05</ele><time>2016-10-09T08:51:59Z</time></trkpt><trkpt lat="49.680317" lon="5.787434"><ele>374.09</ele><time>2016-10-09T08:52:07Z</time></trkpt><trkpt lat="49.680347" lon="5.787250"><ele>374.09</ele><time>2016-10-09T08:52:11Z</time></trkpt><trkpt lat="49.680439" lon="5.787137"><ele>374.57</ele><time>2016-10-09T08:52:16Z</time></trkpt><trkpt lat="49.680619" lon="5.787106"><ele>376.01</ele><time>2016-10-09T08:52:24Z</time></trkpt><trkpt lat="49.680732" lon="5.787237"><ele>376.97</ele><time>2016-10-09T08:52:28Z</time></trkpt><trkpt lat="49.680861" lon="5.787517"><ele>376.97</ele><time>2016-10-09T08:52:35Z</time></trkpt><trkpt lat="49.680942" lon="5.787692"><ele>376.49</ele><time>2016-10-09T08:52:39Z</time></trkpt><trkpt lat="49.681105" lon="5.788034"><ele>375.53</ele><time>2016-10-09T08:52:47Z</time></trkpt><trkpt lat="49.681226" lon="5.788191"><ele>375.53</ele><time>2016-10-09T08:52:51Z</time></trkpt><trkpt lat="49.681339" lon="5.788383"><ele>375.05</ele><time>2016-10-09T08:52:59Z</time></trkpt><trkpt lat="49.681343" lon="5.788437"><ele>374.57</ele><time>2016-10-09T08:53:02Z</time></trkpt><trkpt lat="49.681372" lon="5.788575"><ele>371.69</ele><time>2016-10-09T08:53:10Z</time></trkpt><trkpt lat="49.681387" lon="5.788614"><ele>371.69</ele><time>2016-10-09T08:53:11Z</time></trkpt><trkpt lat="49.681596" lon="5.789002"><ele>371.21</ele><time>2016-10-09T08:53:19Z</time></trkpt><trkpt lat="49.681616" lon="5.789059"><ele>371.21</ele><time>2016-10-09T08:53:20Z</time></trkpt><trkpt lat="49.681637" lon="5.789122"><ele>371.21</ele><time>2016-10-09T08:53:21Z</time></trkpt><trkpt lat="49.681701" lon="5.789257"><ele>370.24</ele><time>2016-10-09T08:53:23Z</time></trkpt><trkpt lat="49.681908" lon="5.789615"><ele>369.76</ele><time>2016-10-09T08:53:28Z</time></trkpt><trkpt lat="49.681974" lon="5.789755"><ele>369.76</ele><time>2016-10-09T08:53:30Z</time></trkpt><trkpt lat="49.682005" lon="5.789818"><ele>369.28</ele><time>2016-10-09T08:53:31Z</time></trkpt><trkpt lat="49.682184" lon="5.790171"><ele>369.28</ele><time>2016-10-09T08:53:36Z</time></trkpt><trkpt lat="49.682316" lon="5.790386"><ele>369.28</ele><time>2016-10-09T08:53:39Z</time></trkpt><trkpt lat="49.682824" lon="5.791188"><ele>368.32</ele><time>2016-10-09T08:53:50Z</time></trkpt><trkpt lat="49.683106" lon="5.791682"><ele>367.36</ele><time>2016-10-09T08:53:58Z</time></trkpt><trkpt lat="49.683263" lon="5.791976"><ele>367.36</ele><time>2016-10-09T08:54:03Z</time></trkpt><trkpt lat="49.683603" lon="5.792627"><ele>366.40</ele><time>2016-10-09T08:54:14Z</time></trkpt><trkpt lat="49.683654" lon="5.792747"><ele>365.92</ele><time>2016-10-09T08:54:16Z</time></trkpt><trkpt lat="49.683681" lon="5.792814"><ele>366.40</ele><time>2016-10-09T08:54:17Z</time></trkpt><trkpt lat="49.683892" lon="5.793473"><ele>365.44</ele><time>2016-10-09T08:54:28Z</time></trkpt><trkpt lat="49.683973" lon="5.793710"><ele>365.44</ele><time>2016-10-09T08:54:31Z</time></trkpt><trkpt lat="49.684052" lon="5.794033"><ele>364.48</ele><time>2016-10-09T08:54:35Z</time></trkpt><trkpt lat="49.684077" lon="5.794111"><ele>364.96</ele><time>2016-10-09T08:54:36Z</time></trkpt><trkpt lat="49.684142" lon="5.794906"><ele>363.52</ele><time>2016-10-09T08:54:46Z</time></trkpt><trkpt lat="49.684166" lon="5.796362"><ele>364.00</ele><time>2016-10-09T08:55:05Z</time></trkpt><trkpt lat="49.684019" lon="5.797366"><ele>364.96</ele><time>2016-10-09T08:55:16Z</time></trkpt><trkpt lat="49.683681" lon="5.798438"><ele>367.84</ele><time>2016-10-09T08:55:29Z</time></trkpt><trkpt lat="49.683276" lon="5.799264"><ele>371.21</ele><time>2016-10-09T08:55:41Z</time></trkpt><trkpt lat="49.682682" lon="5.800418"><ele>374.09</ele><time>2016-10-09T08:55:58Z</time></trkpt><trkpt lat="49.682131" lon="5.801423"><ele>376.01</ele><time>2016-10-09T08:56:13Z</time></trkpt><trkpt lat="49.682092" lon="5.801474"><ele>376.49</ele><time>2016-10-09T08:56:14Z</time></trkpt><trkpt lat="49.682058" lon="5.801527"><ele>376.97</ele><time>2016-10-09T08:56:15Z</time></trkpt><trkpt lat="49.682028" lon="5.801581"><ele>376.97</ele><time>2016-10-09T08:56:16Z</time></trkpt><trkpt lat="49.681991" lon="5.801624"><ele>376.97</ele><time>2016-10-09T08:56:17Z</time></trkpt><trkpt lat="49.681946" lon="5.801648"><ele>376.97</ele><time>2016-10-09T08:56:18Z</time></trkpt><trkpt lat="49.681899" lon="5.801651"><ele>376.97</ele><time>2016-10-09T08:56:19Z</time></trkpt><trkpt lat="49.681848" lon="5.801653"><ele>376.97</ele><time>2016-10-09T08:56:20Z</time></trkpt><trkpt lat="49.681798" lon="5.801674"><ele>376.97</ele><time>2016-10-09T08:56:21Z</time></trkpt><trkpt lat="49.681750" lon="5.801714"><ele>376.49</ele><time>2016-10-09T08:56:22Z</time></trkpt><trkpt lat="49.681703" lon="5.801764"><ele>376.49</ele><time>2016-10-09T08:56:23Z</time></trkpt><trkpt lat="49.681655" lon="5.801819"><ele>376.49</ele><time>2016-10-09T08:56:24Z</time></trkpt><trkpt lat="49.681281" lon="5.802184"><ele>374.57</ele><time>2016-10-09T08:56:31Z</time></trkpt><trkpt lat="49.681245" lon="5.802204"><ele>374.57</ele><time>2016-10-09T08:56:32Z</time></trkpt><trkpt lat="49.681219" lon="5.802212"><ele>374.09</ele><time>2016-10-09T08:56:33Z</time></trkpt><trkpt lat="49.681200" lon="5.802211"><ele>374.57</ele><time>2016-10-09T08:56:34Z</time></trkpt><trkpt lat="49.681190" lon="5.802215"><ele>374.57</ele><time>2016-10-09T08:56:45Z</time></trkpt><trkpt lat="49.681158" lon="5.802167"><ele>374.09</ele><time>2016-10-09T08:56:57Z</time></trkpt><trkpt lat="49.681167" lon="5.802128"><ele>373.61</ele><time>2016-10-09T08:57:09Z</time></trkpt><trkpt lat="49.681166" lon="5.802124"><ele>373.61</ele><time>2016-10-09T08:57:58Z</time></trkpt><trkpt lat="49.681167" lon="5.802123"><ele>374.09</ele><time>2016-10-09T08:59:23Z</time></trkpt><trkpt lat="49.681173" lon="5.802126"><ele>374.57</ele><time>2016-10-09T09:00:43Z</time></trkpt><trkpt lat="49.681165" lon="5.802139"><ele>375.53</ele><time>2016-10-09T09:01:42Z</time></trkpt><trkpt lat="49.681164" lon="5.802142"><ele>375.05</ele><time>2016-10-09T09:02:10Z</time></trkpt><trkpt lat="49.681167" lon="5.802171"><ele>375.05</ele><time>2016-10-09T09:02:28Z</time></trkpt><trkpt lat="49.681172" lon="5.802188"><ele>375.53</ele><time>2016-10-09T09:02:43Z</time></trkpt><trkpt lat="49.681177" lon="5.802202"><ele>375.53</ele><time>2016-10-09T09:03:03Z</time></trkpt><trkpt lat="49.681185" lon="5.802236"><ele>376.01</ele><time>2016-10-09T09:03:05Z</time></trkpt><trkpt lat="49.681182" lon="5.802438"><ele>376.01</ele><time>2016-10-09T09:03:12Z</time></trkpt><trkpt lat="49.681174" lon="5.802463"><ele>376.01</ele><time>2016-10-09T09:03:13Z</time></trkpt><trkpt lat="49.681096" lon="5.802637"><ele>376.49</ele><time>2016-10-09T09:03:20Z</time></trkpt><trkpt lat="49.681089" lon="5.802662"><ele>376.97</ele><time>2016-10-09T09:03:21Z</time></trkpt><trkpt lat="49.681082" lon="5.802688"><ele>376.49</ele><time>2016-10-09T09:03:22Z</time></trkpt><trkpt lat="49.681069" lon="5.802717"><ele>376.97</ele><time>2016-10-09T09:03:23Z</time></trkpt><trkpt lat="49.681057" lon="5.802747"><ele>376.97</ele><time>2016-10-09T09:03:24Z</time></trkpt><trkpt lat="49.681046" lon="5.802776"><ele>377.45</ele><time>2016-10-09T09:03:25Z</time></trkpt><trkpt lat="49.681034" lon="5.802807"><ele>377.45</ele><time>2016-10-09T09:03:26Z</time></trkpt><trkpt lat="49.681024" lon="5.802837"><ele>377.45</ele><time>2016-10-09T09:03:27Z</time></trkpt><trkpt lat="49.681012" lon="5.802867"><ele>377.94</ele><time>2016-10-09T09:03:28Z</time></trkpt><trkpt lat="49.680792" lon="5.803327"><ele>381.30</ele><time>2016-10-09T09:03:38Z</time></trkpt><trkpt lat="49.680584" lon="5.803881"><ele>384.18</ele><time>2016-10-09T09:03:49Z</time></trkpt><trkpt lat="49.680549" lon="5.804048"><ele>384.66</ele><time>2016-10-09T09:03:52Z</time></trkpt><trkpt lat="49.680527" lon="5.804104"><ele>384.66</ele><time>2016-10-09T09:03:53Z</time></trkpt><trkpt lat="49.680499" lon="5.804156"><ele>384.18</ele><time>2016-10-09T09:03:54Z</time></trkpt><trkpt lat="49.680180" lon="5.805036"><ele>384.66</ele><time>2016-10-09T09:04:07Z</time></trkpt><trkpt lat="49.680182" lon="5.805111"><ele>384.66</ele><time>2016-10-09T09:04:08Z</time></trkpt><trkpt lat="49.680191" lon="5.805182"><ele>384.18</ele><time>2016-10-09T09:04:09Z</time></trkpt><trkpt lat="49.680253" lon="5.805518"><ele>385.15</ele><time>2016-10-09T09:04:14Z</time></trkpt><trkpt lat="49.680278" lon="5.805569"><ele>385.63</ele><time>2016-10-09T09:04:15Z</time></trkpt><trkpt lat="49.680311" lon="5.805602"><ele>385.63</ele><time>2016-10-09T09:04:16Z</time></trkpt><trkpt lat="49.680348" lon="5.805613"><ele>385.63</ele><time>2016-10-09T09:04:17Z</time></trkpt><trkpt lat="49.680383" lon="5.805602"><ele>386.11</ele><time>2016-10-09T09:04:18Z</time></trkpt><trkpt lat="49.680415" lon="5.805572"><ele>386.11</ele><time>2016-10-09T09:04:19Z</time></trkpt><trkpt lat="49.680441" lon="5.805531"><ele>386.11</ele><time>2016-10-09T09:04:20Z</time></trkpt><trkpt lat="49.680465" lon="5.805489"><ele>386.59</ele><time>2016-10-09T09:04:21Z</time></trkpt><trkpt lat="49.680495" lon="5.805454"><ele>387.07</ele><time>2016-10-09T09:04:22Z</time></trkpt><trkpt lat="49.680528" lon="5.805433"><ele>387.07</ele><time>2016-10-09T09:04:23Z</time></trkpt><trkpt lat="49.680564" lon="5.805421"><ele>387.07</ele><time>2016-10-09T09:04:24Z</time></trkpt><trkpt lat="49.680600" lon="5.805411"><ele>387.55</ele><time>2016-10-09T09:04:25Z</time></trkpt><trkpt lat="49.680636" lon="5.805406"><ele>388.03</ele><time>2016-10-09T09:04:26Z</time></trkpt><trkpt lat="49.680673" lon="5.805405"><ele>387.55</ele><time>2016-10-09T09:04:27Z</time></trkpt><trkpt lat="49.680710" lon="5.805408"><ele>388.51</ele><time>2016-10-09T09:04:28Z</time></trkpt><trkpt lat="49.680746" lon="5.805412"><ele>388.51</ele><time>2016-10-09T09:04:29Z</time></trkpt><trkpt lat="49.681292" lon="5.805618"><ele>390.91</ele><time>2016-10-09T09:04:44Z</time></trkpt><trkpt lat="49.681382" lon="5.805673"><ele>390.91</ele><time>2016-10-09T09:04:46Z</time></trkpt><trkpt lat="49.681421" lon="5.805719"><ele>390.43</ele><time>2016-10-09T09:04:47Z</time></trkpt><trkpt lat="49.681451" lon="5.805782"><ele>390.91</ele><time>2016-10-09T09:04:48Z</time></trkpt><trkpt lat="49.681477" lon="5.805851"><ele>390.43</ele><time>2016-10-09T09:04:49Z</time></trkpt><trkpt lat="49.681510" lon="5.805916"><ele>390.43</ele><time>2016-10-09T09:04:50Z</time></trkpt><trkpt lat="49.681550" lon="5.805974"><ele>390.43</ele><time>2016-10-09T09:04:51Z</time></trkpt><trkpt lat="49.681595" lon="5.806021"><ele>390.91</ele><time>2016-10-09T09:04:52Z</time></trkpt><trkpt lat="49.681645" lon="5.806053"><ele>389.95</ele><time>2016-10-09T09:04:53Z</time></trkpt><trkpt lat="49.681699" lon="5.806068"><ele>390.43</ele><time>2016-10-09T09:04:54Z</time></trkpt><trkpt lat="49.681756" lon="5.806064"><ele>390.91</ele><time>2016-10-09T09:04:55Z</time></trkpt><trkpt lat="49.681808" lon="5.806044"><ele>391.39</ele><time>2016-10-09T09:04:56Z</time></trkpt><trkpt lat="49.681857" lon="5.806006"><ele>390.91</ele><time>2016-10-09T09:04:57Z</time></trkpt><trkpt lat="49.681896" lon="5.805952"><ele>390.91</ele><time>2016-10-09T09:04:58Z</time></trkpt><trkpt lat="49.681925" lon="5.805886"><ele>390.91</ele><time>2016-10-09T09:04:59Z</time></trkpt><trkpt lat="49.681948" lon="5.805809"><ele>390.91</ele><time>2016-10-09T09:05:00Z</time></trkpt><trkpt lat="49.681975" lon="5.805733"><ele>391.39</ele><time>2016-10-09T09:05:01Z</time></trkpt><trkpt lat="49.682013" lon="5.805667"><ele>391.39</ele><time>2016-10-09T09:05:02Z</time></trkpt><trkpt lat="49.682062" lon="5.805625"><ele>391.39</ele><time>2016-10-09T09:05:03Z</time></trkpt><trkpt lat="49.682115" lon="5.805603"><ele>391.39</ele><time>2016-10-09T09:05:04Z</time></trkpt><trkpt lat="49.682164" lon="5.805588"><ele>391.87</ele><time>2016-10-09T09:05:05Z</time></trkpt><trkpt lat="49.682209" lon="5.805581"><ele>392.84</ele><time>2016-10-09T09:05:06Z</time></trkpt><trkpt lat="49.682249" lon="5.805583"><ele>392.84</ele><time>2016-10-09T09:05:07Z</time></trkpt><trkpt lat="49.682264" lon="5.805557"><ele>393.32</ele><time>2016-10-09T09:05:08Z</time></trkpt><trkpt lat="49.682257" lon="5.805514"><ele>393.32</ele><time>2016-10-09T09:05:09Z</time></trkpt><trkpt lat="49.682231" lon="5.805460"><ele>393.32</ele><time>2016-10-09T09:05:10Z</time></trkpt><trkpt lat="49.682202" lon="5.805401"><ele>393.80</ele><time>2016-10-09T09:05:11Z</time></trkpt><trkpt lat="49.682171" lon="5.805340"><ele>393.32</ele><time>2016-10-09T09:05:12Z</time></trkpt><trkpt lat="49.682113" lon="5.805163"><ele>392.36</ele><time>2016-10-09T09:05:15Z</time></trkpt><trkpt lat="49.682126" lon="5.805101"><ele>392.36</ele><time>2016-10-09T09:05:16Z</time></trkpt><trkpt lat="49.682152" lon="5.805046"><ele>392.36</ele><time>2016-10-09T09:05:17Z</time></trkpt><trkpt lat="49.682189" lon="5.805004"><ele>391.39</ele><time>2016-10-09T09:05:18Z</time></trkpt><trkpt lat="49.682234" lon="5.804972"><ele>391.39</ele><time>2016-10-09T09:05:19Z</time></trkpt><trkpt lat="49.682281" lon="5.804949"><ele>391.39</ele><time>2016-10-09T09:05:20Z</time></trkpt><trkpt lat="49.682327" lon="5.804924"><ele>390.91</ele><time>2016-10-09T09:05:21Z</time></trkpt><trkpt lat="49.682370" lon="5.804892"><ele>390.43</ele><time>2016-10-09T09:05:22Z</time></trkpt><trkpt lat="49.682412" lon="5.804853"><ele>390.43</ele><time>2016-10-09T09:05:23Z</time></trkpt><trkpt lat="49.682453" lon="5.804809"><ele>389.95</ele><time>2016-10-09T09:05:24Z</time></trkpt><trkpt lat="49.682493" lon="5.804767"><ele>389.47</ele><time>2016-10-09T09:05:25Z</time></trkpt><trkpt lat="49.682688" lon="5.804522"><ele>387.07</ele><time>2016-10-09T09:05:29Z</time></trkpt><trkpt lat="49.682793" lon="5.804385"><ele>386.11</ele><time>2016-10-09T09:05:31Z</time></trkpt><trkpt lat="49.682851" lon="5.804315"><ele>385.15</ele><time>2016-10-09T09:05:32Z</time></trkpt><trkpt lat="49.683349" lon="5.803607"><ele>383.70</ele><time>2016-10-09T09:05:43Z</time></trkpt><trkpt lat="49.683616" lon="5.803205"><ele>383.22</ele><time>2016-10-09T09:05:52Z</time></trkpt><trkpt lat="49.683606" lon="5.803087"><ele>383.22</ele><time>2016-10-09T09:05:54Z</time></trkpt><trkpt lat="49.683588" lon="5.803016"><ele>383.22</ele><time>2016-10-09T09:05:55Z</time></trkpt><trkpt lat="49.683420" lon="5.802477"><ele>380.82</ele><time>2016-10-09T09:06:01Z</time></trkpt><trkpt lat="49.683381" lon="5.802386"><ele>380.34</ele><time>2016-10-09T09:06:02Z</time></trkpt><trkpt lat="49.683350" lon="5.802287"><ele>379.86</ele><time>2016-10-09T09:06:03Z</time></trkpt><trkpt lat="49.683203" lon="5.801797"><ele>377.94</ele><time>2016-10-09T09:06:08Z</time></trkpt><trkpt lat="49.683190" lon="5.801707"><ele>377.94</ele><time>2016-10-09T09:06:09Z</time></trkpt><trkpt lat="49.683174" lon="5.801619"><ele>377.45</ele><time>2016-10-09T09:06:10Z</time></trkpt><trkpt lat="49.683154" lon="5.801530"><ele>376.97</ele><time>2016-10-09T09:06:11Z</time></trkpt><trkpt lat="49.683133" lon="5.801443"><ele>376.97</ele><time>2016-10-09T09:06:12Z</time></trkpt><trkpt lat="49.683114" lon="5.801369"><ele>376.97</ele><time>2016-10-09T09:06:13Z</time></trkpt><trkpt lat="49.683107" lon="5.801303"><ele>376.49</ele><time>2016-10-09T09:06:14Z</time></trkpt><trkpt lat="49.683119" lon="5.801244"><ele>376.97</ele><time>2016-10-09T09:06:15Z</time></trkpt><trkpt lat="49.683151" lon="5.801202"><ele>376.49</ele><time>2016-10-09T09:06:16Z</time></trkpt><trkpt lat="49.683192" lon="5.801177"><ele>376.49</ele><time>2016-10-09T09:06:17Z</time></trkpt><trkpt lat="49.683240" lon="5.801156"><ele>376.01</ele><time>2016-10-09T09:06:18Z</time></trkpt><trkpt lat="49.683294" lon="5.801137"><ele>375.53</ele><time>2016-10-09T09:06:19Z</time></trkpt><trkpt lat="49.683341" lon="5.801096"><ele>375.53</ele><time>2016-10-09T09:06:20Z</time></trkpt><trkpt lat="49.683360" lon="5.801024"><ele>375.05</ele><time>2016-10-09T09:06:21Z</time></trkpt><trkpt lat="49.683352" lon="5.800947"><ele>375.05</ele><time>2016-10-09T09:06:22Z</time></trkpt><trkpt lat="49.683342" lon="5.800866"><ele>375.05</ele><time>2016-10-09T09:06:23Z</time></trkpt><trkpt lat="49.683354" lon="5.800792"><ele>374.57</ele><time>2016-10-09T09:06:24Z</time></trkpt><trkpt lat="49.683391" lon="5.800741"><ele>374.57</ele><time>2016-10-09T09:06:25Z</time></trkpt><trkpt lat="49.683443" lon="5.800720"><ele>374.57</ele><time>2016-10-09T09:06:26Z</time></trkpt><trkpt lat="49.683496" lon="5.800709"><ele>374.57</ele><time>2016-10-09T09:06:27Z</time></trkpt><trkpt lat="49.683553" lon="5.800712"><ele>374.57</ele><time>2016-10-09T09:06:28Z</time></trkpt><trkpt lat="49.683611" lon="5.800710"><ele>374.57</ele><time>2016-10-09T09:06:29Z</time></trkpt><trkpt lat="49.683674" lon="5.800684"><ele>374.09</ele><time>2016-10-09T09:06:30Z</time></trkpt><trkpt lat="49.683739" lon="5.800648"><ele>373.61</ele><time>2016-10-09T09:06:31Z</time></trkpt><trkpt lat="49.684003" lon="5.800534"><ele>372.17</ele><time>2016-10-09T09:06:35Z</time></trkpt><trkpt lat="49.684041" lon="5.800546"><ele>371.69</ele><time>2016-10-09T09:06:36Z</time></trkpt><trkpt lat="49.684068" lon="5.800593"><ele>371.69</ele><time>2016-10-09T09:06:37Z</time></trkpt><trkpt lat="49.684084" lon="5.800658"><ele>371.69</ele><time>2016-10-09T09:06:38Z</time></trkpt><trkpt lat="49.684101" lon="5.800721"><ele>372.17</ele><time>2016-10-09T09:06:39Z</time></trkpt><trkpt lat="49.684116" lon="5.800788"><ele>372.17</ele><time>2016-10-09T09:06:40Z</time></trkpt><trkpt lat="49.684132" lon="5.800857"><ele>372.65</ele><time>2016-10-09T09:06:41Z</time></trkpt><trkpt lat="49.684150" lon="5.800927"><ele>372.17</ele><time>2016-10-09T09:06:42Z</time></trkpt><trkpt lat="49.684369" lon="5.801889"><ele>375.05</ele><time>2016-10-09T09:06:54Z</time></trkpt><trkpt lat="49.684391" lon="5.801970"><ele>375.53</ele><time>2016-10-09T09:06:55Z</time></trkpt><trkpt lat="49.684413" lon="5.802053"><ele>375.53</ele><time>2016-10-09T09:06:56Z</time></trkpt><trkpt lat="49.684456" lon="5.802220"><ele>375.53</ele><time>2016-10-09T09:06:58Z</time></trkpt><trkpt lat="49.684476" lon="5.802308"><ele>376.01</ele><time>2016-10-09T09:06:59Z</time></trkpt><trkpt lat="49.684647" lon="5.803100"><ele>378.90</ele><time>2016-10-09T09:07:09Z</time></trkpt><trkpt lat="49.684628" lon="5.803318"><ele>380.82</ele><time>2016-10-09T09:07:13Z</time></trkpt><trkpt lat="49.684642" lon="5.803418"><ele>381.30</ele><time>2016-10-09T09:07:15Z</time></trkpt><trkpt lat="49.684665" lon="5.803448"><ele>380.82</ele><time>2016-10-09T09:07:16Z</time></trkpt><trkpt lat="49.684694" lon="5.803468"><ele>381.30</ele><time>2016-10-09T09:07:17Z</time></trkpt><trkpt lat="49.684733" lon="5.803482"><ele>380.82</ele><time>2016-10-09T09:07:18Z</time></trkpt><trkpt lat="49.684778" lon="5.803487"><ele>380.82</ele><time>2016-10-09T09:07:19Z</time></trkpt><trkpt lat="49.684927" lon="5.803496"><ele>380.34</ele><time>2016-10-09T09:07:22Z</time></trkpt><trkpt lat="49.685011" lon="5.803450"><ele>379.38</ele><time>2016-10-09T09:07:24Z</time></trkpt><trkpt lat="49.685043" lon="5.803411"><ele>379.38</ele><time>2016-10-09T09:07:25Z</time></trkpt><trkpt lat="49.685063" lon="5.803357"><ele>379.38</ele><time>2016-10-09T09:07:26Z</time></trkpt><trkpt lat="49.685069" lon="5.803292"><ele>379.38</ele><time>2016-10-09T09:07:27Z</time></trkpt><trkpt lat="49.685068" lon="5.803228"><ele>379.38</ele><time>2016-10-09T09:07:28Z</time></trkpt><trkpt lat="49.685061" lon="5.803166"><ele>378.42</ele><time>2016-10-09T09:07:29Z</time></trkpt><trkpt lat="49.685057" lon="5.803105"><ele>378.42</ele><time>2016-10-09T09:07:30Z</time></trkpt><trkpt lat="49.685056" lon="5.803047"><ele>378.42</ele><time>2016-10-09T09:07:31Z</time></trkpt><trkpt lat="49.685047" lon="5.802776"><ele>376.01</ele><time>2016-10-09T09:07:36Z</time></trkpt><trkpt lat="49.685037" lon="5.802394"><ele>374.09</ele><time>2016-10-09T09:07:44Z</time></trkpt><trkpt lat="49.685055" lon="5.802342"><ele>374.09</ele><time>2016-10-09T09:07:45Z</time></trkpt><trkpt lat="49.685215" lon="5.802221"><ele>374.09</ele><time>2016-10-09T09:07:49Z</time></trkpt><trkpt lat="49.685252" lon="5.802168"><ele>374.09</ele><time>2016-10-09T09:07:50Z</time></trkpt><trkpt lat="49.685293" lon="5.802115"><ele>374.09</ele><time>2016-10-09T09:07:51Z</time></trkpt><trkpt lat="49.685341" lon="5.802074"><ele>373.61</ele><time>2016-10-09T09:07:52Z</time></trkpt><trkpt lat="49.685393" lon="5.802051"><ele>373.61</ele><time>2016-10-09T09:07:53Z</time></trkpt><trkpt lat="49.685446" lon="5.802052"><ele>373.61</ele><time>2016-10-09T09:07:54Z</time></trkpt><trkpt lat="49.685494" lon="5.802078"><ele>373.61</ele><time>2016-10-09T09:07:55Z</time></trkpt><trkpt lat="49.685533" lon="5.802121"><ele>374.09</ele><time>2016-10-09T09:07:56Z</time></trkpt><trkpt lat="49.685563" lon="5.802177"><ele>374.09</ele><time>2016-10-09T09:07:57Z</time></trkpt><trkpt lat="49.685590" lon="5.802241"><ele>374.57</ele><time>2016-10-09T09:07:58Z</time></trkpt><trkpt lat="49.685744" lon="5.802572"><ele>375.53</ele><time>2016-10-09T09:08:03Z</time></trkpt><trkpt lat="49.685789" lon="5.802599"><ele>375.53</ele><time>2016-10-09T09:08:04Z</time></trkpt><trkpt lat="49.685838" lon="5.802600"><ele>376.01</ele><time>2016-10-09T09:08:05Z</time></trkpt><trkpt lat="49.685885" lon="5.802581"><ele>376.01</ele><time>2016-10-09T09:08:06Z</time></trkpt><trkpt lat="49.685931" lon="5.802552"><ele>376.49</ele><time>2016-10-09T09:08:07Z</time></trkpt><trkpt lat="49.685979" lon="5.802528"><ele>376.97</ele><time>2016-10-09T09:08:08Z</time></trkpt><trkpt lat="49.686029" lon="5.802536"><ele>376.97</ele><time>2016-10-09T09:08:09Z</time></trkpt><trkpt lat="49.686074" lon="5.802575"><ele>377.45</ele><time>2016-10-09T09:08:10Z</time></trkpt><trkpt lat="49.686111" lon="5.802630"><ele>376.97</ele><time>2016-10-09T09:08:11Z</time></trkpt><trkpt lat="49.686142" lon="5.802694"><ele>377.94</ele><time>2016-10-09T09:08:12Z</time></trkpt><trkpt lat="49.686170" lon="5.802765"><ele>377.45</ele><time>2016-10-09T09:08:13Z</time></trkpt><trkpt lat="49.686195" lon="5.802841"><ele>377.94</ele><time>2016-10-09T09:08:14Z</time></trkpt><trkpt lat="49.686218" lon="5.802918"><ele>377.94</ele><time>2016-10-09T09:08:15Z</time></trkpt><trkpt lat="49.686249" lon="5.802989"><ele>377.94</ele><time>2016-10-09T09:08:16Z</time></trkpt><trkpt lat="49.686290" lon="5.803045"><ele>377.94</ele><time>2016-10-09T09:08:17Z</time></trkpt><trkpt lat="49.686335" lon="5.803087"><ele>377.94</ele><time>2016-10-09T09:08:18Z</time></trkpt><trkpt lat="49.686384" lon="5.803118"><ele>377.94</ele><time>2016-10-09T09:08:19Z</time></trkpt><trkpt lat="49.686434" lon="5.803139"><ele>377.94</ele><time>2016-10-09T09:08:20Z</time></trkpt><trkpt lat="49.686484" lon="5.803146"><ele>378.42</ele><time>2016-10-09T09:08:21Z</time></trkpt><trkpt lat="49.686531" lon="5.803144"><ele>378.42</ele><time>2016-10-09T09:08:22Z</time></trkpt><trkpt lat="49.686569" lon="5.803127"><ele>378.90</ele><time>2016-10-09T09:08:23Z</time></trkpt><trkpt lat="49.686596" lon="5.803094"><ele>378.90</ele><time>2016-10-09T09:08:24Z</time></trkpt><trkpt lat="49.686615" lon="5.803052"><ele>378.90</ele><time>2016-10-09T09:08:25Z</time></trkpt><trkpt lat="49.686623" lon="5.803013"><ele>378.90</ele><time>2016-10-09T09:08:26Z</time></trkpt><trkpt lat="49.686620" lon="5.802976"><ele>378.90</ele><time>2016-10-09T09:08:27Z</time></trkpt><trkpt lat="49.686621" lon="5.802931"><ele>379.38</ele><time>2016-10-09T09:08:28Z</time></trkpt><trkpt lat="49.686629" lon="5.802882"><ele>379.38</ele><time>2016-10-09T09:08:29Z</time></trkpt><trkpt lat="49.686641" lon="5.802830"><ele>379.86</ele><time>2016-10-09T09:08:30Z</time></trkpt><trkpt lat="49.686687" lon="5.802556"><ele>381.78</ele><time>2016-10-09T09:08:37Z</time></trkpt><trkpt lat="49.686694" lon="5.802518"><ele>382.26</ele><time>2016-10-09T09:08:38Z</time></trkpt><trkpt lat="49.686703" lon="5.802487"><ele>382.26</ele><time>2016-10-09T09:08:39Z</time></trkpt><trkpt lat="49.686804" lon="5.802173"><ele>384.18</ele><time>2016-10-09T09:08:49Z</time></trkpt><trkpt lat="49.686830" lon="5.802159"><ele>384.18</ele><time>2016-10-09T09:08:50Z</time></trkpt><trkpt lat="49.686853" lon="5.802158"><ele>384.18</ele><time>2016-10-09T09:08:51Z</time></trkpt><trkpt lat="49.686875" lon="5.802164"><ele>384.18</ele><time>2016-10-09T09:08:52Z</time></trkpt><trkpt lat="49.686897" lon="5.802177"><ele>384.18</ele><time>2016-10-09T09:08:53Z</time></trkpt><trkpt lat="49.686921" lon="5.802192"><ele>384.18</ele><time>2016-10-09T09:08:54Z</time></trkpt><trkpt lat="49.686945" lon="5.802207"><ele>384.66</ele><time>2016-10-09T09:08:55Z</time></trkpt><trkpt lat="49.687323" lon="5.802471"><ele>386.11</ele><time>2016-10-09T09:09:08Z</time></trkpt><trkpt lat="49.687812" lon="5.802887"><ele>388.99</ele><time>2016-10-09T09:09:23Z</time></trkpt><trkpt lat="49.688154" lon="5.803218"><ele>389.95</ele><time>2016-10-09T09:09:32Z</time></trkpt><trkpt lat="49.688315" lon="5.803437"><ele>390.91</ele><time>2016-10-09T09:09:37Z</time></trkpt><trkpt lat="49.688348" lon="5.803482"><ele>390.43</ele><time>2016-10-09T09:09:38Z</time></trkpt><trkpt lat="49.688379" lon="5.803532"><ele>390.43</ele><time>2016-10-09T09:09:39Z</time></trkpt><trkpt lat="49.688739" lon="5.804404"><ele>390.43</ele><time>2016-10-09T09:09:53Z</time></trkpt><trkpt lat="49.688767" lon="5.804448"><ele>390.43</ele><time>2016-10-09T09:09:54Z</time></trkpt><trkpt lat="49.688803" lon="5.804467"><ele>390.91</ele><time>2016-10-09T09:09:55Z</time></trkpt><trkpt lat="49.688837" lon="5.804459"><ele>391.39</ele><time>2016-10-09T09:09:56Z</time></trkpt><trkpt lat="49.688867" lon="5.804439"><ele>391.39</ele><time>2016-10-09T09:09:57Z</time></trkpt><trkpt lat="49.688899" lon="5.804416"><ele>391.39</ele><time>2016-10-09T09:09:58Z</time></trkpt><trkpt lat="49.688931" lon="5.804392"><ele>392.36</ele><time>2016-10-09T09:09:59Z</time></trkpt><trkpt lat="49.688961" lon="5.804365"><ele>392.84</ele><time>2016-10-09T09:10:00Z</time></trkpt><trkpt lat="49.689084" lon="5.804299"><ele>394.28</ele><time>2016-10-09T09:10:05Z</time></trkpt><trkpt lat="49.689102" lon="5.804316"><ele>394.76</ele><time>2016-10-09T09:10:06Z</time></trkpt><trkpt lat="49.689114" lon="5.804345"><ele>394.28</ele><time>2016-10-09T09:10:07Z</time></trkpt><trkpt lat="49.689127" lon="5.804392"><ele>394.28</ele><time>2016-10-09T09:10:08Z</time></trkpt><trkpt lat="49.689143" lon="5.804449"><ele>393.80</ele><time>2016-10-09T09:10:09Z</time></trkpt><trkpt lat="49.689160" lon="5.804510"><ele>392.84</ele><time>2016-10-09T09:10:10Z</time></trkpt><trkpt lat="49.689176" lon="5.804566"><ele>392.84</ele><time>2016-10-09T09:10:11Z</time></trkpt><trkpt lat="49.689218" lon="5.804673"><ele>392.84</ele><time>2016-10-09T09:10:14Z</time></trkpt><trkpt lat="49.689219" lon="5.804707"><ele>392.36</ele><time>2016-10-09T09:10:15Z</time></trkpt><trkpt lat="49.689217" lon="5.804736"><ele>392.36</ele><time>2016-10-09T09:10:16Z</time></trkpt><trkpt lat="49.689218" lon="5.804767"><ele>391.39</ele><time>2016-10-09T09:10:17Z</time></trkpt><trkpt lat="49.689223" lon="5.804803"><ele>390.91</ele><time>2016-10-09T09:10:18Z</time></trkpt><trkpt lat="49.689231" lon="5.804848"><ele>390.43</ele><time>2016-10-09T09:10:19Z</time></trkpt><trkpt lat="49.689243" lon="5.804897"><ele>389.95</ele><time>2016-10-09T09:10:20Z</time></trkpt><trkpt lat="49.689285" lon="5.805090"><ele>388.99</ele><time>2016-10-09T09:10:24Z</time></trkpt><trkpt lat="49.689206" lon="5.805200"><ele>388.99</ele><time>2016-10-09T09:10:27Z</time></trkpt><trkpt lat="49.689090" lon="5.805372"><ele>388.03</ele><time>2016-10-09T09:10:31Z</time></trkpt><trkpt lat="49.688950" lon="5.805531"><ele>386.59</ele><time>2016-10-09T09:10:34Z</time></trkpt><trkpt lat="49.688897" lon="5.805582"><ele>386.11</ele><time>2016-10-09T09:10:35Z</time></trkpt><trkpt lat="49.688863" lon="5.805625"><ele>385.63</ele><time>2016-10-09T09:10:36Z</time></trkpt><trkpt lat="49.688861" lon="5.805682"><ele>385.63</ele><time>2016-10-09T09:10:37Z</time></trkpt><trkpt lat="49.688878" lon="5.805743"><ele>385.15</ele><time>2016-10-09T09:10:38Z</time></trkpt><trkpt lat="49.689074" lon="5.806147"><ele>384.66</ele><time>2016-10-09T09:10:44Z</time></trkpt><trkpt lat="49.689160" lon="5.806264"><ele>384.18</ele><time>2016-10-09T09:10:46Z</time></trkpt><trkpt lat="49.689396" lon="5.806488"><ele>382.26</ele><time>2016-10-09T09:10:53Z</time></trkpt><trkpt lat="49.689431" lon="5.806459"><ele>382.26</ele><time>2016-10-09T09:10:54Z</time></trkpt><trkpt lat="49.689465" lon="5.806411"><ele>381.78</ele><time>2016-10-09T09:10:55Z</time></trkpt><trkpt lat="49.689935" lon="5.805544"><ele>380.34</ele><time>2016-10-09T09:11:06Z</time></trkpt><trkpt lat="49.689963" lon="5.805440"><ele>380.82</ele><time>2016-10-09T09:11:07Z</time></trkpt><trkpt lat="49.689995" lon="5.805344"><ele>380.82</ele><time>2016-10-09T09:11:08Z</time></trkpt><trkpt lat="49.690128" lon="5.804990"><ele>382.26</ele><time>2016-10-09T09:11:12Z</time></trkpt><trkpt lat="49.690381" lon="5.804460"><ele>383.70</ele><time>2016-10-09T09:11:19Z</time></trkpt><trkpt lat="49.690410" lon="5.804378"><ele>383.70</ele><time>2016-10-09T09:11:20Z</time></trkpt><trkpt lat="49.690434" lon="5.804295"><ele>383.70</ele><time>2016-10-09T09:11:21Z</time></trkpt><trkpt lat="49.690456" lon="5.804209"><ele>384.18</ele><time>2016-10-09T09:11:22Z</time></trkpt><trkpt lat="49.690472" lon="5.804123"><ele>384.18</ele><time>2016-10-09T09:11:23Z</time></trkpt><trkpt lat="49.690482" lon="5.804033"><ele>384.18</ele><time>2016-10-09T09:11:24Z</time></trkpt><trkpt lat="49.690486" lon="5.803944"><ele>383.70</ele><time>2016-10-09T09:11:25Z</time></trkpt><trkpt lat="49.690484" lon="5.803853"><ele>384.18</ele><time>2016-10-09T09:11:26Z</time></trkpt><trkpt lat="49.690481" lon="5.803758"><ele>384.18</ele><time>2016-10-09T09:11:27Z</time></trkpt><trkpt lat="49.690470" lon="5.802763"><ele>380.82</ele><time>2016-10-09T09:11:35Z</time></trkpt><trkpt lat="49.690467" lon="5.802159"><ele>377.45</ele><time>2016-10-09T09:11:39Z</time></trkpt><trkpt lat="49.690469" lon="5.802001"><ele>377.45</ele><time>2016-10-09T09:11:40Z</time></trkpt><trkpt lat="49.690489" lon="5.801681"><ele>376.01</ele><time>2016-10-09T09:11:42Z</time></trkpt><trkpt lat="49.690517" lon="5.801522"><ele>375.53</ele><time>2016-10-09T09:11:43Z</time></trkpt><trkpt lat="49.690585" lon="5.801206"><ele>374.09</ele><time>2016-10-09T09:11:45Z</time></trkpt><trkpt lat="49.690733" lon="5.800569"><ele>370.73</ele><time>2016-10-09T09:11:49Z</time></trkpt><trkpt lat="49.690803" lon="5.800243"><ele>369.76</ele><time>2016-10-09T09:11:51Z</time></trkpt><trkpt lat="49.690822" lon="5.800073"><ele>369.28</ele><time>2016-10-09T09:11:52Z</time></trkpt><trkpt lat="49.690863" lon="5.799613"><ele>367.36</ele><time>2016-10-09T09:11:55Z</time></trkpt><trkpt lat="49.690907" lon="5.799184"><ele>365.44</ele><time>2016-10-09T09:11:58Z</time></trkpt><trkpt lat="49.690932" lon="5.799052"><ele>364.00</ele><time>2016-10-09T09:11:59Z</time></trkpt><trkpt lat="49.690992" lon="5.798838"><ele>362.55</ele><time>2016-10-09T09:12:01Z</time></trkpt><trkpt lat="49.691072" lon="5.798647"><ele>362.55</ele><time>2016-10-09T09:12:03Z</time></trkpt><trkpt lat="49.691207" lon="5.798430"><ele>361.11</ele><time>2016-10-09T09:12:06Z</time></trkpt><trkpt lat="49.691257" lon="5.798382"><ele>361.11</ele><time>2016-10-09T09:12:07Z</time></trkpt><trkpt lat="49.691346" lon="5.798291"><ele>360.15</ele><time>2016-10-09T09:12:09Z</time></trkpt><trkpt lat="49.691383" lon="5.798231"><ele>359.67</ele><time>2016-10-09T09:12:10Z</time></trkpt><trkpt lat="49.691418" lon="5.798163"><ele>359.67</ele><time>2016-10-09T09:12:11Z</time></trkpt><trkpt lat="49.691450" lon="5.798089"><ele>359.19</ele><time>2016-10-09T09:12:12Z</time></trkpt><trkpt lat="49.691476" lon="5.798002"><ele>359.19</ele><time>2016-10-09T09:12:13Z</time></trkpt><trkpt lat="49.691498" lon="5.797909"><ele>358.71</ele><time>2016-10-09T09:12:14Z</time></trkpt><trkpt lat="49.691524" lon="5.797821"><ele>358.71</ele><time>2016-10-09T09:12:15Z</time></trkpt><trkpt lat="49.691549" lon="5.797736"><ele>358.71</ele><time>2016-10-09T09:12:16Z</time></trkpt><trkpt lat="49.691564" lon="5.797659"><ele>358.71</ele><time>2016-10-09T09:12:17Z</time></trkpt><trkpt lat="49.691577" lon="5.797594"><ele>359.19</ele><time>2016-10-09T09:12:18Z</time></trkpt><trkpt lat="49.691586" lon="5.797530"><ele>359.19</ele><time>2016-10-09T09:12:19Z</time></trkpt><trkpt lat="49.691589" lon="5.797466"><ele>359.67</ele><time>2016-10-09T09:12:20Z</time></trkpt><trkpt lat="49.691586" lon="5.797399"><ele>359.67</ele><time>2016-10-09T09:12:21Z</time></trkpt><trkpt lat="49.691582" lon="5.797325"><ele>359.67</ele><time>2016-10-09T09:12:22Z</time></trkpt><trkpt lat="49.691561" lon="5.797050"><ele>358.71</ele><time>2016-10-09T09:12:25Z</time></trkpt><trkpt lat="49.691553" lon="5.796953"><ele>358.71</ele><time>2016-10-09T09:12:26Z</time></trkpt><trkpt lat="49.691551" lon="5.796854"><ele>358.71</ele><time>2016-10-09T09:12:27Z</time></trkpt><trkpt lat="49.691555" lon="5.796763"><ele>358.71</ele><time>2016-10-09T09:12:28Z</time></trkpt><trkpt lat="49.691568" lon="5.796681"><ele>358.71</ele><time>2016-10-09T09:12:29Z</time></trkpt><trkpt lat="49.691589" lon="5.796602"><ele>358.23</ele><time>2016-10-09T09:12:30Z</time></trkpt><trkpt lat="49.691616" lon="5.796529"><ele>358.23</ele><time>2016-10-09T09:12:31Z</time></trkpt><trkpt lat="49.691647" lon="5.796465"><ele>358.71</ele><time>2016-10-09T09:12:32Z</time></trkpt><trkpt lat="49.691680" lon="5.796410"><ele>359.19</ele><time>2016-10-09T09:12:33Z</time></trkpt><trkpt lat="49.691854" lon="5.795828"><ele>361.11</ele><time>2016-10-09T09:12:44Z</time></trkpt><trkpt lat="49.691879" lon="5.795690"><ele>361.11</ele><time>2016-10-09T09:12:46Z</time></trkpt><trkpt lat="49.691905" lon="5.795642"><ele>361.59</ele><time>2016-10-09T09:12:47Z</time></trkpt><trkpt lat="49.692018" lon="5.795738"><ele>361.11</ele><time>2016-10-09T09:12:51Z</time></trkpt><trkpt lat="49.692045" lon="5.795791"><ele>360.63</ele><time>2016-10-09T09:12:52Z</time></trkpt><trkpt lat="49.692184" lon="5.796042"><ele>360.63</ele><time>2016-10-09T09:12:56Z</time></trkpt><trkpt lat="49.692260" lon="5.796197"><ele>360.15</ele><time>2016-10-09T09:12:58Z</time></trkpt><trkpt lat="49.692541" lon="5.796905"><ele>359.67</ele><time>2016-10-09T09:13:07Z</time></trkpt><trkpt lat="49.692727" lon="5.797606"><ele>360.15</ele><time>2016-10-09T09:13:17Z</time></trkpt><trkpt lat="49.692744" lon="5.797668"><ele>360.63</ele><time>2016-10-09T09:13:18Z</time></trkpt><trkpt lat="49.692842" lon="5.798281"><ele>361.59</ele><time>2016-10-09T09:13:27Z</time></trkpt><trkpt lat="49.692893" lon="5.799022"><ele>363.04</ele><time>2016-10-09T09:13:39Z</time></trkpt><trkpt lat="49.692915" lon="5.799610"><ele>364.00</ele><time>2016-10-09T09:13:48Z</time></trkpt><trkpt lat="49.692909" lon="5.799813"><ele>364.96</ele><time>2016-10-09T09:13:51Z</time></trkpt><trkpt lat="49.692864" lon="5.800533"><ele>366.40</ele><time>2016-10-09T09:14:03Z</time></trkpt><trkpt lat="49.692741" lon="5.801193"><ele>367.36</ele><time>2016-10-09T09:14:15Z</time></trkpt><trkpt lat="49.692623" lon="5.801872"><ele>368.80</ele><time>2016-10-09T09:14:26Z</time></trkpt><trkpt lat="49.692387" lon="5.802689"><ele>371.21</ele><time>2016-10-09T09:14:41Z</time></trkpt><trkpt lat="49.692181" lon="5.803355"><ele>372.17</ele><time>2016-10-09T09:14:55Z</time></trkpt><trkpt lat="49.692065" lon="5.803933"><ele>372.65</ele><time>2016-10-09T09:15:05Z</time></trkpt><trkpt lat="49.692052" lon="5.803997"><ele>373.13</ele><time>2016-10-09T09:15:06Z</time></trkpt><trkpt lat="49.692033" lon="5.804058"><ele>372.65</ele><time>2016-10-09T09:15:07Z</time></trkpt><trkpt lat="49.691746" lon="5.804978"><ele>374.57</ele><time>2016-10-09T09:15:22Z</time></trkpt><trkpt lat="49.691625" lon="5.805367"><ele>375.05</ele><time>2016-10-09T09:15:28Z</time></trkpt><trkpt lat="49.691432" lon="5.806012"><ele>372.17</ele><time>2016-10-09T09:15:37Z</time></trkpt><trkpt lat="49.691409" lon="5.806087"><ele>375.05</ele><time>2016-10-09T09:15:38Z</time></trkpt><trkpt lat="49.691327" lon="5.806379"><ele>375.05</ele><time>2016-10-09T09:15:42Z</time></trkpt><trkpt lat="49.691281" lon="5.806590"><ele>375.05</ele><time>2016-10-09T09:15:45Z</time></trkpt><trkpt lat="49.691228" lon="5.806777"><ele>375.05</ele><time>2016-10-09T09:15:48Z</time></trkpt><trkpt lat="49.691220" lon="5.806838"><ele>375.05</ele><time>2016-10-09T09:15:49Z</time></trkpt><trkpt lat="49.691211" lon="5.806897"><ele>375.05</ele><time>2016-10-09T09:15:50Z</time></trkpt><trkpt lat="49.691202" lon="5.806952"><ele>375.05</ele><time>2016-10-09T09:15:51Z</time></trkpt><trkpt lat="49.691198" lon="5.807008"><ele>374.57</ele><time>2016-10-09T09:15:52Z</time></trkpt><trkpt lat="49.691206" lon="5.807054"><ele>375.05</ele><time>2016-10-09T09:15:53Z</time></trkpt><trkpt lat="49.691232" lon="5.807082"><ele>375.05</ele><time>2016-10-09T09:15:54Z</time></trkpt><trkpt lat="49.691267" lon="5.807089"><ele>374.57</ele><time>2016-10-09T09:15:55Z</time></trkpt><trkpt lat="49.691308" lon="5.807076"><ele>375.05</ele><time>2016-10-09T09:15:56Z</time></trkpt><trkpt lat="49.691354" lon="5.807049"><ele>374.57</ele><time>2016-10-09T09:15:57Z</time></trkpt><trkpt lat="49.691400" lon="5.807016"><ele>373.13</ele><time>2016-10-09T09:15:58Z</time></trkpt><trkpt lat="49.691549" lon="5.806899"><ele>375.05</ele><time>2016-10-09T09:16:01Z</time></trkpt><trkpt lat="49.691605" lon="5.806868"><ele>376.01</ele><time>2016-10-09T09:16:02Z</time></trkpt><trkpt lat="49.691661" lon="5.806838"><ele>376.01</ele><time>2016-10-09T09:16:03Z</time></trkpt><trkpt lat="49.691722" lon="5.806804"><ele>373.13</ele><time>2016-10-09T09:16:04Z</time></trkpt><trkpt lat="49.691896" lon="5.806708"><ele>369.76</ele><time>2016-10-09T09:16:07Z</time></trkpt><trkpt lat="49.692001" lon="5.806660"><ele>369.28</ele><time>2016-10-09T09:16:09Z</time></trkpt><trkpt lat="49.692052" lon="5.806657"><ele>371.21</ele><time>2016-10-09T09:16:10Z</time></trkpt><trkpt lat="49.692102" lon="5.806682"><ele>373.13</ele><time>2016-10-09T09:16:11Z</time></trkpt><trkpt lat="49.692143" lon="5.806742"><ele>371.69</ele><time>2016-10-09T09:16:12Z</time></trkpt><trkpt lat="49.692177" lon="5.806810"><ele>369.28</ele><time>2016-10-09T09:16:13Z</time></trkpt><trkpt lat="49.692247" lon="5.806952"><ele>368.32</ele><time>2016-10-09T09:16:15Z</time></trkpt><trkpt lat="49.692621" lon="5.807783"><ele>372.65</ele><time>2016-10-09T09:16:26Z</time></trkpt><trkpt lat="49.692664" lon="5.807879"><ele>362.55</ele><time>2016-10-09T09:16:27Z</time></trkpt><trkpt lat="49.692708" lon="5.807974"><ele>368.32</ele><time>2016-10-09T09:16:28Z</time></trkpt><trkpt lat="49.692736" lon="5.808051"><ele>367.84</ele><time>2016-10-09T09:16:29Z</time></trkpt><trkpt lat="49.692750" lon="5.808104"><ele>366.88</ele><time>2016-10-09T09:16:30Z</time></trkpt><trkpt lat="49.692757" lon="5.808134"><ele>364.00</ele><time>2016-10-09T09:16:31Z</time></trkpt><trkpt lat="49.692749" lon="5.808170"><ele>370.73</ele><time>2016-10-09T09:16:32Z</time></trkpt><trkpt lat="49.692733" lon="5.808204"><ele>368.32</ele><time>2016-10-09T09:16:33Z</time></trkpt><trkpt lat="49.692709" lon="5.808239"><ele>369.76</ele><time>2016-10-09T09:16:34Z</time></trkpt><trkpt lat="49.692679" lon="5.808276"><ele>364.96</ele><time>2016-10-09T09:16:35Z</time></trkpt><trkpt lat="49.692648" lon="5.808311"><ele>369.28</ele><time>2016-10-09T09:16:36Z</time></trkpt><trkpt lat="49.692620" lon="5.808353"><ele>369.28</ele><time>2016-10-09T09:16:37Z</time></trkpt><trkpt lat="49.692590" lon="5.808402"><ele>367.36</ele><time>2016-10-09T09:16:38Z</time></trkpt><trkpt lat="49.692407" lon="5.808688"><ele>370.24</ele><time>2016-10-09T09:16:43Z</time></trkpt><trkpt lat="49.692274" lon="5.808925"><ele>365.92</ele><time>2016-10-09T09:16:47Z</time></trkpt><trkpt lat="49.692251" lon="5.808984"><ele>372.17</ele><time>2016-10-09T09:16:48Z</time></trkpt><trkpt lat="49.692230" lon="5.809043"><ele>369.76</ele><time>2016-10-09T09:16:49Z</time></trkpt><trkpt lat="49.692183" lon="5.809154"><ele>371.21</ele><time>2016-10-09T09:16:51Z</time></trkpt><trkpt lat="49.692160" lon="5.809209"><ele>369.28</ele><time>2016-10-09T09:16:52Z</time></trkpt><trkpt lat="49.692140" lon="5.809269"><ele>366.40</ele><time>2016-10-09T09:16:53Z</time></trkpt><trkpt lat="49.692119" lon="5.809318"><ele>369.76</ele><time>2016-10-09T09:16:54Z</time></trkpt><trkpt lat="49.692100" lon="5.809353"><ele>360.63</ele><time>2016-10-09T09:16:55Z</time></trkpt><trkpt lat="49.692087" lon="5.809364"><ele>371.21</ele><time>2016-10-09T09:16:56Z</time></trkpt><trkpt lat="49.692098" lon="5.809341"><ele>369.28</ele><time>2016-10-09T09:17:07Z</time></trkpt><trkpt lat="49.692139" lon="5.809237"><ele>366.40</ele><time>2016-10-09T09:17:12Z</time></trkpt><trkpt lat="49.692166" lon="5.809250"><ele>365.44</ele><time>2016-10-09T09:17:14Z</time></trkpt><trkpt lat="49.692179" lon="5.809269"><ele>369.28</ele><time>2016-10-09T09:17:15Z</time></trkpt><trkpt lat="49.692172" lon="5.809334"><ele>368.80</ele><time>2016-10-09T09:17:18Z</time></trkpt><trkpt lat="49.692057" lon="5.809590"><ele>365.44</ele><time>2016-10-09T09:17:24Z</time></trkpt><trkpt lat="49.692039" lon="5.809636"><ele>370.24</ele><time>2016-10-09T09:17:25Z</time></trkpt><trkpt lat="49.692021" lon="5.809682"><ele>370.24</ele><time>2016-10-09T09:17:26Z</time></trkpt><trkpt lat="49.691991" lon="5.809772"><ele>370.24</ele><time>2016-10-09T09:17:28Z</time></trkpt><trkpt lat="49.692066" lon="5.809960"><ele>370.24</ele><time>2016-10-09T09:17:33Z</time></trkpt><trkpt lat="49.692118" lon="5.810023"><ele>372.65</ele><time>2016-10-09T09:17:35Z</time></trkpt><trkpt lat="49.692182" lon="5.810121"><ele>367.84</ele><time>2016-10-09T09:17:38Z</time></trkpt><trkpt lat="49.692193" lon="5.810156"><ele>367.84</ele><time>2016-10-09T09:17:39Z</time></trkpt><trkpt lat="49.692169" lon="5.810228"><ele>373.13</ele><time>2016-10-09T09:17:41Z</time></trkpt><trkpt lat="49.692114" lon="5.810286"><ele>370.24</ele><time>2016-10-09T09:17:43Z</time></trkpt><trkpt lat="49.691774" lon="5.810573"><ele>371.21</ele><time>2016-10-09T09:17:52Z</time></trkpt><trkpt lat="49.691584" lon="5.811172"><ele>371.69</ele><time>2016-10-09T09:18:04Z</time></trkpt><trkpt lat="49.691439" lon="5.811618"><ele>373.13</ele><time>2016-10-09T09:18:13Z</time></trkpt><trkpt lat="49.691453" lon="5.811670"><ele>373.13</ele><time>2016-10-09T09:18:14Z</time></trkpt><trkpt lat="49.691478" lon="5.811720"><ele>370.24</ele><time>2016-10-09T09:18:15Z</time></trkpt><trkpt lat="49.691507" lon="5.811767"><ele>373.13</ele><time>2016-10-09T09:18:16Z</time></trkpt><trkpt lat="49.691543" lon="5.811796"><ele>373.13</ele><time>2016-10-09T09:18:17Z</time></trkpt><trkpt lat="49.691579" lon="5.811824"><ele>370.73</ele><time>2016-10-09T09:18:18Z</time></trkpt><trkpt lat="49.691607" lon="5.811868"><ele>375.53</ele><time>2016-10-09T09:18:19Z</time></trkpt><trkpt lat="49.691637" lon="5.811900"><ele>374.57</ele><time>2016-10-09T09:18:20Z</time></trkpt><trkpt lat="49.691657" lon="5.811940"><ele>375.05</ele><time>2016-10-09T09:18:21Z</time></trkpt><trkpt lat="49.691668" lon="5.811981"><ele>376.97</ele><time>2016-10-09T09:18:22Z</time></trkpt><trkpt lat="49.691675" lon="5.812027"><ele>373.61</ele><time>2016-10-09T09:18:23Z</time></trkpt><trkpt lat="49.691679" lon="5.812072"><ele>376.49</ele><time>2016-10-09T09:18:24Z</time></trkpt><trkpt lat="49.691681" lon="5.812116"><ele>374.57</ele><time>2016-10-09T09:18:25Z</time></trkpt><trkpt lat="49.691691" lon="5.812321"><ele>377.94</ele><time>2016-10-09T09:18:29Z</time></trkpt><trkpt lat="49.691700" lon="5.812368"><ele>376.49</ele><time>2016-10-09T09:18:30Z</time></trkpt><trkpt lat="49.691766" lon="5.812539"><ele>380.34</ele><time>2016-10-09T09:18:34Z</time></trkpt><trkpt lat="49.691786" lon="5.812574"><ele>379.38</ele><time>2016-10-09T09:18:35Z</time></trkpt><trkpt lat="49.691919" lon="5.812750"><ele>374.57</ele><time>2016-10-09T09:18:41Z</time></trkpt><trkpt lat="49.691943" lon="5.812780"><ele>381.30</ele><time>2016-10-09T09:18:42Z</time></trkpt><trkpt lat="49.691991" lon="5.812836"><ele>375.53</ele><time>2016-10-09T09:18:44Z</time></trkpt><trkpt lat="49.692015" lon="5.812862"><ele>380.34</ele><time>2016-10-09T09:18:45Z</time></trkpt><trkpt lat="49.692040" lon="5.812887"><ele>383.70</ele><time>2016-10-09T09:18:46Z</time></trkpt><trkpt lat="49.692067" lon="5.812914"><ele>382.26</ele><time>2016-10-09T09:18:47Z</time></trkpt><trkpt lat="49.692137" lon="5.813003"><ele>384.18</ele><time>2016-10-09T09:18:50Z</time></trkpt><trkpt lat="49.692302" lon="5.813231"><ele>383.70</ele><time>2016-10-09T09:18:58Z</time></trkpt><trkpt lat="49.692342" lon="5.813386"><ele>384.66</ele><time>2016-10-09T09:19:07Z</time></trkpt><trkpt lat="49.692330" lon="5.813388"><ele>385.15</ele><time>2016-10-09T09:19:08Z</time></trkpt><trkpt lat="49.692318" lon="5.813383"><ele>385.15</ele><time>2016-10-09T09:19:09Z</time></trkpt><trkpt lat="49.692306" lon="5.813387"><ele>386.11</ele><time>2016-10-09T09:19:10Z</time></trkpt><trkpt lat="49.692296" lon="5.813392"><ele>385.15</ele><time>2016-10-09T09:19:11Z</time></trkpt><trkpt lat="49.692292" lon="5.813412"><ele>385.15</ele><time>2016-10-09T09:19:12Z</time></trkpt><trkpt lat="49.692290" lon="5.813431"><ele>384.66</ele><time>2016-10-09T09:19:22Z</time></trkpt><trkpt lat="49.692301" lon="5.813460"><ele>385.15</ele><time>2016-10-09T09:19:23Z</time></trkpt><trkpt lat="49.692306" lon="5.813491"><ele>385.15</ele><time>2016-10-09T09:19:24Z</time></trkpt><trkpt lat="49.692322" lon="5.813553"><ele>389.47</ele><time>2016-10-09T09:19:26Z</time></trkpt><trkpt lat="49.692338" lon="5.813579"><ele>385.63</ele><time>2016-10-09T09:19:27Z</time></trkpt><trkpt lat="49.692385" lon="5.813612"><ele>384.66</ele><time>2016-10-09T09:19:29Z</time></trkpt><trkpt lat="49.692419" lon="5.813599"><ele>384.66</ele><time>2016-10-09T09:19:30Z</time></trkpt><trkpt lat="49.692731" lon="5.813603"><ele>388.51</ele><time>2016-10-09T09:19:40Z</time></trkpt><trkpt lat="49.692927" lon="5.813794"><ele>390.91</ele><time>2016-10-09T09:19:48Z</time></trkpt><trkpt lat="49.693145" lon="5.813936"><ele>392.36</ele><time>2016-10-09T09:19:58Z</time></trkpt><trkpt lat="49.693275" lon="5.814000"><ele>396.20</ele><time>2016-10-09T09:20:06Z</time></trkpt><trkpt lat="49.693554" lon="5.813955"><ele>399.57</ele><time>2016-10-09T09:20:21Z</time></trkpt><trkpt lat="49.693734" lon="5.813977"><ele>403.41</ele><time>2016-10-09T09:20:29Z</time></trkpt><trkpt lat="49.693864" lon="5.814017"><ele>404.37</ele><time>2016-10-09T09:20:36Z</time></trkpt><trkpt lat="49.694163" lon="5.814204"><ele>407.26</ele><time>2016-10-09T09:20:51Z</time></trkpt><trkpt lat="49.694456" lon="5.814473"><ele>407.74</ele><time>2016-10-09T09:21:04Z</time></trkpt><trkpt lat="49.694805" lon="5.814796"><ele>410.14</ele><time>2016-10-09T09:21:18Z</time></trkpt><trkpt lat="49.695210" lon="5.815180"><ele>410.62</ele><time>2016-10-09T09:21:33Z</time></trkpt><trkpt lat="49.695449" lon="5.815405"><ele>410.62</ele><time>2016-10-09T09:21:40Z</time></trkpt><trkpt lat="49.695609" lon="5.815539"><ele>411.10</ele><time>2016-10-09T09:21:44Z</time></trkpt><trkpt lat="49.695896" lon="5.815852"><ele>410.62</ele><time>2016-10-09T09:21:51Z</time></trkpt><trkpt lat="49.695936" lon="5.815899"><ele>412.06</ele><time>2016-10-09T09:21:52Z</time></trkpt><trkpt lat="49.696045" lon="5.816013"><ele>411.58</ele><time>2016-10-09T09:21:55Z</time></trkpt><trkpt lat="49.696116" lon="5.815821"><ele>410.62</ele><time>2016-10-09T09:22:01Z</time></trkpt><trkpt lat="49.696114" lon="5.815790"><ele>409.18</ele><time>2016-10-09T09:22:02Z</time></trkpt><trkpt lat="49.696136" lon="5.815754"><ele>408.70</ele><time>2016-10-09T09:22:09Z</time></trkpt><trkpt lat="49.696218" lon="5.815609"><ele>405.33</ele><time>2016-10-09T09:22:18Z</time></trkpt><trkpt lat="49.696254" lon="5.815554"><ele>404.37</ele><time>2016-10-09T09:22:20Z</time></trkpt><trkpt lat="49.696338" lon="5.815439"><ele>403.41</ele><time>2016-10-09T09:22:25Z</time></trkpt><trkpt lat="49.696412" lon="5.815326"><ele>401.49</ele><time>2016-10-09T09:22:29Z</time></trkpt><trkpt lat="49.696472" lon="5.815229"><ele>400.05</ele><time>2016-10-09T09:22:32Z</time></trkpt><trkpt lat="49.696621" lon="5.815062"><ele>399.57</ele><time>2016-10-09T09:22:37Z</time></trkpt><trkpt lat="49.696672" lon="5.814960"><ele>398.60</ele><time>2016-10-09T09:22:39Z</time></trkpt><trkpt lat="49.696795" lon="5.814845"><ele>397.16</ele><time>2016-10-09T09:22:50Z</time></trkpt><trkpt lat="49.697096" lon="5.814927"><ele>397.64</ele><time>2016-10-09T09:22:59Z</time></trkpt><trkpt lat="49.697214" lon="5.814924"><ele>396.20</ele><time>2016-10-09T09:23:02Z</time></trkpt><trkpt lat="49.697249" lon="5.814940"><ele>396.68</ele><time>2016-10-09T09:23:03Z</time></trkpt><trkpt lat="49.697479" lon="5.815106"><ele>397.16</ele><time>2016-10-09T09:23:12Z</time></trkpt><trkpt lat="49.697674" lon="5.815446"><ele>398.60</ele><time>2016-10-09T09:23:18Z</time></trkpt><trkpt lat="49.697770" lon="5.815495"><ele>398.12</ele><time>2016-10-09T09:23:23Z</time></trkpt><trkpt lat="49.697925" lon="5.815280"><ele>396.68</ele><time>2016-10-09T09:23:27Z</time></trkpt><trkpt lat="49.697968" lon="5.815213"><ele>395.72</ele><time>2016-10-09T09:23:28Z</time></trkpt><trkpt lat="49.698231" lon="5.814784"><ele>392.36</ele><time>2016-10-09T09:23:33Z</time></trkpt><trkpt lat="49.698427" lon="5.814544"><ele>389.95</ele><time>2016-10-09T09:23:36Z</time></trkpt><trkpt lat="49.698625" lon="5.814310"><ele>388.51</ele><time>2016-10-09T09:23:39Z</time></trkpt><trkpt lat="49.698751" lon="5.814156"><ele>387.55</ele><time>2016-10-09T09:23:41Z</time></trkpt><trkpt lat="49.699115" lon="5.813810"><ele>385.63</ele><time>2016-10-09T09:23:47Z</time></trkpt><trkpt lat="49.699169" lon="5.813786"><ele>385.63</ele><time>2016-10-09T09:23:48Z</time></trkpt><trkpt lat="49.699220" lon="5.813778"><ele>385.63</ele><time>2016-10-09T09:23:49Z</time></trkpt><trkpt lat="49.699269" lon="5.813784"><ele>385.63</ele><time>2016-10-09T09:23:50Z</time></trkpt><trkpt lat="49.699317" lon="5.813802"><ele>387.07</ele><time>2016-10-09T09:23:51Z</time></trkpt><trkpt lat="49.699360" lon="5.813826"><ele>386.11</ele><time>2016-10-09T09:23:52Z</time></trkpt><trkpt lat="49.699400" lon="5.813859"><ele>386.11</ele><time>2016-10-09T09:23:53Z</time></trkpt><trkpt lat="49.699439" lon="5.813895"><ele>385.63</ele><time>2016-10-09T09:23:54Z</time></trkpt><trkpt lat="49.699531" lon="5.814015"><ele>388.03</ele><time>2016-10-09T09:23:57Z</time></trkpt><trkpt lat="49.699827" lon="5.814300"><ele>390.91</ele><time>2016-10-09T09:24:06Z</time></trkpt><trkpt lat="49.700129" lon="5.814524"><ele>392.36</ele><time>2016-10-09T09:24:18Z</time></trkpt><trkpt lat="49.700426" lon="5.814750"><ele>391.39</ele><time>2016-10-09T09:24:30Z</time></trkpt><trkpt lat="49.700447" lon="5.814778"><ele>392.36</ele><time>2016-10-09T09:24:41Z</time></trkpt><trkpt lat="49.700447" lon="5.814778"><ele>396.20</ele><time>2016-10-09T09:24:53Z</time></trkpt><trkpt lat="49.700447" lon="5.814778"><ele>395.24</ele><time>2016-10-09T09:24:54Z</time></trkpt><trkpt lat="49.700447" lon="5.814792"><ele>392.36</ele><time>2016-10-09T09:24:57Z</time></trkpt><trkpt lat="49.700454" lon="5.814790"><ele>393.80</ele><time>2016-10-09T09:25:31Z</time></trkpt><trkpt lat="49.700531" lon="5.814818"><ele>393.80</ele><time>2016-10-09T09:25:35Z</time></trkpt><trkpt lat="49.700559" lon="5.814833"><ele>388.99</ele><time>2016-10-09T09:25:36Z</time></trkpt><trkpt lat="49.700622" lon="5.814858"><ele>394.28</ele><time>2016-10-09T09:25:38Z</time></trkpt><trkpt lat="49.700661" lon="5.814875"><ele>392.84</ele><time>2016-10-09T09:25:39Z</time></trkpt><trkpt lat="49.700702" lon="5.814898"><ele>385.15</ele><time>2016-10-09T09:25:40Z</time></trkpt><trkpt lat="49.700743" lon="5.814921"><ele>389.47</ele><time>2016-10-09T09:25:41Z</time></trkpt><trkpt lat="49.700834" lon="5.814986"><ele>392.36</ele><time>2016-10-09T09:25:43Z</time></trkpt><trkpt lat="49.701051" lon="5.815162"><ele>391.87</ele><time>2016-10-09T09:25:48Z</time></trkpt><trkpt lat="49.701252" lon="5.815372"><ele>391.39</ele><time>2016-10-09T09:25:53Z</time></trkpt><trkpt lat="49.701457" lon="5.815492"><ele>392.36</ele><time>2016-10-09T09:25:58Z</time></trkpt><trkpt lat="49.701524" lon="5.815530"><ele>395.24</ele><time>2016-10-09T09:26:00Z</time></trkpt><trkpt lat="49.701552" lon="5.815549"><ele>390.43</ele><time>2016-10-09T09:26:01Z</time></trkpt><trkpt lat="49.701602" lon="5.815591"><ele>386.59</ele><time>2016-10-09T09:26:03Z</time></trkpt><trkpt lat="49.701621" lon="5.815602"><ele>397.16</ele><time>2016-10-09T09:26:04Z</time></trkpt><trkpt lat="49.701642" lon="5.815613"><ele>392.36</ele><time>2016-10-09T09:26:05Z</time></trkpt><trkpt lat="49.701688" lon="5.815632"><ele>395.24</ele><time>2016-10-09T09:26:07Z</time></trkpt><trkpt lat="49.701709" lon="5.815636"><ele>388.03</ele><time>2016-10-09T09:26:08Z</time></trkpt><trkpt lat="49.701727" lon="5.815640"><ele>397.16</ele><time>2016-10-09T09:26:09Z</time></trkpt><trkpt lat="49.701746" lon="5.815647"><ele>392.36</ele><time>2016-10-09T09:26:10Z</time></trkpt><trkpt lat="49.701765" lon="5.815656"><ele>397.64</ele><time>2016-10-09T09:26:11Z</time></trkpt><trkpt lat="49.701796" lon="5.815666"><ele>393.80</ele><time>2016-10-09T09:26:12Z</time></trkpt><trkpt lat="49.701825" lon="5.815676"><ele>398.60</ele><time>2016-10-09T09:26:13Z</time></trkpt><trkpt lat="49.701857" lon="5.815685"><ele>392.36</ele><time>2016-10-09T09:26:14Z</time></trkpt><trkpt lat="49.701891" lon="5.815697"><ele>395.72</ele><time>2016-10-09T09:26:15Z</time></trkpt><trkpt lat="49.702029" lon="5.815742"><ele>399.08</ele><time>2016-10-09T09:26:18Z</time></trkpt><trkpt lat="49.702079" lon="5.815758"><ele>391.39</ele><time>2016-10-09T09:26:19Z</time></trkpt><trkpt lat="49.702134" lon="5.815777"><ele>399.08</ele><time>2016-10-09T09:26:20Z</time></trkpt><trkpt lat="49.702340" lon="5.815877"><ele>401.97</ele><time>2016-10-09T09:26:24Z</time></trkpt><trkpt lat="49.702389" lon="5.815917"><ele>396.20</ele><time>2016-10-09T09:26:25Z</time></trkpt><trkpt lat="49.702459" lon="5.815971"><ele>402.93</ele><time>2016-10-09T09:26:27Z</time></trkpt><trkpt lat="49.702491" lon="5.815992"><ele>399.08</ele><time>2016-10-09T09:26:28Z</time></trkpt><trkpt lat="49.702581" lon="5.816058"><ele>403.41</ele><time>2016-10-09T09:26:31Z</time></trkpt><trkpt lat="49.702606" lon="5.816091"><ele>401.49</ele><time>2016-10-09T09:26:32Z</time></trkpt><trkpt lat="49.702630" lon="5.816121"><ele>395.72</ele><time>2016-10-09T09:26:33Z</time></trkpt><trkpt lat="49.702657" lon="5.816152"><ele>404.37</ele><time>2016-10-09T09:26:34Z</time></trkpt><trkpt lat="49.702682" lon="5.816185"><ele>398.12</ele><time>2016-10-09T09:26:35Z</time></trkpt><trkpt lat="49.702700" lon="5.816220"><ele>403.41</ele><time>2016-10-09T09:26:36Z</time></trkpt><trkpt lat="49.702715" lon="5.816249"><ele>400.05</ele><time>2016-10-09T09:26:37Z</time></trkpt><trkpt lat="49.702725" lon="5.816272"><ele>404.37</ele><time>2016-10-09T09:26:38Z</time></trkpt><trkpt lat="49.702730" lon="5.816288"><ele>401.01</ele><time>2016-10-09T09:26:39Z</time></trkpt><trkpt lat="49.702777" lon="5.816374"><ele>403.89</ele><time>2016-10-09T09:26:46Z</time></trkpt><trkpt lat="49.702803" lon="5.816406"><ele>402.93</ele><time>2016-10-09T09:26:47Z</time></trkpt><trkpt lat="49.703046" lon="5.816738"><ele>404.37</ele><time>2016-10-09T09:26:54Z</time></trkpt><trkpt lat="49.703048" lon="5.816776"><ele>404.37</ele><time>2016-10-09T09:26:56Z</time></trkpt><trkpt lat="49.703037" lon="5.816827"><ele>399.57</ele><time>2016-10-09T09:26:58Z</time></trkpt><trkpt lat="49.703010" lon="5.816871"><ele>404.85</ele><time>2016-10-09T09:27:00Z</time></trkpt><trkpt lat="49.702958" lon="5.816887"><ele>399.57</ele><time>2016-10-09T09:27:03Z</time></trkpt><trkpt lat="49.702938" lon="5.816882"><ele>404.85</ele><time>2016-10-09T09:27:04Z</time></trkpt><trkpt lat="49.702919" lon="5.816877"><ele>403.41</ele><time>2016-10-09T09:27:05Z</time></trkpt><trkpt lat="49.702860" lon="5.816849"><ele>405.33</ele><time>2016-10-09T09:27:08Z</time></trkpt><trkpt lat="49.702813" lon="5.816834"><ele>399.08</ele><time>2016-10-09T09:27:11Z</time></trkpt><trkpt lat="49.702798" lon="5.816832"><ele>403.89</ele><time>2016-10-09T09:27:12Z</time></trkpt><trkpt lat="49.702777" lon="5.816854"><ele>400.05</ele><time>2016-10-09T09:27:14Z</time></trkpt><trkpt lat="49.702763" lon="5.816863"><ele>403.89</ele><time>2016-10-09T09:27:15Z</time></trkpt><trkpt lat="49.702752" lon="5.816875"><ele>409.66</ele><time>2016-10-09T09:27:16Z</time></trkpt><trkpt lat="49.702745" lon="5.816895"><ele>407.26</ele><time>2016-10-09T09:27:17Z</time></trkpt><trkpt lat="49.702740" lon="5.816917"><ele>401.97</ele><time>2016-10-09T09:27:18Z</time></trkpt><trkpt lat="49.702732" lon="5.816935"><ele>409.18</ele><time>2016-10-09T09:27:19Z</time></trkpt><trkpt lat="49.702722" lon="5.816938"><ele>404.85</ele><time>2016-10-09T09:27:20Z</time></trkpt><trkpt lat="49.702709" lon="5.816967"><ele>403.89</ele><time>2016-10-09T09:27:21Z</time></trkpt><trkpt lat="49.702699" lon="5.817049"><ele>406.29</ele><time>2016-10-09T09:27:23Z</time></trkpt><trkpt lat="49.702693" lon="5.817070"><ele>401.97</ele><time>2016-10-09T09:27:24Z</time></trkpt><trkpt lat="49.702697" lon="5.817109"><ele>409.18</ele><time>2016-10-09T09:27:25Z</time></trkpt><trkpt lat="49.702723" lon="5.817282"><ele>408.22</ele><time>2016-10-09T09:27:29Z</time></trkpt><trkpt lat="49.702731" lon="5.817320"><ele>404.37</ele><time>2016-10-09T09:27:30Z</time></trkpt><trkpt lat="49.702743" lon="5.817359"><ele>404.85</ele><time>2016-10-09T09:27:31Z</time></trkpt><trkpt lat="49.702751" lon="5.817401"><ele>408.22</ele><time>2016-10-09T09:27:32Z</time></trkpt><trkpt lat="49.702761" lon="5.817440"><ele>404.85</ele><time>2016-10-09T09:27:33Z</time></trkpt><trkpt lat="49.702771" lon="5.817589"><ele>404.85</ele><time>2016-10-09T09:27:38Z</time></trkpt><trkpt lat="49.702706" lon="5.817629"><ele>404.37</ele><time>2016-10-09T09:27:42Z</time></trkpt><trkpt lat="49.702544" lon="5.817689"><ele>399.57</ele><time>2016-10-09T09:27:48Z</time></trkpt><trkpt lat="49.702432" lon="5.817646"><ele>399.57</ele><time>2016-10-09T09:27:52Z</time></trkpt><trkpt lat="49.702205" lon="5.817583"><ele>395.72</ele><time>2016-10-09T09:27:58Z</time></trkpt><trkpt lat="49.702178" lon="5.817594"><ele>399.08</ele><time>2016-10-09T09:27:59Z</time></trkpt><trkpt lat="49.702022" lon="5.817656"><ele>393.80</ele><time>2016-10-09T09:28:05Z</time></trkpt><trkpt lat="49.701991" lon="5.817651"><ele>402.45</ele><time>2016-10-09T09:28:06Z</time></trkpt><trkpt lat="49.701968" lon="5.817647"><ele>389.95</ele><time>2016-10-09T09:28:07Z</time></trkpt><trkpt lat="49.701940" lon="5.817639"><ele>403.41</ele><time>2016-10-09T09:28:08Z</time></trkpt><trkpt lat="49.701915" lon="5.817629"><ele>398.12</ele><time>2016-10-09T09:28:09Z</time></trkpt><trkpt lat="49.701806" lon="5.817641"><ele>400.05</ele><time>2016-10-09T09:28:13Z</time></trkpt><trkpt lat="49.701783" lon="5.817653"><ele>391.87</ele><time>2016-10-09T09:28:14Z</time></trkpt><trkpt lat="49.701758" lon="5.817665"><ele>392.84</ele><time>2016-10-09T09:28:15Z</time></trkpt><trkpt lat="49.701737" lon="5.817676"><ele>396.68</ele><time>2016-10-09T09:28:16Z</time></trkpt><trkpt lat="49.701701" lon="5.817705"><ele>401.01</ele><time>2016-10-09T09:28:18Z</time></trkpt><trkpt lat="49.701651" lon="5.817734"><ele>401.97</ele><time>2016-10-09T09:28:20Z</time></trkpt><trkpt lat="49.701579" lon="5.817758"><ele>404.85</ele><time>2016-10-09T09:28:23Z</time></trkpt><trkpt lat="49.701559" lon="5.817756"><ele>401.97</ele><time>2016-10-09T09:28:24Z</time></trkpt><trkpt lat="49.701542" lon="5.817747"><ele>396.20</ele><time>2016-10-09T09:28:25Z</time></trkpt><trkpt lat="49.701522" lon="5.817744"><ele>396.68</ele><time>2016-10-09T09:28:26Z</time></trkpt><trkpt lat="49.701476" lon="5.817746"><ele>402.93</ele><time>2016-10-09T09:28:28Z</time></trkpt><trkpt lat="49.701451" lon="5.817751"><ele>402.93</ele><time>2016-10-09T09:28:29Z</time></trkpt><trkpt lat="49.701422" lon="5.817766"><ele>396.20</ele><time>2016-10-09T09:28:30Z</time></trkpt><trkpt lat="49.701396" lon="5.817777"><ele>402.45</ele><time>2016-10-09T09:28:31Z</time></trkpt><trkpt lat="49.701263" lon="5.817815"><ele>402.93</ele><time>2016-10-09T09:28:37Z</time></trkpt><trkpt lat="49.701208" lon="5.817649"><ele>400.05</ele><time>2016-10-09T09:28:42Z</time></trkpt><trkpt lat="49.701211" lon="5.817360"><ele>398.60</ele><time>2016-10-09T09:28:47Z</time></trkpt><trkpt lat="49.701172" lon="5.816802"><ele>397.16</ele><time>2016-10-09T09:28:56Z</time></trkpt><trkpt lat="49.701102" lon="5.816736"><ele>392.84</ele><time>2016-10-09T09:28:58Z</time></trkpt><trkpt lat="49.701066" lon="5.816723"><ele>398.12</ele><time>2016-10-09T09:28:59Z</time></trkpt><trkpt lat="49.701035" lon="5.816726"><ele>394.28</ele><time>2016-10-09T09:29:00Z</time></trkpt><trkpt lat="49.701004" lon="5.816733"><ele>399.57</ele><time>2016-10-09T09:29:01Z</time></trkpt><trkpt lat="49.700976" lon="5.816750"><ele>395.24</ele><time>2016-10-09T09:29:02Z</time></trkpt><trkpt lat="49.700946" lon="5.816768"><ele>392.36</ele><time>2016-10-09T09:29:03Z</time></trkpt><trkpt lat="49.700714" lon="5.816952"><ele>394.76</ele><time>2016-10-09T09:29:13Z</time></trkpt><trkpt lat="49.700700" lon="5.816977"><ele>401.49</ele><time>2016-10-09T09:29:14Z</time></trkpt><trkpt lat="49.700682" lon="5.816994"><ele>408.22</ele><time>2016-10-09T09:29:15Z</time></trkpt><trkpt lat="49.700664" lon="5.817000"><ele>402.93</ele><time>2016-10-09T09:29:16Z</time></trkpt><trkpt lat="49.700642" lon="5.817000"><ele>399.08</ele><time>2016-10-09T09:29:17Z</time></trkpt><trkpt lat="49.700622" lon="5.816999"><ele>400.53</ele><time>2016-10-09T09:29:18Z</time></trkpt><trkpt lat="49.700610" lon="5.816999"><ele>404.37</ele><time>2016-10-09T09:29:19Z</time></trkpt><trkpt lat="49.700596" lon="5.817001"><ele>396.68</ele><time>2016-10-09T09:29:20Z</time></trkpt><trkpt lat="49.700575" lon="5.817001"><ele>402.45</ele><time>2016-10-09T09:29:21Z</time></trkpt><trkpt lat="49.700498" lon="5.817014"><ele>398.60</ele><time>2016-10-09T09:29:24Z</time></trkpt><trkpt lat="49.700422" lon="5.817013"><ele>400.05</ele><time>2016-10-09T09:29:27Z</time></trkpt><trkpt lat="49.700360" lon="5.817025"><ele>404.37</ele><time>2016-10-09T09:29:29Z</time></trkpt><trkpt lat="49.700332" lon="5.817028"><ele>401.01</ele><time>2016-10-09T09:29:30Z</time></trkpt><trkpt lat="49.700104" lon="5.817027"><ele>401.97</ele><time>2016-10-09T09:29:36Z</time></trkpt><trkpt lat="49.700053" lon="5.817269"><ele>403.41</ele><time>2016-10-09T09:29:42Z</time></trkpt><trkpt lat="49.700064" lon="5.817353"><ele>402.93</ele><time>2016-10-09T09:29:44Z</time></trkpt><trkpt lat="49.700070" lon="5.817433"><ele>403.89</ele><time>2016-10-09T09:29:46Z</time></trkpt><trkpt lat="49.700074" lon="5.817521"><ele>407.26</ele><time>2016-10-09T09:29:48Z</time></trkpt><trkpt lat="49.700074" lon="5.817564"><ele>403.41</ele><time>2016-10-09T09:29:49Z</time></trkpt><trkpt lat="49.700073" lon="5.817604"><ele>407.26</ele><time>2016-10-09T09:29:50Z</time></trkpt><trkpt lat="49.700074" lon="5.817640"><ele>403.41</ele><time>2016-10-09T09:29:51Z</time></trkpt><trkpt lat="49.700079" lon="5.817672"><ele>407.26</ele><time>2016-10-09T09:29:52Z</time></trkpt><trkpt lat="49.700087" lon="5.817745"><ele>403.41</ele><time>2016-10-09T09:29:54Z</time></trkpt><trkpt lat="49.700085" lon="5.817862"><ele>408.70</ele><time>2016-10-09T09:29:57Z</time></trkpt><trkpt lat="49.700082" lon="5.817889"><ele>403.41</ele><time>2016-10-09T09:29:58Z</time></trkpt><trkpt lat="49.700081" lon="5.817910"><ele>409.66</ele><time>2016-10-09T09:29:59Z</time></trkpt><trkpt lat="49.700050" lon="5.818088"><ele>405.33</ele><time>2016-10-09T09:30:04Z</time></trkpt><trkpt lat="49.700039" lon="5.818143"><ele>408.70</ele><time>2016-10-09T09:30:05Z</time></trkpt><trkpt lat="49.700020" lon="5.818409"><ele>409.18</ele><time>2016-10-09T09:30:11Z</time></trkpt><trkpt lat="49.700003" lon="5.818767"><ele>413.50</ele><time>2016-10-09T09:30:20Z</time></trkpt><trkpt lat="49.699941" lon="5.818878"><ele>409.18</ele><time>2016-10-09T09:30:23Z</time></trkpt><trkpt lat="49.699844" lon="5.818894"><ele>413.50</ele><time>2016-10-09T09:30:27Z</time></trkpt><trkpt lat="49.699817" lon="5.818892"><ele>410.62</ele><time>2016-10-09T09:30:28Z</time></trkpt><trkpt lat="49.699534" lon="5.818785"><ele>413.98</ele><time>2016-10-09T09:30:37Z</time></trkpt><trkpt lat="49.699500" lon="5.818774"><ele>411.10</ele><time>2016-10-09T09:30:38Z</time></trkpt><trkpt lat="49.699400" lon="5.818744"><ele>415.91</ele><time>2016-10-09T09:30:41Z</time></trkpt><trkpt lat="49.699364" lon="5.818732"><ele>412.06</ele><time>2016-10-09T09:30:42Z</time></trkpt><trkpt lat="49.699282" lon="5.818696"><ele>408.70</ele><time>2016-10-09T09:30:44Z</time></trkpt><trkpt lat="49.699239" lon="5.818683"><ele>413.98</ele><time>2016-10-09T09:30:45Z</time></trkpt><trkpt lat="49.698737" lon="5.818444"><ele>414.47</ele><time>2016-10-09T09:31:00Z</time></trkpt><trkpt lat="49.698677" lon="5.818407"><ele>409.66</ele><time>2016-10-09T09:31:02Z</time></trkpt><trkpt lat="49.698644" lon="5.818389"><ele>416.39</ele><time>2016-10-09T09:31:03Z</time></trkpt><trkpt lat="49.698615" lon="5.818376"><ele>415.43</ele><time>2016-10-09T09:31:04Z</time></trkpt><trkpt lat="49.698587" lon="5.818364"><ele>411.10</ele><time>2016-10-09T09:31:05Z</time></trkpt><trkpt lat="49.698557" lon="5.818347"><ele>416.39</ele><time>2016-10-09T09:31:06Z</time></trkpt><trkpt lat="49.698454" lon="5.818295"><ele>409.18</ele><time>2016-10-09T09:31:09Z</time></trkpt><trkpt lat="49.698413" lon="5.818271"><ele>416.87</ele><time>2016-10-09T09:31:10Z</time></trkpt><trkpt lat="49.698319" lon="5.818232"><ele>413.50</ele><time>2016-10-09T09:31:12Z</time></trkpt><trkpt lat="49.698271" lon="5.818214"><ele>416.87</ele><time>2016-10-09T09:31:13Z</time></trkpt><trkpt lat="49.698222" lon="5.818193"><ele>412.54</ele><time>2016-10-09T09:31:14Z</time></trkpt><trkpt lat="49.698173" lon="5.818167"><ele>416.87</ele><time>2016-10-09T09:31:15Z</time></trkpt><trkpt lat="49.697394" lon="5.817664"><ele>414.47</ele><time>2016-10-09T09:31:28Z</time></trkpt><trkpt lat="49.697258" lon="5.817571"><ele>410.14</ele><time>2016-10-09T09:31:30Z</time></trkpt><trkpt lat="49.697188" lon="5.817535"><ele>413.50</ele><time>2016-10-09T09:31:31Z</time></trkpt><trkpt lat="49.697109" lon="5.817508"><ele>413.50</ele><time>2016-10-09T09:31:32Z</time></trkpt><trkpt lat="49.696845" lon="5.817412"><ele>411.58</ele><time>2016-10-09T09:31:35Z</time></trkpt><trkpt lat="49.695778" lon="5.817018"><ele>408.70</ele><time>2016-10-09T09:31:46Z</time></trkpt><trkpt lat="49.695568" lon="5.817005"><ele>407.74</ele><time>2016-10-09T09:31:48Z</time></trkpt><trkpt lat="49.695171" lon="5.817032"><ele>402.93</ele><time>2016-10-09T09:31:52Z</time></trkpt><trkpt lat="49.695071" lon="5.817041"><ele>407.26</ele><time>2016-10-09T09:31:53Z</time></trkpt><trkpt lat="49.694868" lon="5.817076"><ele>403.89</ele><time>2016-10-09T09:31:55Z</time></trkpt><trkpt lat="49.694764" lon="5.817100"><ele>404.37</ele><time>2016-10-09T09:31:56Z</time></trkpt><trkpt lat="49.694658" lon="5.817132"><ele>407.74</ele><time>2016-10-09T09:31:57Z</time></trkpt><trkpt lat="49.694554" lon="5.817177"><ele>403.89</ele><time>2016-10-09T09:31:58Z</time></trkpt><trkpt lat="49.693813" lon="5.817527"><ele>400.05</ele><time>2016-10-09T09:32:05Z</time></trkpt><trkpt lat="49.693055" lon="5.817849"><ele>396.20</ele><time>2016-10-09T09:32:12Z</time></trkpt><trkpt lat="49.692863" lon="5.817981"><ele>397.64</ele><time>2016-10-09T09:32:14Z</time></trkpt><trkpt lat="49.692789" lon="5.818061"><ele>396.20</ele><time>2016-10-09T09:32:15Z</time></trkpt><trkpt lat="49.692695" lon="5.818166"><ele>392.36</ele><time>2016-10-09T09:32:17Z</time></trkpt><trkpt lat="49.692659" lon="5.818212"><ele>391.39</ele><time>2016-10-09T09:32:18Z</time></trkpt><trkpt lat="49.692619" lon="5.818246"><ele>390.43</ele><time>2016-10-09T09:32:19Z</time></trkpt><trkpt lat="49.692576" lon="5.818268"><ele>393.80</ele><time>2016-10-09T09:32:20Z</time></trkpt><trkpt lat="49.692529" lon="5.818275"><ele>394.76</ele><time>2016-10-09T09:32:21Z</time></trkpt><trkpt lat="49.692482" lon="5.818274"><ele>388.51</ele><time>2016-10-09T09:32:22Z</time></trkpt><trkpt lat="49.692431" lon="5.818266"><ele>393.32</ele><time>2016-10-09T09:32:23Z</time></trkpt><trkpt lat="49.692378" lon="5.818251"><ele>392.84</ele><time>2016-10-09T09:32:24Z</time></trkpt><trkpt lat="49.692321" lon="5.818227"><ele>390.43</ele><time>2016-10-09T09:32:25Z</time></trkpt><trkpt lat="49.692262" lon="5.818205"><ele>393.32</ele><time>2016-10-09T09:32:26Z</time></trkpt><trkpt lat="49.692204" lon="5.818197"><ele>393.32</ele><time>2016-10-09T09:32:27Z</time></trkpt><trkpt lat="49.692150" lon="5.818212"><ele>391.87</ele><time>2016-10-09T09:32:28Z</time></trkpt><trkpt lat="49.692110" lon="5.818247"><ele>391.87</ele><time>2016-10-09T09:32:29Z</time></trkpt><trkpt lat="49.692085" lon="5.818296"><ele>392.84</ele><time>2016-10-09T09:32:30Z</time></trkpt><trkpt lat="49.692069" lon="5.818345"><ele>394.28</ele><time>2016-10-09T09:32:31Z</time></trkpt><trkpt lat="49.692060" lon="5.818391"><ele>398.12</ele><time>2016-10-09T09:32:32Z</time></trkpt><trkpt lat="49.692055" lon="5.818444"><ele>388.99</ele><time>2016-10-09T09:32:33Z</time></trkpt><trkpt lat="49.692051" lon="5.818503"><ele>396.20</ele><time>2016-10-09T09:32:34Z</time></trkpt><trkpt lat="49.692047" lon="5.818560"><ele>392.84</ele><time>2016-10-09T09:32:35Z</time></trkpt><trkpt lat="49.692043" lon="5.818676"><ele>397.64</ele><time>2016-10-09T09:32:37Z</time></trkpt><trkpt lat="49.692036" lon="5.818735"><ele>388.99</ele><time>2016-10-09T09:32:38Z</time></trkpt><trkpt lat="49.692027" lon="5.818794"><ele>396.68</ele><time>2016-10-09T09:32:39Z</time></trkpt><trkpt lat="49.691919" lon="5.819150"><ele>396.68</ele><time>2016-10-09T09:32:45Z</time></trkpt><trkpt lat="49.691889" lon="5.819168"><ele>393.80</ele><time>2016-10-09T09:32:46Z</time></trkpt><trkpt lat="49.691858" lon="5.819176"><ele>400.05</ele><time>2016-10-09T09:32:47Z</time></trkpt><trkpt lat="49.691825" lon="5.819179"><ele>394.76</ele><time>2016-10-09T09:32:48Z</time></trkpt><trkpt lat="49.691740" lon="5.819191"><ele>394.28</ele><time>2016-10-09T09:32:50Z</time></trkpt><trkpt lat="49.691433" lon="5.819067"><ele>395.24</ele><time>2016-10-09T09:32:58Z</time></trkpt><trkpt lat="49.691342" lon="5.819040"><ele>394.76</ele><time>2016-10-09T09:33:00Z</time></trkpt><trkpt lat="49.691302" lon="5.819047"><ele>398.12</ele><time>2016-10-09T09:33:01Z</time></trkpt><trkpt lat="49.691271" lon="5.819070"><ele>394.28</ele><time>2016-10-09T09:33:02Z</time></trkpt><trkpt lat="49.691251" lon="5.819108"><ele>394.28</ele><time>2016-10-09T09:33:03Z</time></trkpt><trkpt lat="49.691237" lon="5.819153"><ele>393.80</ele><time>2016-10-09T09:33:04Z</time></trkpt><trkpt lat="49.691225" lon="5.819199"><ele>395.72</ele><time>2016-10-09T09:33:05Z</time></trkpt><trkpt lat="49.691205" lon="5.819306"><ele>392.84</ele><time>2016-10-09T09:33:07Z</time></trkpt><trkpt lat="49.691193" lon="5.819358"><ele>398.60</ele><time>2016-10-09T09:33:08Z</time></trkpt><trkpt lat="49.691182" lon="5.819406"><ele>394.76</ele><time>2016-10-09T09:33:09Z</time></trkpt><trkpt lat="49.691171" lon="5.819454"><ele>400.53</ele><time>2016-10-09T09:33:10Z</time></trkpt><trkpt lat="49.691159" lon="5.819507"><ele>396.68</ele><time>2016-10-09T09:33:11Z</time></trkpt><trkpt lat="49.691103" lon="5.819707"><ele>401.97</ele><time>2016-10-09T09:33:15Z</time></trkpt><trkpt lat="49.691093" lon="5.819754"><ele>397.16</ele><time>2016-10-09T09:33:16Z</time></trkpt><trkpt lat="49.691087" lon="5.819846"><ele>401.01</ele><time>2016-10-09T09:33:18Z</time></trkpt><trkpt lat="49.691085" lon="5.819980"><ele>398.60</ele><time>2016-10-09T09:33:21Z</time></trkpt><trkpt lat="49.691103" lon="5.820230"><ele>405.33</ele><time>2016-10-09T09:33:27Z</time></trkpt><trkpt lat="49.691098" lon="5.820280"><ele>400.53</ele><time>2016-10-09T09:33:28Z</time></trkpt><trkpt lat="49.691057" lon="5.820450"><ele>403.41</ele><time>2016-10-09T09:33:32Z</time></trkpt><trkpt lat="49.690978" lon="5.820552"><ele>398.12</ele><time>2016-10-09T09:33:34Z</time></trkpt><trkpt lat="49.690939" lon="5.820560"><ele>403.89</ele><time>2016-10-09T09:33:35Z</time></trkpt><trkpt lat="49.690901" lon="5.820555"><ele>399.08</ele><time>2016-10-09T09:33:36Z</time></trkpt><trkpt lat="49.690859" lon="5.820547"><ele>402.45</ele><time>2016-10-09T09:33:37Z</time></trkpt><trkpt lat="49.690412" lon="5.820569"><ele>403.41</ele><time>2016-10-09T09:33:47Z</time></trkpt><trkpt lat="49.690369" lon="5.820553"><ele>402.45</ele><time>2016-10-09T09:33:48Z</time></trkpt><trkpt lat="49.690329" lon="5.820524"><ele>401.49</ele><time>2016-10-09T09:33:49Z</time></trkpt><trkpt lat="49.690199" lon="5.820438"><ele>401.97</ele><time>2016-10-09T09:33:52Z</time></trkpt><trkpt lat="49.690154" lon="5.820419"><ele>401.49</ele><time>2016-10-09T09:33:53Z</time></trkpt><trkpt lat="49.690110" lon="5.820404"><ele>404.37</ele><time>2016-10-09T09:33:54Z</time></trkpt><trkpt lat="49.690068" lon="5.820386"><ele>401.01</ele><time>2016-10-09T09:33:55Z</time></trkpt><trkpt lat="49.689606" lon="5.819879"><ele>399.57</ele><time>2016-10-09T09:34:06Z</time></trkpt><trkpt lat="49.689562" lon="5.819825"><ele>402.93</ele><time>2016-10-09T09:34:07Z</time></trkpt><trkpt lat="49.688988" lon="5.819350"><ele>402.93</ele><time>2016-10-09T09:34:20Z</time></trkpt><trkpt lat="49.688947" lon="5.819305"><ele>403.41</ele><time>2016-10-09T09:34:21Z</time></trkpt><trkpt lat="49.688911" lon="5.819256"><ele>397.64</ele><time>2016-10-09T09:34:22Z</time></trkpt><trkpt lat="49.688881" lon="5.819197"><ele>404.37</ele><time>2016-10-09T09:34:23Z</time></trkpt><trkpt lat="49.688856" lon="5.819129"><ele>401.49</ele><time>2016-10-09T09:34:24Z</time></trkpt><trkpt lat="49.688834" lon="5.819055"><ele>402.45</ele><time>2016-10-09T09:34:25Z</time></trkpt><trkpt lat="49.688781" lon="5.818917"><ele>403.89</ele><time>2016-10-09T09:34:27Z</time></trkpt><trkpt lat="49.688747" lon="5.818865"><ele>401.49</ele><time>2016-10-09T09:34:28Z</time></trkpt><trkpt lat="49.688705" lon="5.818822"><ele>399.08</ele><time>2016-10-09T09:34:29Z</time></trkpt><trkpt lat="49.688652" lon="5.818798"><ele>401.97</ele><time>2016-10-09T09:34:30Z</time></trkpt><trkpt lat="49.688599" lon="5.818793"><ele>401.01</ele><time>2016-10-09T09:34:31Z</time></trkpt><trkpt lat="49.688547" lon="5.818805"><ele>402.45</ele><time>2016-10-09T09:34:32Z</time></trkpt><trkpt lat="49.688497" lon="5.818834"><ele>402.45</ele><time>2016-10-09T09:34:33Z</time></trkpt><trkpt lat="49.688452" lon="5.818866"><ele>401.97</ele><time>2016-10-09T09:34:34Z</time></trkpt><trkpt lat="49.688415" lon="5.818912"><ele>404.37</ele><time>2016-10-09T09:34:35Z</time></trkpt><trkpt lat="49.688380" lon="5.818970"><ele>399.57</ele><time>2016-10-09T09:34:36Z</time></trkpt><trkpt lat="49.688353" lon="5.819038"><ele>403.89</ele><time>2016-10-09T09:34:37Z</time></trkpt><trkpt lat="49.688342" lon="5.819119"><ele>400.05</ele><time>2016-10-09T09:34:38Z</time></trkpt><trkpt lat="49.688343" lon="5.819196"><ele>404.37</ele><time>2016-10-09T09:34:39Z</time></trkpt><trkpt lat="49.688351" lon="5.819270"><ele>404.85</ele><time>2016-10-09T09:34:40Z</time></trkpt><trkpt lat="49.688352" lon="5.819340"><ele>403.41</ele><time>2016-10-09T09:34:41Z</time></trkpt><trkpt lat="49.688347" lon="5.819409"><ele>402.93</ele><time>2016-10-09T09:34:42Z</time></trkpt><trkpt lat="49.688331" lon="5.819464"><ele>403.89</ele><time>2016-10-09T09:34:43Z</time></trkpt><trkpt lat="49.688303" lon="5.819518"><ele>404.37</ele><time>2016-10-09T09:34:44Z</time></trkpt><trkpt lat="49.688270" lon="5.819572"><ele>404.85</ele><time>2016-10-09T09:34:45Z</time></trkpt><trkpt lat="49.688079" lon="5.819847"><ele>405.33</ele><time>2016-10-09T09:34:54Z</time></trkpt><trkpt lat="49.688075" lon="5.819877"><ele>404.85</ele><time>2016-10-09T09:34:55Z</time></trkpt><trkpt lat="49.688070" lon="5.819901"><ele>406.29</ele><time>2016-10-09T09:34:56Z</time></trkpt><trkpt lat="49.687988" lon="5.820035"><ele>405.33</ele><time>2016-10-09T09:35:02Z</time></trkpt><trkpt lat="49.687962" lon="5.820078"><ele>405.81</ele><time>2016-10-09T09:35:17Z</time></trkpt><trkpt lat="49.687961" lon="5.820093"><ele>399.08</ele><time>2016-10-09T09:35:23Z</time></trkpt><trkpt lat="49.687983" lon="5.820122"><ele>402.93</ele><time>2016-10-09T09:35:25Z</time></trkpt><trkpt lat="49.688063" lon="5.820121"><ele>407.74</ele><time>2016-10-09T09:35:28Z</time></trkpt><trkpt lat="49.688100" lon="5.820092"><ele>402.93</ele><time>2016-10-09T09:35:29Z</time></trkpt><trkpt lat="49.688135" lon="5.820064"><ele>405.33</ele><time>2016-10-09T09:35:30Z</time></trkpt><trkpt lat="49.688240" lon="5.819965"><ele>407.26</ele><time>2016-10-09T09:35:33Z</time></trkpt><trkpt lat="49.688342" lon="5.819819"><ele>401.49</ele><time>2016-10-09T09:35:36Z</time></trkpt><trkpt lat="49.688382" lon="5.819763"><ele>404.85</ele><time>2016-10-09T09:35:37Z</time></trkpt><trkpt lat="49.688428" lon="5.819716"><ele>404.37</ele><time>2016-10-09T09:35:38Z</time></trkpt><trkpt lat="49.688480" lon="5.819682"><ele>403.89</ele><time>2016-10-09T09:35:39Z</time></trkpt><trkpt lat="49.688537" lon="5.819654"><ele>403.89</ele><time>2016-10-09T09:35:40Z</time></trkpt><trkpt lat="49.688596" lon="5.819635"><ele>403.41</ele><time>2016-10-09T09:35:41Z</time></trkpt><trkpt lat="49.688719" lon="5.819587"><ele>403.41</ele><time>2016-10-09T09:35:43Z</time></trkpt><trkpt lat="49.688776" lon="5.819540"><ele>402.45</ele><time>2016-10-09T09:35:44Z</time></trkpt><trkpt lat="49.688823" lon="5.819476"><ele>402.93</ele><time>2016-10-09T09:35:45Z</time></trkpt><trkpt lat="49.688855" lon="5.819397"><ele>402.45</ele><time>2016-10-09T09:35:46Z</time></trkpt><trkpt lat="49.688879" lon="5.819310"><ele>401.97</ele><time>2016-10-09T09:35:47Z</time></trkpt><trkpt lat="49.688891" lon="5.819220"><ele>401.97</ele><time>2016-10-09T09:35:48Z</time></trkpt><trkpt lat="49.688898" lon="5.819123"><ele>400.53</ele><time>2016-10-09T09:35:49Z</time></trkpt><trkpt lat="49.688919" lon="5.818950"><ele>401.01</ele><time>2016-10-09T09:35:51Z</time></trkpt><trkpt lat="49.688942" lon="5.818896"><ele>401.49</ele><time>2016-10-09T09:35:52Z</time></trkpt><trkpt lat="49.688992" lon="5.818778"><ele>400.53</ele><time>2016-10-09T09:35:54Z</time></trkpt><trkpt lat="49.689082" lon="5.818583"><ele>400.05</ele><time>2016-10-09T09:35:57Z</time></trkpt><trkpt lat="49.689106" lon="5.818523"><ele>400.05</ele><time>2016-10-09T09:35:58Z</time></trkpt><trkpt lat="49.689245" lon="5.818349"><ele>398.60</ele><time>2016-10-09T09:36:06Z</time></trkpt><trkpt lat="49.689260" lon="5.818337"><ele>394.76</ele><time>2016-10-09T09:36:20Z</time></trkpt><trkpt lat="49.689262" lon="5.818329"><ele>394.28</ele><time>2016-10-09T09:36:22Z</time></trkpt><trkpt lat="49.689224" lon="5.818245"><ele>390.43</ele><time>2016-10-09T09:36:31Z</time></trkpt><trkpt lat="49.689237" lon="5.818151"><ele>395.24</ele><time>2016-10-09T09:36:38Z</time></trkpt><trkpt lat="49.689236" lon="5.818138"><ele>393.80</ele><time>2016-10-09T09:36:39Z</time></trkpt><trkpt lat="49.689235" lon="5.818101"><ele>391.39</ele><time>2016-10-09T09:36:41Z</time></trkpt><trkpt lat="49.689235" lon="5.818075"><ele>391.39</ele><time>2016-10-09T09:36:42Z</time></trkpt><trkpt lat="49.689387" lon="5.817778"><ele>389.95</ele><time>2016-10-09T09:36:54Z</time></trkpt><trkpt lat="49.689541" lon="5.817563"><ele>389.95</ele><time>2016-10-09T09:37:02Z</time></trkpt><trkpt lat="49.689539" lon="5.817538"><ele>387.07</ele><time>2016-10-09T09:37:03Z</time></trkpt><trkpt lat="49.689540" lon="5.817530"><ele>389.95</ele><time>2016-10-09T09:37:04Z</time></trkpt><trkpt lat="49.689542" lon="5.817524"><ele>389.47</ele><time>2016-10-09T09:37:06Z</time></trkpt><trkpt lat="49.689669" lon="5.817462"><ele>389.47</ele><time>2016-10-09T09:37:07Z</time></trkpt><trkpt lat="49.689745" lon="5.817372"><ele>388.99</ele><time>2016-10-09T09:37:08Z</time></trkpt><trkpt lat="49.689764" lon="5.817041"><ele>389.47</ele><time>2016-10-09T09:37:11Z</time></trkpt><trkpt lat="49.689846" lon="5.816057"><ele>386.11</ele><time>2016-10-09T09:37:18Z</time></trkpt><trkpt lat="49.689890" lon="5.814994"><ele>383.22</ele><time>2016-10-09T09:37:26Z</time></trkpt><trkpt lat="49.689876" lon="5.814354"><ele>381.78</ele><time>2016-10-09T09:37:34Z</time></trkpt><trkpt lat="49.689688" lon="5.814333"><ele>378.90</ele><time>2016-10-09T09:37:38Z</time></trkpt><trkpt lat="49.689582" lon="5.814338"><ele>382.74</ele><time>2016-10-09T09:37:40Z</time></trkpt><trkpt lat="49.689534" lon="5.814351"><ele>382.26</ele><time>2016-10-09T09:37:41Z</time></trkpt><trkpt lat="49.689369" lon="5.814422"><ele>382.26</ele><time>2016-10-09T09:37:45Z</time></trkpt><trkpt lat="49.689325" lon="5.814448"><ele>372.17</ele><time>2016-10-09T09:37:47Z</time></trkpt><trkpt lat="49.689309" lon="5.814440"><ele>388.03</ele><time>2016-10-09T09:37:48Z</time></trkpt><trkpt lat="49.689288" lon="5.814421"><ele>383.70</ele><time>2016-10-09T09:37:49Z</time></trkpt><trkpt lat="49.689277" lon="5.814407"><ele>378.90</ele><time>2016-10-09T09:37:51Z</time></trkpt><trkpt lat="49.689269" lon="5.814366"><ele>380.34</ele><time>2016-10-09T09:37:54Z</time></trkpt><trkpt lat="49.689312" lon="5.814317"><ele>380.34</ele><time>2016-10-09T09:38:04Z</time></trkpt><trkpt lat="49.689266" lon="5.814332"><ele>373.61</ele><time>2016-10-09T09:38:07Z</time></trkpt><trkpt lat="49.689255" lon="5.814343"><ele>384.66</ele><time>2016-10-09T09:38:08Z</time></trkpt><trkpt lat="49.689244" lon="5.814354"><ele>378.42</ele><time>2016-10-09T09:38:09Z</time></trkpt><trkpt lat="49.689229" lon="5.814362"><ele>381.78</ele><time>2016-10-09T09:38:10Z</time></trkpt><trkpt lat="49.689183" lon="5.814387"><ele>376.49</ele><time>2016-10-09T09:38:13Z</time></trkpt><trkpt lat="49.689166" lon="5.814398"><ele>377.45</ele><time>2016-10-09T09:38:14Z</time></trkpt><trkpt lat="49.689149" lon="5.814411"><ele>381.78</ele><time>2016-10-09T09:38:15Z</time></trkpt><trkpt lat="49.689128" lon="5.814424"><ele>385.15</ele><time>2016-10-09T09:38:16Z</time></trkpt><trkpt lat="49.689106" lon="5.814436"><ele>381.30</ele><time>2016-10-09T09:38:17Z</time></trkpt><trkpt lat="49.689082" lon="5.814440"><ele>375.53</ele><time>2016-10-09T09:38:18Z</time></trkpt><trkpt lat="49.689059" lon="5.814435"><ele>376.49</ele><time>2016-10-09T09:38:19Z</time></trkpt><trkpt lat="49.689037" lon="5.814420"><ele>382.74</ele><time>2016-10-09T09:38:20Z</time></trkpt><trkpt lat="49.689018" lon="5.814400"><ele>382.26</ele><time>2016-10-09T09:38:21Z</time></trkpt><trkpt lat="49.688988" lon="5.814355"><ele>377.94</ele><time>2016-10-09T09:38:23Z</time></trkpt><trkpt lat="49.688974" lon="5.814326"><ele>382.26</ele><time>2016-10-09T09:38:24Z</time></trkpt><trkpt lat="49.688957" lon="5.814276"><ele>383.70</ele><time>2016-10-09T09:38:26Z</time></trkpt><trkpt lat="49.688945" lon="5.814057"><ele>384.18</ele><time>2016-10-09T09:38:30Z</time></trkpt><trkpt lat="49.688889" lon="5.813938"><ele>388.03</ele><time>2016-10-09T09:38:38Z</time></trkpt><trkpt lat="49.688881" lon="5.813933"><ele>387.07</ele><time>2016-10-09T09:38:39Z</time></trkpt><trkpt lat="49.688864" lon="5.813901"><ele>383.70</ele><time>2016-10-09T09:38:41Z</time></trkpt><trkpt lat="49.688856" lon="5.813880"><ele>378.42</ele><time>2016-10-09T09:38:42Z</time></trkpt><trkpt lat="49.688839" lon="5.813858"><ele>383.22</ele><time>2016-10-09T09:38:43Z</time></trkpt><trkpt lat="49.688797" lon="5.813847"><ele>387.07</ele><time>2016-10-09T09:38:45Z</time></trkpt><trkpt lat="49.688768" lon="5.813837"><ele>384.18</ele><time>2016-10-09T09:38:46Z</time></trkpt><trkpt lat="49.688703" lon="5.813781"><ele>389.95</ele><time>2016-10-09T09:38:48Z</time></trkpt><trkpt lat="49.688673" lon="5.813755"><ele>386.11</ele><time>2016-10-09T09:38:49Z</time></trkpt><trkpt lat="49.688565" lon="5.813607"><ele>387.55</ele><time>2016-10-09T09:38:55Z</time></trkpt><trkpt lat="49.688605" lon="5.813401"><ele>386.11</ele><time>2016-10-09T09:39:00Z</time></trkpt><trkpt lat="49.688628" lon="5.813296"><ele>382.26</ele><time>2016-10-09T09:39:02Z</time></trkpt><trkpt lat="49.688639" lon="5.813245"><ele>384.18</ele><time>2016-10-09T09:39:03Z</time></trkpt><trkpt lat="49.688686" lon="5.813084"><ele>385.15</ele><time>2016-10-09T09:39:07Z</time></trkpt><trkpt lat="49.688718" lon="5.813024"><ele>383.70</ele><time>2016-10-09T09:39:09Z</time></trkpt><trkpt lat="49.688974" lon="5.812526"><ele>381.78</ele><time>2016-10-09T09:39:20Z</time></trkpt><trkpt lat="49.689031" lon="5.812398"><ele>381.78</ele><time>2016-10-09T09:39:22Z</time></trkpt><trkpt lat="49.689078" lon="5.812228"><ele>382.26</ele><time>2016-10-09T09:39:24Z</time></trkpt><trkpt lat="49.689071" lon="5.811791"><ele>380.82</ele><time>2016-10-09T09:39:30Z</time></trkpt><trkpt lat="49.688955" lon="5.811379"><ele>376.01</ele><time>2016-10-09T09:39:38Z</time></trkpt><trkpt lat="49.688979" lon="5.811371"><ele>381.30</ele><time>2016-10-09T09:39:39Z</time></trkpt><trkpt lat="49.688976" lon="5.811371"><ele>379.38</ele><time>2016-10-09T09:39:40Z</time></trkpt><trkpt lat="49.689009" lon="5.811430"><ele>380.34</ele><time>2016-10-09T09:39:44Z</time></trkpt><trkpt lat="49.689143" lon="5.811801"><ele>378.42</ele><time>2016-10-09T09:39:52Z</time></trkpt><trkpt lat="49.689183" lon="5.811936"><ele>376.97</ele><time>2016-10-09T09:39:55Z</time></trkpt><trkpt lat="49.689195" lon="5.811980"><ele>382.26</ele><time>2016-10-09T09:39:56Z</time></trkpt><trkpt lat="49.689208" lon="5.812028"><ele>379.38</ele><time>2016-10-09T09:39:57Z</time></trkpt><trkpt lat="49.689220" lon="5.812078"><ele>383.22</ele><time>2016-10-09T09:39:58Z</time></trkpt><trkpt lat="49.689233" lon="5.812128"><ele>379.86</ele><time>2016-10-09T09:39:59Z</time></trkpt><trkpt lat="49.689272" lon="5.812312"><ele>383.22</ele><time>2016-10-09T09:40:03Z</time></trkpt><trkpt lat="49.689262" lon="5.812394"><ele>381.78</ele><time>2016-10-09T09:40:05Z</time></trkpt><trkpt lat="49.689142" lon="5.812527"><ele>370.24</ele><time>2016-10-09T09:40:12Z</time></trkpt><trkpt lat="49.689132" lon="5.812532"><ele>386.59</ele><time>2016-10-09T09:40:13Z</time></trkpt><trkpt lat="49.689117" lon="5.812538"><ele>383.22</ele><time>2016-10-09T09:40:14Z</time></trkpt><trkpt lat="49.689079" lon="5.812552"><ele>382.74</ele><time>2016-10-09T09:40:16Z</time></trkpt><trkpt lat="49.688884" lon="5.812686"><ele>386.11</ele><time>2016-10-09T09:40:23Z</time></trkpt><trkpt lat="49.688861" lon="5.812702"><ele>381.78</ele><time>2016-10-09T09:40:24Z</time></trkpt><trkpt lat="49.688801" lon="5.812741"><ele>388.99</ele><time>2016-10-09T09:40:26Z</time></trkpt><trkpt lat="49.688767" lon="5.812762"><ele>379.86</ele><time>2016-10-09T09:40:27Z</time></trkpt><trkpt lat="49.688733" lon="5.812787"><ele>386.11</ele><time>2016-10-09T09:40:28Z</time></trkpt><trkpt lat="49.688594" lon="5.812970"><ele>387.07</ele><time>2016-10-09T09:40:33Z</time></trkpt><trkpt lat="49.688384" lon="5.813356"><ele>387.55</ele><time>2016-10-09T09:40:45Z</time></trkpt><trkpt lat="49.688342" lon="5.813481"><ele>387.07</ele><time>2016-10-09T09:40:52Z</time></trkpt><trkpt lat="49.688339" lon="5.813541"><ele>389.95</ele><time>2016-10-09T09:40:55Z</time></trkpt><trkpt lat="49.688336" lon="5.813565"><ele>386.11</ele><time>2016-10-09T09:40:56Z</time></trkpt><trkpt lat="49.688313" lon="5.813654"><ele>389.95</ele><time>2016-10-09T09:40:59Z</time></trkpt><trkpt lat="49.688305" lon="5.813690"><ele>383.70</ele><time>2016-10-09T09:41:00Z</time></trkpt><trkpt lat="49.688295" lon="5.813733"><ele>390.91</ele><time>2016-10-09T09:41:01Z</time></trkpt><trkpt lat="49.688283" lon="5.813779"><ele>386.59</ele><time>2016-10-09T09:41:02Z</time></trkpt><trkpt lat="49.688176" lon="5.814047"><ele>389.95</ele><time>2016-10-09T09:41:07Z</time></trkpt><trkpt lat="49.688155" lon="5.814111"><ele>382.26</ele><time>2016-10-09T09:41:08Z</time></trkpt><trkpt lat="49.688132" lon="5.814202"><ele>390.43</ele><time>2016-10-09T09:41:09Z</time></trkpt><trkpt lat="49.688077" lon="5.814365"><ele>386.11</ele><time>2016-10-09T09:41:11Z</time></trkpt><trkpt lat="49.688043" lon="5.814467"><ele>390.43</ele><time>2016-10-09T09:41:12Z</time></trkpt><trkpt lat="49.688020" lon="5.814555"><ele>387.55</ele><time>2016-10-09T09:41:13Z</time></trkpt><trkpt lat="49.687949" lon="5.814767"><ele>390.91</ele><time>2016-10-09T09:41:16Z</time></trkpt><trkpt lat="49.687925" lon="5.814827"><ele>386.11</ele><time>2016-10-09T09:41:17Z</time></trkpt><trkpt lat="49.687906" lon="5.814878"><ele>391.39</ele><time>2016-10-09T09:41:18Z</time></trkpt><trkpt lat="49.687890" lon="5.814933"><ele>383.70</ele><time>2016-10-09T09:41:19Z</time></trkpt><trkpt lat="49.687873" lon="5.814988"><ele>391.87</ele><time>2016-10-09T09:41:20Z</time></trkpt><trkpt lat="49.687835" lon="5.815086"><ele>386.59</ele><time>2016-10-09T09:41:22Z</time></trkpt><trkpt lat="49.687816" lon="5.815134"><ele>393.80</ele><time>2016-10-09T09:41:23Z</time></trkpt><trkpt lat="49.687789" lon="5.815193"><ele>386.59</ele><time>2016-10-09T09:41:24Z</time></trkpt><trkpt lat="49.687773" lon="5.815247"><ele>393.80</ele><time>2016-10-09T09:41:25Z</time></trkpt><trkpt lat="49.687743" lon="5.815368"><ele>389.47</ele><time>2016-10-09T09:41:27Z</time></trkpt><trkpt lat="49.687732" lon="5.815435"><ele>392.84</ele><time>2016-10-09T09:41:28Z</time></trkpt><trkpt lat="49.687691" lon="5.815636"><ele>396.68</ele><time>2016-10-09T09:41:31Z</time></trkpt><trkpt lat="49.687674" lon="5.815727"><ele>392.84</ele><time>2016-10-09T09:41:32Z</time></trkpt><trkpt lat="49.687603" lon="5.815989"><ele>394.76</ele><time>2016-10-09T09:41:35Z</time></trkpt><trkpt lat="49.687562" lon="5.816131"><ele>388.51</ele><time>2016-10-09T09:41:37Z</time></trkpt><trkpt lat="49.687543" lon="5.816178"><ele>392.84</ele><time>2016-10-09T09:41:38Z</time></trkpt><trkpt lat="49.687527" lon="5.816216"><ele>388.03</ele><time>2016-10-09T09:41:39Z</time></trkpt><trkpt lat="49.687513" lon="5.816256"><ele>396.68</ele><time>2016-10-09T09:41:40Z</time></trkpt><trkpt lat="49.687502" lon="5.816296"><ele>394.76</ele><time>2016-10-09T09:41:41Z</time></trkpt><trkpt lat="49.687429" lon="5.816483"><ele>394.28</ele><time>2016-10-09T09:41:47Z</time></trkpt><trkpt lat="49.687334" lon="5.816713"><ele>389.95</ele><time>2016-10-09T09:41:53Z</time></trkpt><trkpt lat="49.687318" lon="5.816734"><ele>391.87</ele><time>2016-10-09T09:41:54Z</time></trkpt><trkpt lat="49.687297" lon="5.816759"><ele>399.57</ele><time>2016-10-09T09:41:55Z</time></trkpt><trkpt lat="49.687277" lon="5.816788"><ele>391.39</ele><time>2016-10-09T09:41:56Z</time></trkpt><trkpt lat="49.687242" lon="5.816835"><ele>401.49</ele><time>2016-10-09T09:41:57Z</time></trkpt><trkpt lat="49.687213" lon="5.816875"><ele>396.68</ele><time>2016-10-09T09:41:58Z</time></trkpt><trkpt lat="49.687161" lon="5.816983"><ele>392.84</ele><time>2016-10-09T09:42:02Z</time></trkpt><trkpt lat="49.687142" lon="5.817003"><ele>396.68</ele><time>2016-10-09T09:42:04Z</time></trkpt><trkpt lat="49.687139" lon="5.817045"><ele>397.16</ele><time>2016-10-09T09:42:05Z</time></trkpt><trkpt lat="49.687151" lon="5.817086"><ele>396.20</ele><time>2016-10-09T09:42:06Z</time></trkpt><trkpt lat="49.687173" lon="5.817129"><ele>396.20</ele><time>2016-10-09T09:42:07Z</time></trkpt><trkpt lat="49.687202" lon="5.817163"><ele>396.68</ele><time>2016-10-09T09:42:08Z</time></trkpt><trkpt lat="49.687586" lon="5.817499"><ele>395.72</ele><time>2016-10-09T09:42:17Z</time></trkpt><trkpt lat="49.687631" lon="5.817555"><ele>394.28</ele><time>2016-10-09T09:42:18Z</time></trkpt><trkpt lat="49.687665" lon="5.817612"><ele>393.32</ele><time>2016-10-09T09:42:19Z</time></trkpt><trkpt lat="49.687674" lon="5.817665"><ele>395.72</ele><time>2016-10-09T09:42:20Z</time></trkpt><trkpt lat="49.687661" lon="5.817722"><ele>397.64</ele><time>2016-10-09T09:42:21Z</time></trkpt><trkpt lat="49.687636" lon="5.817785"><ele>397.16</ele><time>2016-10-09T09:42:22Z</time></trkpt><trkpt lat="49.687604" lon="5.817847"><ele>395.24</ele><time>2016-10-09T09:42:23Z</time></trkpt><trkpt lat="49.687571" lon="5.817911"><ele>392.36</ele><time>2016-10-09T09:42:24Z</time></trkpt><trkpt lat="49.687537" lon="5.817971"><ele>398.12</ele><time>2016-10-09T09:42:25Z</time></trkpt><trkpt lat="49.687500" lon="5.818028"><ele>393.80</ele><time>2016-10-09T09:42:26Z</time></trkpt><trkpt lat="49.687464" lon="5.818083"><ele>397.64</ele><time>2016-10-09T09:42:27Z</time></trkpt><trkpt lat="49.687429" lon="5.818132"><ele>391.87</ele><time>2016-10-09T09:42:28Z</time></trkpt><trkpt lat="49.687395" lon="5.818182"><ele>396.68</ele><time>2016-10-09T09:42:29Z</time></trkpt><trkpt lat="49.687285" lon="5.818306"><ele>392.36</ele><time>2016-10-09T09:42:32Z</time></trkpt><trkpt lat="49.687243" lon="5.818340"><ele>400.05</ele><time>2016-10-09T09:42:33Z</time></trkpt><trkpt lat="49.687049" lon="5.818314"><ele>395.72</ele><time>2016-10-09T09:42:38Z</time></trkpt><trkpt lat="49.686969" lon="5.818263"><ele>399.57</ele><time>2016-10-09T09:42:40Z</time></trkpt><trkpt lat="49.686933" lon="5.818240"><ele>399.57</ele><time>2016-10-09T09:42:41Z</time></trkpt><trkpt lat="49.686799" lon="5.818151"><ele>394.76</ele><time>2016-10-09T09:42:45Z</time></trkpt><trkpt lat="49.686765" lon="5.818120"><ele>401.49</ele><time>2016-10-09T09:42:46Z</time></trkpt><trkpt lat="49.686722" lon="5.818079"><ele>393.32</ele><time>2016-10-09T09:42:47Z</time></trkpt><trkpt lat="49.686678" lon="5.818036"><ele>402.45</ele><time>2016-10-09T09:42:48Z</time></trkpt><trkpt lat="49.686642" lon="5.817997"><ele>398.60</ele><time>2016-10-09T09:42:49Z</time></trkpt><trkpt lat="49.686610" lon="5.817957"><ele>401.97</ele><time>2016-10-09T09:42:50Z</time></trkpt><trkpt lat="49.686532" lon="5.817866"><ele>403.89</ele><time>2016-10-09T09:42:54Z</time></trkpt><trkpt lat="49.686511" lon="5.817867"><ele>399.08</ele><time>2016-10-09T09:42:55Z</time></trkpt><trkpt lat="49.686488" lon="5.817877"><ele>405.81</ele><time>2016-10-09T09:42:56Z</time></trkpt><trkpt lat="49.686466" lon="5.817892"><ele>403.41</ele><time>2016-10-09T09:42:57Z</time></trkpt><trkpt lat="49.686446" lon="5.817907"><ele>403.41</ele><time>2016-10-09T09:42:58Z</time></trkpt><trkpt lat="49.686435" lon="5.817936"><ele>403.41</ele><time>2016-10-09T09:42:59Z</time></trkpt><trkpt lat="49.686428" lon="5.817966"><ele>400.05</ele><time>2016-10-09T09:43:00Z</time></trkpt><trkpt lat="49.686424" lon="5.817999"><ele>402.45</ele><time>2016-10-09T09:43:01Z</time></trkpt><trkpt lat="49.686418" lon="5.818033"><ele>402.93</ele><time>2016-10-09T09:43:02Z</time></trkpt><trkpt lat="49.686409" lon="5.818070"><ele>402.93</ele><time>2016-10-09T09:43:03Z</time></trkpt><trkpt lat="49.686381" lon="5.818196"><ele>401.49</ele><time>2016-10-09T09:43:06Z</time></trkpt><trkpt lat="49.686367" lon="5.818286"><ele>406.29</ele><time>2016-10-09T09:43:08Z</time></trkpt><trkpt lat="49.686357" lon="5.818335"><ele>402.93</ele><time>2016-10-09T09:43:09Z</time></trkpt><trkpt lat="49.686299" lon="5.818615"><ele>408.70</ele><time>2016-10-09T09:43:15Z</time></trkpt><trkpt lat="49.686292" lon="5.818655"><ele>404.85</ele><time>2016-10-09T09:43:16Z</time></trkpt><trkpt lat="49.686281" lon="5.818690"><ele>408.70</ele><time>2016-10-09T09:43:17Z</time></trkpt><trkpt lat="49.686272" lon="5.818726"><ele>402.93</ele><time>2016-10-09T09:43:18Z</time></trkpt><trkpt lat="49.686266" lon="5.818761"><ele>408.70</ele><time>2016-10-09T09:43:19Z</time></trkpt><trkpt lat="49.686239" lon="5.818842"><ele>401.97</ele><time>2016-10-09T09:43:21Z</time></trkpt><trkpt lat="49.686222" lon="5.818891"><ele>406.77</ele><time>2016-10-09T09:43:22Z</time></trkpt><trkpt lat="49.686187" lon="5.818977"><ele>407.26</ele><time>2016-10-09T09:43:24Z</time></trkpt><trkpt lat="49.685906" lon="5.819269"><ele>410.62</ele><time>2016-10-09T09:43:33Z</time></trkpt><trkpt lat="49.685852" lon="5.819319"><ele>406.29</ele><time>2016-10-09T09:43:35Z</time></trkpt><trkpt lat="49.685828" lon="5.819341"><ele>413.50</ele><time>2016-10-09T09:43:36Z</time></trkpt><trkpt lat="49.685811" lon="5.819361"><ele>412.54</ele><time>2016-10-09T09:43:37Z</time></trkpt><trkpt lat="49.685772" lon="5.819388"><ele>404.37</ele><time>2016-10-09T09:43:39Z</time></trkpt><trkpt lat="49.685746" lon="5.819395"><ele>407.74</ele><time>2016-10-09T09:43:40Z</time></trkpt><trkpt lat="49.685706" lon="5.819428"><ele>412.06</ele><time>2016-10-09T09:43:42Z</time></trkpt><trkpt lat="49.685695" lon="5.819434"><ele>411.10</ele><time>2016-10-09T09:43:43Z</time></trkpt><trkpt lat="49.685630" lon="5.819402"><ele>411.10</ele><time>2016-10-09T09:43:55Z</time></trkpt><trkpt lat="49.685564" lon="5.819450"><ele>407.74</ele><time>2016-10-09T09:43:57Z</time></trkpt><trkpt lat="49.685527" lon="5.819480"><ele>412.54</ele><time>2016-10-09T09:43:58Z</time></trkpt><trkpt lat="49.685324" lon="5.819646"><ele>408.22</ele><time>2016-10-09T09:44:03Z</time></trkpt><trkpt lat="49.685282" lon="5.819677"><ele>411.10</ele><time>2016-10-09T09:44:04Z</time></trkpt><trkpt lat="49.685129" lon="5.819820"><ele>412.06</ele><time>2016-10-09T09:44:08Z</time></trkpt><trkpt lat="49.685092" lon="5.819853"><ele>409.66</ele><time>2016-10-09T09:44:09Z</time></trkpt><trkpt lat="49.685049" lon="5.819875"><ele>408.70</ele><time>2016-10-09T09:44:10Z</time></trkpt><trkpt lat="49.684988" lon="5.819925"><ele>410.14</ele><time>2016-10-09T09:44:11Z</time></trkpt><trkpt lat="49.684939" lon="5.819931"><ele>411.10</ele><time>2016-10-09T09:44:12Z</time></trkpt><trkpt lat="49.684896" lon="5.819915"><ele>409.66</ele><time>2016-10-09T09:44:13Z</time></trkpt><trkpt lat="49.684856" lon="5.819879"><ele>408.70</ele><time>2016-10-09T09:44:14Z</time></trkpt><trkpt lat="49.684819" lon="5.819786"><ele>411.10</ele><time>2016-10-09T09:44:15Z</time></trkpt><trkpt lat="49.684788" lon="5.819686"><ele>408.22</ele><time>2016-10-09T09:44:16Z</time></trkpt><trkpt lat="49.684754" lon="5.819578"><ele>413.02</ele><time>2016-10-09T09:44:17Z</time></trkpt><trkpt lat="49.684754" lon="5.819499"><ele>412.54</ele><time>2016-10-09T09:44:18Z</time></trkpt><trkpt lat="49.684771" lon="5.819432"><ele>410.62</ele><time>2016-10-09T09:44:19Z</time></trkpt><trkpt lat="49.684790" lon="5.819363"><ele>411.10</ele><time>2016-10-09T09:44:20Z</time></trkpt><trkpt lat="49.684851" lon="5.819141"><ele>408.70</ele><time>2016-10-09T09:44:23Z</time></trkpt><trkpt lat="49.684878" lon="5.819080"><ele>409.18</ele><time>2016-10-09T09:44:24Z</time></trkpt><trkpt lat="49.684907" lon="5.819023"><ele>412.06</ele><time>2016-10-09T09:44:25Z</time></trkpt><trkpt lat="49.684940" lon="5.818969"><ele>410.14</ele><time>2016-10-09T09:44:26Z</time></trkpt><trkpt lat="49.684973" lon="5.818918"><ele>411.58</ele><time>2016-10-09T09:44:27Z</time></trkpt><trkpt lat="49.685005" lon="5.818871"><ele>408.70</ele><time>2016-10-09T09:44:28Z</time></trkpt><trkpt lat="49.685030" lon="5.818820"><ele>413.50</ele><time>2016-10-09T09:44:29Z</time></trkpt><trkpt lat="49.685049" lon="5.818755"><ele>410.14</ele><time>2016-10-09T09:44:30Z</time></trkpt><trkpt lat="49.685148" lon="5.818514"><ele>410.62</ele><time>2016-10-09T09:44:34Z</time></trkpt><trkpt lat="49.685203" lon="5.818269"><ele>411.10</ele><time>2016-10-09T09:44:42Z</time></trkpt><trkpt lat="49.685227" lon="5.818273"><ele>407.26</ele><time>2016-10-09T09:44:43Z</time></trkpt><trkpt lat="49.685237" lon="5.818273"><ele>412.06</ele><time>2016-10-09T09:44:44Z</time></trkpt><trkpt lat="49.685252" lon="5.818274"><ele>415.43</ele><time>2016-10-09T09:44:46Z</time></trkpt><trkpt lat="49.685245" lon="5.818267"><ele>410.62</ele><time>2016-10-09T09:44:47Z</time></trkpt><trkpt lat="49.685225" lon="5.818238"><ele>412.54</ele><time>2016-10-09T09:44:48Z</time></trkpt><trkpt lat="49.685202" lon="5.818202"><ele>413.50</ele><time>2016-10-09T09:44:49Z</time></trkpt><trkpt lat="49.685181" lon="5.818156"><ele>410.62</ele><time>2016-10-09T09:44:50Z</time></trkpt><trkpt lat="49.685144" lon="5.818076"><ele>419.27</ele><time>2016-10-09T09:44:51Z</time></trkpt><trkpt lat="49.685115" lon="5.818006"><ele>412.06</ele><time>2016-10-09T09:44:52Z</time></trkpt><trkpt lat="49.685095" lon="5.817950"><ele>419.75</ele><time>2016-10-09T09:44:53Z</time></trkpt><trkpt lat="49.685085" lon="5.817915"><ele>411.10</ele><time>2016-10-09T09:44:54Z</time></trkpt><trkpt lat="49.685073" lon="5.817881"><ele>418.79</ele><time>2016-10-09T09:44:55Z</time></trkpt><trkpt lat="49.685060" lon="5.817846"><ele>411.58</ele><time>2016-10-09T09:44:56Z</time></trkpt><trkpt lat="49.685045" lon="5.817817"><ele>418.79</ele><time>2016-10-09T09:44:57Z</time></trkpt><trkpt lat="49.685017" lon="5.817804"><ele>413.50</ele><time>2016-10-09T09:44:58Z</time></trkpt><trkpt lat="49.684993" lon="5.817779"><ele>421.19</ele><time>2016-10-09T09:44:59Z</time></trkpt><trkpt lat="49.684967" lon="5.817750"><ele>415.43</ele><time>2016-10-09T09:45:00Z</time></trkpt><trkpt lat="49.684940" lon="5.817717"><ele>419.75</ele><time>2016-10-09T09:45:01Z</time></trkpt><trkpt lat="49.684727" lon="5.817471"><ele>423.12</ele><time>2016-10-09T09:45:07Z</time></trkpt><trkpt lat="49.684685" lon="5.817418"><ele>417.83</ele><time>2016-10-09T09:45:08Z</time></trkpt><trkpt lat="49.684647" lon="5.817350"><ele>421.19</ele><time>2016-10-09T09:45:09Z</time></trkpt><trkpt lat="49.684445" lon="5.816974"><ele>420.23</ele><time>2016-10-09T09:45:16Z</time></trkpt><trkpt lat="49.684436" lon="5.816929"><ele>423.60</ele><time>2016-10-09T09:45:17Z</time></trkpt><trkpt lat="49.684420" lon="5.816906"><ele>420.23</ele><time>2016-10-09T09:45:18Z</time></trkpt><trkpt lat="49.684514" lon="5.817020"><ele>423.60</ele><time>2016-10-09T09:45:23Z</time></trkpt><trkpt lat="49.684538" lon="5.817058"><ele>423.12</ele><time>2016-10-09T09:45:24Z</time></trkpt><trkpt lat="49.684606" lon="5.817257"><ele>422.16</ele><time>2016-10-09T09:45:28Z</time></trkpt><trkpt lat="49.684628" lon="5.817248"><ele>420.71</ele><time>2016-10-09T09:45:29Z</time></trkpt><trkpt lat="49.684647" lon="5.817230"><ele>422.16</ele><time>2016-10-09T09:45:30Z</time></trkpt><trkpt lat="49.684677" lon="5.817181"><ele>422.16</ele><time>2016-10-09T09:45:31Z</time></trkpt><trkpt lat="49.684709" lon="5.817103"><ele>420.23</ele><time>2016-10-09T09:45:32Z</time></trkpt><trkpt lat="49.684734" lon="5.817040"><ele>423.12</ele><time>2016-10-09T09:45:33Z</time></trkpt><trkpt lat="49.684756" lon="5.816973"><ele>424.08</ele><time>2016-10-09T09:45:34Z</time></trkpt><trkpt lat="49.684779" lon="5.816903"><ele>420.71</ele><time>2016-10-09T09:45:35Z</time></trkpt><trkpt lat="49.684804" lon="5.816841"><ele>422.64</ele><time>2016-10-09T09:45:36Z</time></trkpt><trkpt lat="49.684834" lon="5.816776"><ele>423.60</ele><time>2016-10-09T09:45:37Z</time></trkpt><trkpt lat="49.684981" lon="5.816472"><ele>419.75</ele><time>2016-10-09T09:45:42Z</time></trkpt><trkpt lat="49.685146" lon="5.816202"><ele>417.83</ele><time>2016-10-09T09:45:49Z</time></trkpt><trkpt lat="49.685130" lon="5.816171"><ele>423.12</ele><time>2016-10-09T09:45:50Z</time></trkpt><trkpt lat="49.684907" lon="5.815974"><ele>419.27</ele><time>2016-10-09T09:45:57Z</time></trkpt><trkpt lat="49.684845" lon="5.815925"><ele>423.60</ele><time>2016-10-09T09:45:59Z</time></trkpt><trkpt lat="49.684809" lon="5.815901"><ele>421.19</ele><time>2016-10-09T09:46:00Z</time></trkpt><trkpt lat="49.684774" lon="5.815870"><ele>421.19</ele><time>2016-10-09T09:46:02Z</time></trkpt><trkpt lat="49.684729" lon="5.815760"><ele>424.08</ele><time>2016-10-09T09:46:11Z</time></trkpt><trkpt lat="49.684725" lon="5.815753"><ele>420.23</ele><time>2016-10-09T09:46:12Z</time></trkpt><trkpt lat="49.684717" lon="5.815744"><ele>424.56</ele><time>2016-10-09T09:46:13Z</time></trkpt><trkpt lat="49.684705" lon="5.815730"><ele>421.19</ele><time>2016-10-09T09:46:14Z</time></trkpt><trkpt lat="49.684648" lon="5.815568"><ele>421.19</ele><time>2016-10-09T09:46:19Z</time></trkpt><trkpt lat="49.684628" lon="5.815525"><ele>424.56</ele><time>2016-10-09T09:46:20Z</time></trkpt><trkpt lat="49.684601" lon="5.815470"><ele>423.60</ele><time>2016-10-09T09:46:21Z</time></trkpt><trkpt lat="49.684549" lon="5.815392"><ele>422.16</ele><time>2016-10-09T09:46:25Z</time></trkpt><trkpt lat="49.684419" lon="5.815420"><ele>418.79</ele><time>2016-10-09T09:46:48Z</time></trkpt><trkpt lat="49.684406" lon="5.815417"><ele>418.31</ele><time>2016-10-09T09:46:49Z</time></trkpt><trkpt lat="49.684387" lon="5.815416"><ele>417.35</ele><time>2016-10-09T09:46:50Z</time></trkpt><trkpt lat="49.684367" lon="5.815420"><ele>417.35</ele><time>2016-10-09T09:46:51Z</time></trkpt><trkpt lat="49.684348" lon="5.815432"><ele>421.19</ele><time>2016-10-09T09:46:52Z</time></trkpt><trkpt lat="49.684015" lon="5.815507"><ele>420.23</ele><time>2016-10-09T09:47:04Z</time></trkpt><trkpt lat="49.683953" lon="5.815478"><ele>416.39</ele><time>2016-10-09T09:47:07Z</time></trkpt><trkpt lat="49.683946" lon="5.815447"><ele>421.19</ele><time>2016-10-09T09:47:08Z</time></trkpt><trkpt lat="49.683941" lon="5.815414"><ele>419.75</ele><time>2016-10-09T09:47:09Z</time></trkpt><trkpt lat="49.683928" lon="5.815357"><ele>413.98</ele><time>2016-10-09T09:47:11Z</time></trkpt><trkpt lat="49.683923" lon="5.815337"><ele>422.16</ele><time>2016-10-09T09:47:12Z</time></trkpt><trkpt lat="49.683928" lon="5.815319"><ele>416.87</ele><time>2016-10-09T09:47:14Z</time></trkpt><trkpt lat="49.683920" lon="5.815309"><ele>421.19</ele><time>2016-10-09T09:47:15Z</time></trkpt><trkpt lat="49.683907" lon="5.815304"><ele>419.75</ele><time>2016-10-09T09:47:16Z</time></trkpt><trkpt lat="49.683910" lon="5.815351"><ele>416.87</ele><time>2016-10-09T09:47:26Z</time></trkpt><trkpt lat="49.683910" lon="5.815351"><ele>417.35</ele><time>2016-10-09T09:47:30Z</time></trkpt><trkpt lat="49.683764" lon="5.815003"><ele>417.83</ele><time>2016-10-09T09:47:35Z</time></trkpt><trkpt lat="49.683745" lon="5.814867"><ele>414.47</ele><time>2016-10-09T09:47:36Z</time></trkpt><trkpt lat="49.683752" lon="5.814782"><ele>419.27</ele><time>2016-10-09T09:47:37Z</time></trkpt><trkpt lat="49.683760" lon="5.814711"><ele>416.87</ele><time>2016-10-09T09:47:38Z</time></trkpt><trkpt lat="49.683778" lon="5.814667"><ele>417.83</ele><time>2016-10-09T09:47:39Z</time></trkpt><trkpt lat="49.683797" lon="5.814627"><ele>414.95</ele><time>2016-10-09T09:47:40Z</time></trkpt><trkpt lat="49.683865" lon="5.814539"><ele>419.27</ele><time>2016-10-09T09:47:41Z</time></trkpt><trkpt lat="49.683918" lon="5.814492"><ele>415.91</ele><time>2016-10-09T09:47:42Z</time></trkpt><trkpt lat="49.683955" lon="5.814464"><ele>419.27</ele><time>2016-10-09T09:47:43Z</time></trkpt><trkpt lat="49.683989" lon="5.814442"><ele>416.87</ele><time>2016-10-09T09:47:44Z</time></trkpt><trkpt lat="49.684025" lon="5.814418"><ele>418.31</ele><time>2016-10-09T09:47:45Z</time></trkpt><trkpt lat="49.684222" lon="5.814285"><ele>421.68</ele><time>2016-10-09T09:47:53Z</time></trkpt><trkpt lat="49.684232" lon="5.814268"><ele>414.47</ele><time>2016-10-09T09:47:54Z</time></trkpt><trkpt lat="49.684244" lon="5.814253"><ele>419.27</ele><time>2016-10-09T09:47:55Z</time></trkpt><trkpt lat="49.684260" lon="5.814247"><ele>420.23</ele><time>2016-10-09T09:47:56Z</time></trkpt><trkpt lat="49.684276" lon="5.814245"><ele>414.47</ele><time>2016-10-09T09:47:57Z</time></trkpt><trkpt lat="49.684301" lon="5.814252"><ele>419.75</ele><time>2016-10-09T09:47:58Z</time></trkpt><trkpt lat="49.684444" lon="5.814332"><ele>417.35</ele><time>2016-10-09T09:48:00Z</time></trkpt><trkpt lat="49.684537" lon="5.814450"><ele>420.23</ele><time>2016-10-09T09:48:01Z</time></trkpt><trkpt lat="49.684600" lon="5.814511"><ele>413.98</ele><time>2016-10-09T09:48:02Z</time></trkpt><trkpt lat="49.684649" lon="5.814553"><ele>420.71</ele><time>2016-10-09T09:48:03Z</time></trkpt><trkpt lat="49.684679" lon="5.814596"><ele>416.87</ele><time>2016-10-09T09:48:04Z</time></trkpt><trkpt lat="49.684682" lon="5.814655"><ele>419.27</ele><time>2016-10-09T09:48:05Z</time></trkpt><trkpt lat="49.684675" lon="5.814726"><ele>419.75</ele><time>2016-10-09T09:48:06Z</time></trkpt><trkpt lat="49.684661" lon="5.814799"><ele>416.87</ele><time>2016-10-09T09:48:07Z</time></trkpt><trkpt lat="49.684649" lon="5.814863"><ele>418.79</ele><time>2016-10-09T09:48:08Z</time></trkpt><trkpt lat="49.684625" lon="5.814957"><ele>421.68</ele><time>2016-10-09T09:48:10Z</time></trkpt><trkpt lat="49.684616" lon="5.814987"><ele>418.31</ele><time>2016-10-09T09:48:11Z</time></trkpt><trkpt lat="49.684629" lon="5.814967"><ele>418.79</ele><time>2016-10-09T09:48:14Z</time></trkpt><trkpt lat="49.684644" lon="5.814935"><ele>418.31</ele><time>2016-10-09T09:48:15Z</time></trkpt><trkpt lat="49.684661" lon="5.814905"><ele>415.91</ele><time>2016-10-09T09:48:16Z</time></trkpt><trkpt lat="49.684679" lon="5.814879"><ele>420.23</ele><time>2016-10-09T09:48:17Z</time></trkpt><trkpt lat="49.684698" lon="5.814856"><ele>420.71</ele><time>2016-10-09T09:48:18Z</time></trkpt><trkpt lat="49.684644" lon="5.814635"><ele>415.91</ele><time>2016-10-09T09:48:21Z</time></trkpt><trkpt lat="49.684785" lon="5.814803"><ele>420.23</ele><time>2016-10-09T09:48:23Z</time></trkpt><trkpt lat="49.684788" lon="5.814811"><ele>419.75</ele><time>2016-10-09T09:48:24Z</time></trkpt><trkpt lat="49.684782" lon="5.814834"><ele>416.87</ele><time>2016-10-09T09:48:29Z</time></trkpt><trkpt lat="49.684762" lon="5.814917"><ele>418.79</ele><time>2016-10-09T09:48:32Z</time></trkpt><trkpt lat="49.684768" lon="5.814942"><ele>418.79</ele><time>2016-10-09T09:48:33Z</time></trkpt><trkpt lat="49.684792" lon="5.814953"><ele>417.83</ele><time>2016-10-09T09:48:34Z</time></trkpt><trkpt lat="49.684834" lon="5.815007"><ele>418.31</ele><time>2016-10-09T09:48:36Z</time></trkpt><trkpt lat="49.684842" lon="5.815010"><ele>417.83</ele><time>2016-10-09T09:48:37Z</time></trkpt><trkpt lat="49.684848" lon="5.814990"><ele>418.31</ele><time>2016-10-09T09:48:38Z</time></trkpt><trkpt lat="49.684855" lon="5.814959"><ele>417.83</ele><time>2016-10-09T09:48:39Z</time></trkpt><trkpt lat="49.684861" lon="5.814932"><ele>418.79</ele><time>2016-10-09T09:48:40Z</time></trkpt><trkpt lat="49.684914" lon="5.814986"><ele>420.71</ele><time>2016-10-09T09:48:41Z</time></trkpt><trkpt lat="49.684957" lon="5.815041"><ele>415.91</ele><time>2016-10-09T09:48:42Z</time></trkpt><trkpt lat="49.684986" lon="5.815080"><ele>419.27</ele><time>2016-10-09T09:48:43Z</time></trkpt><trkpt lat="49.685010" lon="5.815119"><ele>415.43</ele><time>2016-10-09T09:48:44Z</time></trkpt><trkpt lat="49.685077" lon="5.815235"><ele>418.79</ele><time>2016-10-09T09:48:47Z</time></trkpt><trkpt lat="49.685130" lon="5.815318"><ele>418.31</ele><time>2016-10-09T09:48:49Z</time></trkpt><trkpt lat="49.685155" lon="5.815337"><ele>415.91</ele><time>2016-10-09T09:48:50Z</time></trkpt><trkpt lat="49.685184" lon="5.815328"><ele>409.66</ele><time>2016-10-09T09:48:51Z</time></trkpt><trkpt lat="49.685207" lon="5.815319"><ele>421.68</ele><time>2016-10-09T09:48:52Z</time></trkpt><trkpt lat="49.685230" lon="5.815309"><ele>417.83</ele><time>2016-10-09T09:48:53Z</time></trkpt><trkpt lat="49.685435" lon="5.815182"><ele>420.23</ele><time>2016-10-09T09:48:59Z</time></trkpt><trkpt lat="49.685453" lon="5.815168"><ele>419.27</ele><time>2016-10-09T09:49:00Z</time></trkpt><trkpt lat="49.685469" lon="5.815119"><ele>418.79</ele><time>2016-10-09T09:49:01Z</time></trkpt><trkpt lat="49.685481" lon="5.815042"><ele>417.83</ele><time>2016-10-09T09:49:02Z</time></trkpt><trkpt lat="49.685481" lon="5.814964"><ele>419.27</ele><time>2016-10-09T09:49:03Z</time></trkpt><trkpt lat="49.685467" lon="5.814882"><ele>416.87</ele><time>2016-10-09T09:49:04Z</time></trkpt><trkpt lat="49.685447" lon="5.814801"><ele>419.27</ele><time>2016-10-09T09:49:05Z</time></trkpt><trkpt lat="49.685406" lon="5.814661"><ele>417.35</ele><time>2016-10-09T09:49:07Z</time></trkpt><trkpt lat="49.685379" lon="5.814607"><ele>418.79</ele><time>2016-10-09T09:49:08Z</time></trkpt><trkpt lat="49.685176" lon="5.814267"><ele>415.91</ele><time>2016-10-09T09:49:15Z</time></trkpt><trkpt lat="49.685075" lon="5.814078"><ele>414.95</ele><time>2016-10-09T09:49:19Z</time></trkpt><trkpt lat="49.684962" lon="5.813879"><ele>411.58</ele><time>2016-10-09T09:49:24Z</time></trkpt><trkpt lat="49.684939" lon="5.813819"><ele>406.77</ele><time>2016-10-09T09:49:26Z</time></trkpt><trkpt lat="49.684925" lon="5.813826"><ele>410.62</ele><time>2016-10-09T09:49:27Z</time></trkpt><trkpt lat="49.684916" lon="5.813824"><ele>413.02</ele><time>2016-10-09T09:49:28Z</time></trkpt><trkpt lat="49.684905" lon="5.813826"><ele>411.58</ele><time>2016-10-09T09:49:29Z</time></trkpt><trkpt lat="49.684889" lon="5.813837"><ele>406.29</ele><time>2016-10-09T09:49:30Z</time></trkpt><trkpt lat="49.684876" lon="5.813849"><ele>412.54</ele><time>2016-10-09T09:49:31Z</time></trkpt><trkpt lat="49.684986" lon="5.813764"><ele>413.50</ele><time>2016-10-09T09:49:34Z</time></trkpt><trkpt lat="49.685000" lon="5.813796"><ele>407.26</ele><time>2016-10-09T09:49:36Z</time></trkpt><trkpt lat="49.685008" lon="5.813812"><ele>413.02</ele><time>2016-10-09T09:49:37Z</time></trkpt><trkpt lat="49.685059" lon="5.813925"><ele>413.02</ele><time>2016-10-09T09:49:44Z</time></trkpt><trkpt lat="49.684591" lon="5.813531"><ele>413.02</ele><time>2016-10-09T09:49:50Z</time></trkpt><trkpt lat="49.684571" lon="5.813512"><ele>411.58</ele><time>2016-10-09T09:49:51Z</time></trkpt><trkpt lat="49.684544" lon="5.813494"><ele>412.54</ele><time>2016-10-09T09:49:52Z</time></trkpt><trkpt lat="49.684506" lon="5.813472"><ele>411.10</ele><time>2016-10-09T09:49:53Z</time></trkpt><trkpt lat="49.684458" lon="5.813451"><ele>410.62</ele><time>2016-10-09T09:49:54Z</time></trkpt><trkpt lat="49.684397" lon="5.813429"><ele>413.02</ele><time>2016-10-09T09:49:55Z</time></trkpt><trkpt lat="49.684353" lon="5.813440"><ele>412.54</ele><time>2016-10-09T09:49:56Z</time></trkpt><trkpt lat="49.684306" lon="5.813429"><ele>411.10</ele><time>2016-10-09T09:49:57Z</time></trkpt><trkpt lat="49.684219" lon="5.813386"><ele>411.58</ele><time>2016-10-09T09:49:59Z</time></trkpt><trkpt lat="49.684056" lon="5.813215"><ele>411.10</ele><time>2016-10-09T09:50:01Z</time></trkpt><trkpt lat="49.684034" lon="5.813151"><ele>410.14</ele><time>2016-10-09T09:50:03Z</time></trkpt><trkpt lat="49.684033" lon="5.812974"><ele>412.06</ele><time>2016-10-09T09:50:07Z</time></trkpt><trkpt lat="49.684034" lon="5.812900"><ele>409.18</ele><time>2016-10-09T09:50:08Z</time></trkpt><trkpt lat="49.684001" lon="5.812857"><ele>411.10</ele><time>2016-10-09T09:50:09Z</time></trkpt><trkpt lat="49.683978" lon="5.812846"><ele>410.62</ele><time>2016-10-09T09:50:10Z</time></trkpt><trkpt lat="49.683963" lon="5.812851"><ele>411.58</ele><time>2016-10-09T09:50:11Z</time></trkpt><trkpt lat="49.683909" lon="5.812752"><ele>409.18</ele><time>2016-10-09T09:50:12Z</time></trkpt><trkpt lat="49.683893" lon="5.812729"><ele>410.62</ele><time>2016-10-09T09:50:13Z</time></trkpt><trkpt lat="49.683895" lon="5.812738"><ele>411.58</ele><time>2016-10-09T09:50:14Z</time></trkpt><trkpt lat="49.683904" lon="5.812756"><ele>411.58</ele><time>2016-10-09T09:50:15Z</time></trkpt><trkpt lat="49.683915" lon="5.812772"><ele>411.58</ele><time>2016-10-09T09:50:16Z</time></trkpt><trkpt lat="49.683923" lon="5.812781"><ele>411.58</ele><time>2016-10-09T09:50:17Z</time></trkpt><trkpt lat="49.683944" lon="5.812803"><ele>413.02</ele><time>2016-10-09T09:50:22Z</time></trkpt><trkpt lat="49.683952" lon="5.812826"><ele>418.31</ele><time>2016-10-09T09:50:23Z</time></trkpt><trkpt lat="49.683961" lon="5.812862"><ele>413.98</ele><time>2016-10-09T09:50:24Z</time></trkpt><trkpt lat="49.683968" lon="5.812907"><ele>410.14</ele><time>2016-10-09T09:50:25Z</time></trkpt><trkpt lat="49.683973" lon="5.812962"><ele>413.02</ele><time>2016-10-09T09:50:26Z</time></trkpt><trkpt lat="49.683979" lon="5.813021"><ele>412.54</ele><time>2016-10-09T09:50:27Z</time></trkpt><trkpt lat="49.683994" lon="5.813339"><ele>412.54</ele><time>2016-10-09T09:50:32Z</time></trkpt><trkpt lat="49.683981" lon="5.813412"><ele>411.10</ele><time>2016-10-09T09:50:33Z</time></trkpt><trkpt lat="49.683957" lon="5.813486"><ele>410.62</ele><time>2016-10-09T09:50:34Z</time></trkpt><trkpt lat="49.683924" lon="5.813559"><ele>409.66</ele><time>2016-10-09T09:50:35Z</time></trkpt><trkpt lat="49.683886" lon="5.813627"><ele>410.14</ele><time>2016-10-09T09:50:36Z</time></trkpt><trkpt lat="49.683844" lon="5.813691"><ele>409.66</ele><time>2016-10-09T09:50:37Z</time></trkpt><trkpt lat="49.683724" lon="5.813802"><ele>408.22</ele><time>2016-10-09T09:50:39Z</time></trkpt><trkpt lat="49.683678" lon="5.813850"><ele>408.70</ele><time>2016-10-09T09:50:40Z</time></trkpt><trkpt lat="49.683542" lon="5.814014"><ele>406.77</ele><time>2016-10-09T09:50:44Z</time></trkpt><trkpt lat="49.683525" lon="5.814010"><ele>411.58</ele><time>2016-10-09T09:50:45Z</time></trkpt><trkpt lat="49.683518" lon="5.813999"><ele>406.29</ele><time>2016-10-09T09:50:46Z</time></trkpt><trkpt lat="49.683518" lon="5.813990"><ele>409.18</ele><time>2016-10-09T09:50:47Z</time></trkpt><trkpt lat="49.683522" lon="5.813967"><ele>405.33</ele><time>2016-10-09T09:50:49Z</time></trkpt><trkpt lat="49.683526" lon="5.813951"><ele>409.18</ele><time>2016-10-09T09:50:50Z</time></trkpt><trkpt lat="49.683545" lon="5.813910"><ele>413.02</ele><time>2016-10-09T09:50:52Z</time></trkpt><trkpt lat="49.683576" lon="5.813857"><ele>408.70</ele><time>2016-10-09T09:50:55Z</time></trkpt><trkpt lat="49.683625" lon="5.813788"><ele>406.77</ele><time>2016-10-09T09:51:00Z</time></trkpt><trkpt lat="49.683633" lon="5.813775"><ele>409.18</ele><time>2016-10-09T09:51:02Z</time></trkpt><trkpt lat="49.683534" lon="5.813811"><ele>408.70</ele><time>2016-10-09T09:51:15Z</time></trkpt><trkpt lat="49.683515" lon="5.813826"><ele>407.74</ele><time>2016-10-09T09:51:16Z</time></trkpt><trkpt lat="49.683496" lon="5.813832"><ele>408.70</ele><time>2016-10-09T09:51:17Z</time></trkpt><trkpt lat="49.683480" lon="5.813835"><ele>407.26</ele><time>2016-10-09T09:51:18Z</time></trkpt><trkpt lat="49.683447" lon="5.813818"><ele>405.81</ele><time>2016-10-09T09:51:21Z</time></trkpt><trkpt lat="49.683435" lon="5.813803"><ele>409.66</ele><time>2016-10-09T09:51:22Z</time></trkpt><trkpt lat="49.683387" lon="5.813676"><ele>409.18</ele><time>2016-10-09T09:51:26Z</time></trkpt><trkpt lat="49.683351" lon="5.813601"><ele>410.14</ele><time>2016-10-09T09:51:28Z</time></trkpt><trkpt lat="49.683319" lon="5.813567"><ele>407.26</ele><time>2016-10-09T09:51:29Z</time></trkpt><trkpt lat="49.683252" lon="5.813455"><ele>408.70</ele><time>2016-10-09T09:51:32Z</time></trkpt><trkpt lat="49.683241" lon="5.813389"><ele>408.70</ele><time>2016-10-09T09:51:33Z</time></trkpt><trkpt lat="49.683233" lon="5.813337"><ele>408.22</ele><time>2016-10-09T09:51:34Z</time></trkpt><trkpt lat="49.683220" lon="5.813292"><ele>411.10</ele><time>2016-10-09T09:51:35Z</time></trkpt><trkpt lat="49.683206" lon="5.813249"><ele>408.70</ele><time>2016-10-09T09:51:36Z</time></trkpt><trkpt lat="49.683126" lon="5.813031"><ele>407.26</ele><time>2016-10-09T09:51:53Z</time></trkpt><trkpt lat="49.683126" lon="5.813031"><ele>403.89</ele><time>2016-10-09T09:52:00Z</time></trkpt><trkpt lat="49.683126" lon="5.813031"><ele>408.70</ele><time>2016-10-09T09:52:01Z</time></trkpt><trkpt lat="49.683126" lon="5.813031"><ele>404.37</ele><time>2016-10-09T09:52:02Z</time></trkpt><trkpt lat="49.683126" lon="5.813031"><ele>407.74</ele><time>2016-10-09T09:52:03Z</time></trkpt><trkpt lat="49.683126" lon="5.813031"><ele>408.70</ele><time>2016-10-09T09:52:05Z</time></trkpt><trkpt lat="49.683126" lon="5.813031"><ele>404.37</ele><time>2016-10-09T09:52:10Z</time></trkpt><trkpt lat="49.683126" lon="5.813031"><ele>408.70</ele><time>2016-10-09T09:52:11Z</time></trkpt></trkseg></trk></gpx>